Wetterdaten: Mittwoch, 20.09.2017
Datum Zeit Temp. A. Pool Temp. Feuchte A. Luftdruck Regen Wind Richtung Richtung Sonnenschein ET UV Solar Taupunkt Windchill Windben Empfang
20.09.2017 00:00 8,9 C 13,9 C 95 % 1016,8 hPa 0,0 l/m 15,6 km/h (3 Bft) SW 232 0 min 0,000 mm 0,0 UV-I 0 W/m 8,1 C 3,5 C 22,5 km/h (4 Bft) 98,11 %
20.09.2017 00:02 8,9 C 13,9 C 95 % 1016,9 hPa 0,0 l/m 16,5 km/h (3 Bft) W-SW 253 0 min 0,000 mm 0,0 UV-I 0 W/m 8,1 C 3,2 C 24,1 km/h (4 Bft) 96,77 %
20.09.2017 00:04 8,9 C 13,9 C 95 % 1016,8 hPa 0,0 l/m 13,8 km/h (3 Bft) SW 230 0 min 0,000 mm 0,0 UV-I 0 W/m 8,1 C 4,3 C 19,3 km/h (3 Bft) 95,24 %
20.09.2017 00:06 8,9 C 13,9 C 95 % 1016,8 hPa 0,0 l/m 12,6 km/h (3 Bft) W-SW 246 0 min 0,000 mm 0,0 UV-I 0 W/m 8,1 C 4,9 C 24,1 km/h (4 Bft) 97,62 %
20.09.2017 00:08 8,9 C 13,9 C 95 % 1016,8 hPa 0,0 l/m 16,6 km/h (3 Bft) SW 234 0 min 0,000 mm 0,0 UV-I 0 W/m 8,1 C 3,1 C 22,5 km/h (4 Bft) 97,56 %
20.09.2017 00:10 8,9 C 13,9 C 95 % 1016,8 hPa 0,0 l/m 13,2 km/h (3 Bft) SW 214 0 min 0,000 mm 0,0 UV-I 0 W/m 8,1 C 4,6 C 22,5 km/h (4 Bft) 96,43 %
20.09.2017 00:12 8,8 C 13,9 C 95 % 1016,9 hPa 0,0 l/m 15,5 km/h (3 Bft) SW 214 0 min 0,000 mm 0,0 UV-I 0 W/m 8,0 C 3,5 C 25,7 km/h (4 Bft) 100,00 %
20.09.2017 00:14 8,8 C 13,9 C 95 % 1016,8 hPa 0,0 l/m 14,1 km/h (3 Bft) S-SW 200 0 min 0,000 mm 0,0 UV-I 0 W/m 8,0 C 4,1 C 19,3 km/h (3 Bft) 94,12 %
20.09.2017 00:16 8,8 C 13,9 C 95 % 1016,8 hPa 0,0 l/m 13,1 km/h (3 Bft) W-SW 240 0 min 0,000 mm 0,0 UV-I 0 W/m 8,0 C 4,6 C 24,1 km/h (4 Bft) 97,37 %
20.09.2017 00:18 8,8 C 13,9 C 95 % 1016,7 hPa 0,0 l/m 12,4 km/h (3 Bft) S-SW 206 0 min 0,000 mm 0,0 UV-I 0 W/m 8,0 C 4,9 C 19,3 km/h (3 Bft) 98,00 %
20.09.2017 00:20 8,8 C 13,9 C 95 % 1016,8 hPa 0,0 l/m 12,0 km/h (2 Bft) SW 225 0 min 0,000 mm 0,0 UV-I 0 W/m 8,0 C 5,1 C 17,7 km/h (3 Bft) 96,23 %
20.09.2017 00:22 8,8 C 13,9 C 95 % 1016,8 hPa 0,0 l/m 10,6 km/h (2 Bft) S-SW 202 0 min 0,000 mm 0,0 UV-I 0 W/m 8,0 C 5,9 C 17,7 km/h (3 Bft) 93,62 %
20.09.2017 00:24 8,8 C 13,9 C 95 % 1016,8 hPa 0,0 l/m 11,1 km/h (2 Bft) W 261 0 min 0,000 mm 0,0 UV-I 0 W/m 8,0 C 5,6 C 20,9 km/h (4 Bft) 97,56 %
20.09.2017 00:26 8,8 C 13,9 C 95 % 1016,8 hPa 0,0 l/m 18,1 km/h (3 Bft) W-SW 238 0 min 0,000 mm 0,0 UV-I 0 W/m 8,0 C 2,4 C 25,7 km/h (4 Bft) 97,78 %
20.09.2017 00:28 8,8 C 13,9 C 95 % 1016,7 hPa 0,0 l/m 13,1 km/h (3 Bft) SW 223 0 min 0,000 mm 0,0 UV-I 0 W/m 8,0 C 4,6 C 17,7 km/h (3 Bft) 97,87 %
20.09.2017 00:30 8,8 C 13,9 C 95 % 1016,8 hPa 0,0 l/m 12,8 km/h (3 Bft) W-SW 238 0 min 0,000 mm 0,0 UV-I 0 W/m 8,0 C 4,7 C 19,3 km/h (3 Bft) 96,15 %
20.09.2017 00:32 8,8 C 13,9 C 95 % 1016,8 hPa 0,0 l/m 14,7 km/h (3 Bft) S-SW 193 0 min 0,000 mm 0,0 UV-I 0 W/m 8,0 C 3,8 C 22,5 km/h (4 Bft) 94,44 %
20.09.2017 00:34 8,8 C 13,9 C 95 % 1016,7 hPa 0,0 l/m 14,4 km/h (3 Bft) SW 221 0 min 0,000 mm 0,0 UV-I 0 W/m 8,0 C 4,0 C 24,1 km/h (4 Bft) 94,92 %
20.09.2017 00:36 8,8 C 13,9 C 95 % 1016,7 hPa 0,0 l/m 12,0 km/h (2 Bft) SW 232 0 min 0,000 mm 0,0 UV-I 0 W/m 8,0 C 5,1 C 17,7 km/h (3 Bft) 95,45 %
20.09.2017 00:38 8,8 C 13,9 C 95 % 1016,7 hPa 0,0 l/m 13,9 km/h (3 Bft) W-SW 255 0 min 0,000 mm 0,0 UV-I 0 W/m 8,0 C 4,2 C 20,9 km/h (4 Bft) 96,00 %
20.09.2017 00:40 8,8 C 13,9 C 95 % 1016,7 hPa 0,0 l/m 16,5 km/h (3 Bft) SW 236 0 min 0,000 mm 0,0 UV-I 0 W/m 8,0 C 3,0 C 22,5 km/h (4 Bft) 94,74 %
20.09.2017 00:42 8,8 C 13,9 C 95 % 1016,7 hPa 0,0 l/m 15,5 km/h (3 Bft) SW 219 0 min 0,000 mm 0,0 UV-I 0 W/m 8,0 C 3,5 C 25,7 km/h (4 Bft) 98,11 %
20.09.2017 00:44 8,8 C 13,9 C 95 % 1016,7 hPa 0,0 l/m 17,0 km/h (3 Bft) SW 224 0 min 0,000 mm 0,0 UV-I 0 W/m 8,0 C 2,8 C 24,1 km/h (4 Bft) 97,62 %
20.09.2017 00:46 8,8 C 13,9 C 95 % 1016,7 hPa 0,0 l/m 12,8 km/h (3 Bft) W-SW 239 0 min 0,000 mm 0,0 UV-I 0 W/m 8,0 C 4,7 C 20,9 km/h (4 Bft) 96,23 %
20.09.2017 00:48 8,8 C 13,9 C 95 % 1016,7 hPa 0,0 l/m 12,2 km/h (2 Bft) SW 217 0 min 0,000 mm 0,0 UV-I 0 W/m 8,0 C 5,0 C 20,9 km/h (4 Bft) 97,56 %
20.09.2017 00:50 8,8 C 13,9 C 95 % 1016,8 hPa 0,0 l/m 13,2 km/h (3 Bft) W-SW 240 0 min 0,000 mm 0,0 UV-I 0 W/m 8,0 C 4,5 C 20,9 km/h (4 Bft) 95,45 %
20.09.2017 00:52 8,8 C 13,9 C 95 % 1016,8 hPa 0,0 l/m 17,1 km/h (3 Bft) W-SW 239 0 min 0,000 mm 0,0 UV-I 0 W/m 8,0 C 2,8 C 25,7 km/h (4 Bft) 98,21 %
20.09.2017 00:54 8,8 C 13,9 C 95 % 1016,7 hPa 0,2 l/m 14,6 km/h (3 Bft) W-SW 249 0 min 0,000 mm 0,0 UV-I 0 W/m 8,0 C 3,9 C 20,9 km/h (4 Bft) 96,55 %
20.09.2017 00:56 8,8 C 13,9 C 95 % 1016,8 hPa 0,0 l/m 16,1 km/h (3 Bft) SW 215 0 min 0,000 mm 0,0 UV-I 0 W/m 8,0 C 3,2 C 25,7 km/h (4 Bft) 98,46 %
20.09.2017 00:58 8,8 C 13,9 C 95 % 1016,7 hPa 0,0 l/m 13,2 km/h (3 Bft) S-SW 208 0 min 0,000 mm 0,0 UV-I 0 W/m 8,0 C 4,5 C 17,7 km/h (3 Bft) 97,87 %
20.09.2017 01:00 8,8 C 13,9 C 95 % 1016,7 hPa 0,0 l/m 13,0 km/h (3 Bft) SW 227 0 min 0,000 mm 0,0 UV-I 0 W/m 8,0 C 4,6 C 22,5 km/h (4 Bft) 97,56 %
20.09.2017 01:02 8,8 C 13,9 C 95 % 1016,8 hPa 0,0 l/m 13,7 km/h (3 Bft) SW 217 0 min 0,000 mm 0,0 UV-I 0 W/m 8,0 C 4,3 C 20,9 km/h (4 Bft) 96,00 %
20.09.2017 01:04 8,8 C 13,9 C 95 % 1016,7 hPa 0,0 l/m 14,5 km/h (3 Bft) SW 223 0 min 0,000 mm 0,0 UV-I 0 W/m 8,0 C 3,9 C 20,9 km/h (4 Bft) 100,00 %
20.09.2017 01:06 8,8 C 13,9 C 95 % 1016,7 hPa 0,0 l/m 16,6 km/h (3 Bft) SW 221 0 min 0,000 mm 0,0 UV-I 0 W/m 8,0 C 3,0 C 25,7 km/h (4 Bft) 98,11 %
20.09.2017 01:08 8,8 C 13,9 C 95 % 1016,7 hPa 0,0 l/m 13,9 km/h (3 Bft) SW 234 0 min 0,000 mm 0,0 UV-I 0 W/m 8,0 C 4,2 C 20,9 km/h (4 Bft) 100,00 %
20.09.2017 01:10 8,8 C 13,9 C 95 % 1016,8 hPa 0,0 l/m 16,4 km/h (3 Bft) SW 231 0 min 0,000 mm 0,0 UV-I 0 W/m 8,0 C 3,1 C 24,1 km/h (4 Bft) 100,00 %
20.09.2017 01:12 8,8 C 13,9 C 95 % 1016,7 hPa 0,0 l/m 14,2 km/h (3 Bft) SW 232 0 min 0,000 mm 0,0 UV-I 0 W/m 8,0 C 4,0 C 22,5 km/h (4 Bft) 97,62 %
20.09.2017 01:14 8,8 C 13,9 C 95 % 1016,8 hPa 0,0 l/m 16,1 km/h (3 Bft) SW 223 0 min 0,000 mm 0,0 UV-I 0 W/m 8,0 C 3,2 C 24,1 km/h (4 Bft) 100,00 %
20.09.2017 01:16 8,8 C 13,9 C 95 % 1016,8 hPa 0,0 l/m 13,0 km/h (3 Bft) S 184 0 min 0,000 mm 0,0 UV-I 0 W/m 8,0 C 4,6 C 22,5 km/h (4 Bft) 100,00 %
20.09.2017 01:18 8,8 C 13,9 C 95 % 1016,8 hPa 0,0 l/m 15,4 km/h (3 Bft) SW 225 0 min 0,000 mm 0,0 UV-I 0 W/m 8,0 C 3,5 C 22,5 km/h (4 Bft) 100,00 %
20.09.2017 01:20 8,8 C 13,9 C 95 % 1016,8 hPa 0,0 l/m 15,6 km/h (3 Bft) W-SW 238 0 min 0,000 mm 0,0 UV-I 0 W/m 8,0 C 3,4 C 22,5 km/h (4 Bft) 100,00 %
20.09.2017 01:22 8,8 C 13,9 C 95 % 1016,8 hPa 0,0 l/m 18,0 km/h (3 Bft) SW 227 0 min 0,000 mm 0,0 UV-I 0 W/m 8,0 C 2,5 C 24,1 km/h (4 Bft) 100,00 %
20.09.2017 01:24 8,8 C 13,9 C 95 % 1016,8 hPa 0,0 l/m 16,3 km/h (3 Bft) SW 234 0 min 0,000 mm 0,0 UV-I 0 W/m 8,0 C 3,1 C 24,1 km/h (4 Bft) 100,00 %
20.09.2017 01:26 8,8 C 13,9 C 95 % 1016,8 hPa 0,0 l/m 14,6 km/h (3 Bft) SW 230 0 min 0,000 mm 0,0 UV-I 0 W/m 8,0 C 3,9 C 19,3 km/h (3 Bft) 100,00 %
20.09.2017 01:28 8,8 C 13,9 C 95 % 1016,9 hPa 0,0 l/m 15,6 km/h (3 Bft) SW 235 0 min 0,000 mm 0,0 UV-I 0 W/m 8,0 C 3,4 C 20,9 km/h (4 Bft) 97,87 %
20.09.2017 01:30 8,8 C 13,9 C 95 % 1016,9 hPa 0,0 l/m 12,5 km/h (3 Bft) SW 236 0 min 0,000 mm 0,0 UV-I 0 W/m 8,0 C 4,9 C 19,3 km/h (3 Bft) 100,00 %
20.09.2017 01:32 8,8 C 13,9 C 95 % 1016,9 hPa 0,0 l/m 13,9 km/h (3 Bft) SW 230 0 min 0,000 mm 0,0 UV-I 0 W/m 8,0 C 4,2 C 19,3 km/h (3 Bft) 100,00 %
20.09.2017 01:34 8,8 C 13,9 C 95 % 1016,9 hPa 0,0 l/m 12,5 km/h (3 Bft) S-SW 202 0 min 0,000 mm 0,0 UV-I 0 W/m 8,0 C 4,9 C 20,9 km/h (4 Bft) 97,56 %
20.09.2017 01:36 8,8 C 13,9 C 95 % 1016,9 hPa 0,0 l/m 14,4 km/h (3 Bft) SW 223 0 min 0,000 mm 0,0 UV-I 0 W/m 8,0 C 4,0 C 19,3 km/h (3 Bft) 100,00 %
20.09.2017 01:38 8,8 C 13,9 C 95 % 1016,9 hPa 0,0 l/m 12,9 km/h (3 Bft) S-SW 207 0 min 0,000 mm 0,0 UV-I 0 W/m 8,0 C 4,7 C 20,9 km/h (4 Bft) 100,00 %
20.09.2017 01:40 8,8 C 13,9 C 95 % 1016,9 hPa 0,0 l/m 12,4 km/h (3 Bft) SW 227 0 min 0,000 mm 0,0 UV-I 0 W/m 8,0 C 4,9 C 20,9 km/h (4 Bft) 100,00 %
20.09.2017 01:42 8,8 C 13,9 C 95 % 1016,9 hPa 0,0 l/m 14,2 km/h (3 Bft) SW 232 0 min 0,000 mm 0,0 UV-I 0 W/m 8,0 C 4,0 C 20,9 km/h (4 Bft) 100,00 %
20.09.2017 01:44 8,8 C 13,9 C 95 % 1016,9 hPa 0,0 l/m 13,9 km/h (3 Bft) W-SW 241 0 min 0,000 mm 0,0 UV-I 0 W/m 8,0 C 4,2 C 22,5 km/h (4 Bft) 100,00 %
20.09.2017 01:46 8,8 C 13,9 C 95 % 1016,9 hPa 0,0 l/m 12,4 km/h (3 Bft) S-SW 210 0 min 0,000 mm 0,0 UV-I 0 W/m 8,0 C 4,9 C 20,9 km/h (4 Bft) 100,00 %
20.09.2017 01:48 8,8 C 13,9 C 94 % 1016,9 hPa 0,0 l/m 14,1 km/h (3 Bft) W-SW 243 0 min 0,000 mm 0,0 UV-I 0 W/m 7,9 C 4,1 C 22,5 km/h (4 Bft) 100,00 %
20.09.2017 01:50 8,8 C 13,9 C 94 % 1016,9 hPa 0,0 l/m 17,3 km/h (3 Bft) W-SW 257 0 min 0,000 mm 0,0 UV-I 0 W/m 7,9 C 2,7 C 27,4 km/h (4 Bft) 100,00 %
20.09.2017 01:52 8,8 C 13,9 C 94 % 1016,9 hPa 0,0 l/m 14,3 km/h (3 Bft) S 188 0 min 0,000 mm 0,0 UV-I 0 W/m 7,9 C 4,0 C 22,5 km/h (4 Bft) 97,37 %
20.09.2017 01:54 8,8 C 13,9 C 94 % 1017,0 hPa 0,0 l/m 12,1 km/h (2 Bft) SW 229 0 min 0,000 mm 0,0 UV-I 0 W/m 7,9 C 5,1 C 19,3 km/h (3 Bft) 100,00 %
20.09.2017 01:56 8,8 C 13,9 C 94 % 1017,0 hPa 0,0 l/m 16,1 km/h (3 Bft) SW 223 0 min 0,000 mm 0,0 UV-I 0 W/m 7,9 C 3,2 C 22,5 km/h (4 Bft) 97,87 %
20.09.2017 01:58 8,8 C 13,9 C 94 % 1016,9 hPa 0,0 l/m 14,3 km/h (3 Bft) S-SW 207 0 min 0,000 mm 0,0 UV-I 0 W/m 7,9 C 4,0 C 22,5 km/h (4 Bft) 98,11 %
20.09.2017 02:00 8,8 C 13,9 C 94 % 1016,9 hPa 0,0 l/m 12,3 km/h (3 Bft) S-SW 202 0 min 0,000 mm 0,0 UV-I 0 W/m 7,9 C 5,0 C 16,1 km/h (3 Bft) 97,37 %
20.09.2017 02:02 8,8 C 13,9 C 94 % 1016,9 hPa 0,0 l/m 16,6 km/h (3 Bft) W-SW 244 0 min 0,000 mm 0,0 UV-I 0 W/m 7,9 C 3,0 C 24,1 km/h (4 Bft) 100,00 %
20.09.2017 02:04 8,8 C 13,9 C 94 % 1017,0 hPa 0,0 l/m 14,2 km/h (3 Bft) W-SW 238 0 min 0,000 mm 0,0 UV-I 0 W/m 7,9 C 4,0 C 20,9 km/h (4 Bft) 98,00 %
20.09.2017 02:06 8,8 C 13,9 C 94 % 1016,9 hPa 0,0 l/m 17,6 km/h (3 Bft) SW 235 0 min 0,000 mm 0,0 UV-I 0 W/m 7,9 C 2,6 C 25,7 km/h (4 Bft) 100,00 %
20.09.2017 02:08 8,8 C 13,9 C 94 % 1016,9 hPa 0,0 l/m 17,1 km/h (3 Bft) W-SW 245 0 min 0,000 mm 0,0 UV-I 0 W/m 7,9 C 2,8 C 22,5 km/h (4 Bft) 100,00 %
20.09.2017 02:10 8,8 C 13,9 C 94 % 1016,9 hPa 0,0 l/m 14,2 km/h (3 Bft) S-SW 206 0 min 0,000 mm 0,0 UV-I 0 W/m 7,9 C 4,0 C 20,9 km/h (4 Bft) 100,00 %
20.09.2017 02:12 8,8 C 13,3 C 94 % 1016,9 hPa 0,0 l/m 14,7 km/h (3 Bft) W-SW 242 0 min 0,000 mm 0,0 UV-I 0 W/m 7,9 C 3,8 C 22,5 km/h (4 Bft) 100,00 %
20.09.2017 02:14 8,8 C 13,3 C 94 % 1016,9 hPa 0,0 l/m 14,8 km/h (3 Bft) S-SW 202 0 min 0,000 mm 0,0 UV-I 0 W/m 7,9 C 3,8 C 24,1 km/h (4 Bft) 100,00 %
20.09.2017 02:16 8,8 C 13,3 C 94 % 1016,9 hPa 0,0 l/m 12,6 km/h (3 Bft) SW 227 0 min 0,000 mm 0,0 UV-I 0 W/m 7,9 C 4,8 C 19,3 km/h (3 Bft) 100,00 %
20.09.2017 02:18 8,8 C 13,3 C 94 % 1016,9 hPa 0,0 l/m 9,3 km/h (2 Bft) SW 230 0 min 0,000 mm 0,0 UV-I 0 W/m 7,9 C 6,7 C 12,9 km/h (3 Bft) 100,00 %
20.09.2017 02:20 8,8 C 13,3 C 94 % 1017,0 hPa 0,0 l/m 15,1 km/h (3 Bft) SW 216 0 min 0,000 mm 0,0 UV-I 0 W/m 7,9 C 3,6 C 20,9 km/h (4 Bft) 98,11 %
20.09.2017 02:22 8,8 C 13,3 C 94 % 1017,0 hPa 0,0 l/m 12,3 km/h (3 Bft) SW 234 0 min 0,000 mm 0,0 UV-I 0 W/m 7,9 C 5,0 C 19,3 km/h (3 Bft) 98,11 %
20.09.2017 02:24 8,8 C 13,3 C 94 % 1016,9 hPa 0,0 l/m 17,7 km/h (3 Bft) W-SW 238 0 min 0,000 mm 0,0 UV-I 0 W/m 7,9 C 2,6 C 22,5 km/h (4 Bft) 100,00 %
20.09.2017 02:26 8,8 C 13,3 C 94 % 1016,9 hPa 0,0 l/m 13,0 km/h (3 Bft) S 190 0 min 0,000 mm 0,0 UV-I 0 W/m 7,9 C 4,6 C 20,9 km/h (4 Bft) 100,00 %
20.09.2017 02:28 8,8 C 13,3 C 94 % 1017,0 hPa 0,0 l/m 11,7 km/h (2 Bft) W-SW 250 0 min 0,000 mm 0,0 UV-I 0 W/m 7,9 C 5,3 C 17,7 km/h (3 Bft) 100,00 %
20.09.2017 02:30 8,8 C 13,3 C 94 % 1017,0 hPa 0,0 l/m 11,7 km/h (2 Bft) W 275 0 min 0,000 mm 0,0 UV-I 0 W/m 7,9 C 5,3 C 17,7 km/h (3 Bft) 97,62 %
20.09.2017 02:32 8,8 C 13,3 C 94 % 1017,0 hPa 0,0 l/m 10,2 km/h (2 Bft) W-SW 254 0 min 0,000 mm 0,0 UV-I 0 W/m 7,9 C 6,1 C 16,1 km/h (3 Bft) 98,08 %
20.09.2017 02:34 8,8 C 13,3 C 94 % 1017,0 hPa 0,0 l/m 13,1 km/h (3 Bft) W-SW 247 0 min 0,000 mm 0,0 UV-I 0 W/m 7,9 C 4,6 C 22,5 km/h (4 Bft) 100,00 %
20.09.2017 02:36 8,8 C 13,3 C 94 % 1017,0 hPa 0,0 l/m 11,1 km/h (2 Bft) SW 219 0 min 0,000 mm 0,0 UV-I 0 W/m 7,9 C 5,6 C 19,3 km/h (3 Bft) 98,11 %
20.09.2017 02:38 8,8 C 13,3 C 94 % 1017,0 hPa 0,0 l/m 11,4 km/h (2 Bft) W-SW 238 0 min 0,000 mm 0,0 UV-I 0 W/m 7,9 C 5,5 C 17,7 km/h (3 Bft) 97,87 %
20.09.2017 02:40 8,8 C 13,3 C 94 % 1017,0 hPa 0,0 l/m 11,8 km/h (2 Bft) SW 231 0 min 0,000 mm 0,0 UV-I 0 W/m 7,9 C 5,2 C 17,7 km/h (3 Bft) 97,56 %
20.09.2017 02:42 8,8 C 13,3 C 94 % 1017,0 hPa 0,0 l/m 9,7 km/h (2 Bft) SW 229 0 min 0,000 mm 0,0 UV-I 0 W/m 7,9 C 6,5 C 16,1 km/h (3 Bft) 98,00 %
20.09.2017 02:44 8,8 C 13,3 C 94 % 1017,0 hPa 0,0 l/m 12,4 km/h (3 Bft) S-SW 212 0 min 0,000 mm 0,0 UV-I 0 W/m 7,9 C 4,9 C 19,3 km/h (3 Bft) 97,73 %
20.09.2017 02:46 8,8 C 13,3 C 94 % 1017,0 hPa 0,0 l/m 12,9 km/h (3 Bft) SW 225 0 min 0,000 mm 0,0 UV-I 0 W/m 7,9 C 4,7 C 19,3 km/h (3 Bft) 94,34 %
20.09.2017 02:48 8,8 C 13,3 C 94 % 1017,0 hPa 0,0 l/m 10,9 km/h (2 Bft) W 268 0 min 0,000 mm 0,0 UV-I 0 W/m 7,9 C 5,7 C 17,7 km/h (3 Bft) 97,87 %
20.09.2017 02:50 8,8 C 13,3 C 94 % 1016,9 hPa 0,0 l/m 12,0 km/h (2 Bft) SW 219 0 min 0,000 mm 0,0 UV-I 0 W/m 7,9 C 5,1 C 16,1 km/h (3 Bft) 94,29 %
20.09.2017 02:53 8,8 C 13,3 C 94 % 1017,0 hPa 0,0 l/m 12,9 km/h (3 Bft) S-SW 213 0 min 0,000 mm 0,0 UV-I 0 W/m 7,9 C 4,7 C 17,7 km/h (3 Bft) 97,06 %
20.09.2017 02:54 8,8 C 13,3 C 94 % 1017,0 hPa 0,0 l/m 13,9 km/h (3 Bft) SW 222 0 min 0,000 mm 0,0 UV-I 0 W/m 7,9 C 4,2 C 19,3 km/h (3 Bft) 96,15 %
20.09.2017 02:56 8,8 C 13,3 C 94 % 1017,0 hPa 0,0 l/m 12,5 km/h (3 Bft) SW 216 0 min 0,000 mm 0,0 UV-I 0 W/m 7,9 C 4,9 C 19,3 km/h (3 Bft) 96,61 %
20.09.2017 02:58 8,8 C 13,3 C 94 % 1017,0 hPa 0,0 l/m 14,8 km/h (3 Bft) W-SW 242 0 min 0,000 mm 0,0 UV-I 0 W/m 7,9 C 3,8 C 20,9 km/h (4 Bft) 97,73 %
20.09.2017 03:00 8,8 C 13,3 C 94 % 1017,0 hPa 0,0 l/m 15,6 km/h (3 Bft) S-SW 209 0 min 0,000 mm 0,0 UV-I 0 W/m 7,9 C 3,4 C 20,9 km/h (4 Bft) 97,37 %
20.09.2017 03:02 8,8 C 13,3 C 94 % 1017,0 hPa 0,0 l/m 12,7 km/h (3 Bft) W-SW 245 0 min 0,000 mm 0,0 UV-I 0 W/m 7,9 C 4,8 C 16,1 km/h (3 Bft) 86,79 %
20.09.2017 03:04 8,8 C 13,3 C 95 % 1017,0 hPa 0,0 l/m 14,2 km/h (3 Bft) SW 234 0 min 0,000 mm 0,0 UV-I 0 W/m 8,0 C 4,0 C 20,9 km/h (4 Bft) 98,00 %
20.09.2017 03:06 8,8 C 13,3 C 94 % 1017,0 hPa 0,0 l/m 14,5 km/h (3 Bft) W-SW 257 0 min 0,000 mm 0,0 UV-I 0 W/m 7,9 C 3,9 C 19,3 km/h (3 Bft) 97,44 %
20.09.2017 03:08 8,8 C 13,3 C 94 % 1017,0 hPa 0,0 l/m 10,9 km/h (2 Bft) SW 229 0 min 0,000 mm 0,0 UV-I 0 W/m 7,9 C 5,7 C 16,1 km/h (3 Bft) 96,23 %
20.09.2017 03:10 8,8 C 13,3 C 94 % 1017,0 hPa 0,0 l/m 12,6 km/h (3 Bft) W 263 0 min 0,000 mm 0,0 UV-I 0 W/m 7,9 C 4,8 C 19,3 km/h (3 Bft) 100,00 %
20.09.2017 03:12 8,8 C 13,3 C 95 % 1017,0 hPa 0,0 l/m 11,4 km/h (2 Bft) SW 229 0 min 0,000 mm 0,0 UV-I 0 W/m 8,0 C 5,5 C 17,7 km/h (3 Bft) 100,00 %
20.09.2017 03:14 8,8 C 13,3 C 95 % 1017,0 hPa 0,0 l/m 11,8 km/h (2 Bft) SW 227 0 min 0,000 mm 0,0 UV-I 0 W/m 8,0 C 5,2 C 16,1 km/h (3 Bft) 98,00 %
20.09.2017 03:16 8,8 C 13,3 C 94 % 1017,0 hPa 0,0 l/m 11,3 km/h (2 Bft) W 260 0 min 0,000 mm 0,0 UV-I 0 W/m 7,9 C 5,5 C 14,5 km/h (3 Bft) 100,00 %
20.09.2017 03:18 8,8 C 13,3 C 95 % 1017,0 hPa 0,0 l/m 14,8 km/h (3 Bft) W-SW 251 0 min 0,000 mm 0,0 UV-I 0 W/m 8,0 C 3,8 C 20,9 km/h (4 Bft) 100,00 %
20.09.2017 03:20 8,8 C 13,3 C 95 % 1017,0 hPa 0,0 l/m 10,8 km/h (2 Bft) SW 235 0 min 0,000 mm 0,0 UV-I 0 W/m 8,0 C 5,8 C 16,1 km/h (3 Bft) 100,00 %
20.09.2017 03:22 8,8 C 13,3 C 95 % 1017,0 hPa 0,0 l/m 11,9 km/h (2 Bft) SW 218 0 min 0,000 mm 0,0 UV-I 0 W/m 8,0 C 5,2 C 16,1 km/h (3 Bft) 100,00 %
20.09.2017 03:24 8,8 C 13,3 C 95 % 1017,0 hPa 0,0 l/m 12,1 km/h (2 Bft) W-SW 257 0 min 0,000 mm 0,0 UV-I 0 W/m 8,0 C 5,1 C 19,3 km/h (3 Bft) 98,00 %
20.09.2017 03:26 8,8 C 13,3 C 95 % 1017,0 hPa 0,0 l/m 11,4 km/h (2 Bft) SW 217 0 min 0,000 mm 0,0 UV-I 0 W/m 8,0 C 5,5 C 17,7 km/h (3 Bft) 97,87 %
20.09.2017 03:28 8,8 C 13,3 C 95 % 1016,9 hPa 0,0 l/m 12,7 km/h (3 Bft) SW 227 0 min 0,000 mm 0,0 UV-I 0 W/m 8,0 C 4,8 C 20,9 km/h (4 Bft) 97,14 %
20.09.2017 03:30 8,8 C 13,3 C 95 % 1017,0 hPa 0,0 l/m 16,0 km/h (3 Bft) W 269 0 min 0,000 mm 0,0 UV-I 0 W/m 8,0 C 3,3 C 22,5 km/h (4 Bft) 98,21 %
20.09.2017 03:32 8,8 C 13,3 C 95 % 1017,0 hPa 0,0 l/m 13,2 km/h (3 Bft) SW 232 0 min 0,000 mm 0,0 UV-I 0 W/m 8,0 C 4,5 C 20,9 km/h (4 Bft) 97,37 %
20.09.2017 03:34 8,8 C 13,3 C 95 % 1017,0 hPa 0,0 l/m 13,0 km/h (3 Bft) W-SW 244 0 min 0,000 mm 0,0 UV-I 0 W/m 8,0 C 4,6 C 17,7 km/h (3 Bft) 96,61 %
20.09.2017 03:36 8,8 C 13,3 C 95 % 1017,0 hPa 0,0 l/m 14,4 km/h (3 Bft) SW 227 0 min 0,000 mm 0,0 UV-I 0 W/m 8,0 C 4,0 C 20,9 km/h (4 Bft) 97,87 %
20.09.2017 03:38 8,8 C 13,3 C 95 % 1017,0 hPa 0,0 l/m 10,6 km/h (2 Bft) W-SW 238 0 min 0,000 mm 0,0 UV-I 0 W/m 8,0 C 5,9 C 19,3 km/h (3 Bft) 97,37 %
20.09.2017 03:40 8,8 C 13,3 C 95 % 1017,0 hPa 0,0 l/m 10,8 km/h (2 Bft) SW 217 0 min 0,000 mm 0,0 UV-I 0 W/m 8,0 C 5,8 C 16,1 km/h (3 Bft) 95,74 %
20.09.2017 03:42 8,8 C 13,3 C 95 % 1017,0 hPa 0,0 l/m 11,0 km/h (2 Bft) SW 231 0 min 0,000 mm 0,0 UV-I 0 W/m 8,0 C 5,7 C 16,1 km/h (3 Bft) 98,21 %
20.09.2017 03:44 8,8 C 13,3 C 95 % 1017,0 hPa 0,0 l/m 11,9 km/h (2 Bft) S-SW 210 0 min 0,000 mm 0,0 UV-I 0 W/m 8,0 C 5,2 C 17,7 km/h (3 Bft) 97,56 %
20.09.2017 03:46 8,8 C 13,3 C 95 % 1017,0 hPa 0,0 l/m 11,1 km/h (2 Bft) SW 231 0 min 0,000 mm 0,0 UV-I 0 W/m 8,0 C 5,6 C 17,7 km/h (3 Bft) 94,00 %
20.09.2017 03:48 8,8 C 13,3 C 95 % 1017,0 hPa 0,0 l/m 10,9 km/h (2 Bft) SW 229 0 min 0,000 mm 0,0 UV-I 0 W/m 8,0 C 5,7 C 17,7 km/h (3 Bft) 95,24 %
20.09.2017 03:50 8,8 C 13,3 C 95 % 1017,0 hPa 0,0 l/m 10,0 km/h (2 Bft) W-SW 246 0 min 0,000 mm 0,0 UV-I 0 W/m 8,0 C 6,3 C 12,9 km/h (3 Bft) 97,73 %
20.09.2017 03:52 8,8 C 13,3 C 95 % 1017,1 hPa 0,0 l/m 10,6 km/h (2 Bft) W-SW 238 0 min 0,000 mm 0,0 UV-I 0 W/m 8,0 C 5,9 C 19,3 km/h (3 Bft) 98,11 %
20.09.2017 03:54 8,7 C 13,3 C 95 % 1017,0 hPa 0,0 l/m 10,3 km/h (2 Bft) W-SW 254 0 min 0,000 mm 0,0 UV-I 0 W/m 7,9 C 6,0 C 14,5 km/h (3 Bft) 95,74 %
20.09.2017 03:56 8,8 C 13,3 C 95 % 1017,0 hPa 0,0 l/m 10,6 km/h (2 Bft) W-SW 240 0 min 0,000 mm 0,0 UV-I 0 W/m 8,0 C 5,9 C 14,5 km/h (3 Bft) 97,56 %
20.09.2017 03:58 8,7 C 13,3 C 95 % 1017,0 hPa 0,0 l/m 9,0 km/h (2 Bft) S-SW 211 0 min 0,000 mm 0,0 UV-I 0 W/m 7,9 C 6,8 C 14,5 km/h (3 Bft) 96,43 %
20.09.2017 04:00 8,7 C 13,3 C 95 % 1017,0 hPa 0,0 l/m 10,3 km/h (2 Bft) SW 236 0 min 0,000 mm 0,0 UV-I 0 W/m 7,9 C 6,0 C 14,5 km/h (3 Bft) 97,37 %
20.09.2017 04:02 8,7 C 13,3 C 95 % 1016,9 hPa 0,0 l/m 12,0 km/h (2 Bft) W-SW 239 0 min 0,000 mm 0,0 UV-I 0 W/m 7,9 C 5,0 C 20,9 km/h (4 Bft) 100,00 %
20.09.2017 04:04 8,7 C 13,3 C 95 % 1017,0 hPa 0,0 l/m 10,2 km/h (2 Bft) SW 220 0 min 0,000 mm 0,0 UV-I 0 W/m 7,9 C 6,0 C 14,5 km/h (3 Bft) 97,14 %
20.09.2017 04:06 8,7 C 13,3 C 95 % 1016,9 hPa 0,0 l/m 9,7 km/h (2 Bft) W-SW 243 0 min 0,000 mm 0,0 UV-I 0 W/m 7,9 C 6,3 C 19,3 km/h (3 Bft) 96,23 %
20.09.2017 04:08 8,7 C 13,3 C 95 % 1016,9 hPa 0,0 l/m 11,7 km/h (2 Bft) W 259 0 min 0,000 mm 0,0 UV-I 0 W/m 7,9 C 5,2 C 16,1 km/h (3 Bft) 94,00 %
20.09.2017 04:10 8,7 C 13,3 C 95 % 1017,0 hPa 0,0 l/m 11,0 km/h (2 Bft) SW 232 0 min 0,000 mm 0,0 UV-I 0 W/m 7,9 C 5,6 C 16,1 km/h (3 Bft) 94,00 %
20.09.2017 04:12 8,7 C 13,3 C 95 % 1017,0 hPa 0,0 l/m 10,4 km/h (2 Bft) SW 221 0 min 0,000 mm 0,0 UV-I 0 W/m 7,9 C 5,9 C 16,1 km/h (3 Bft) 97,37 %
20.09.2017 04:14 8,7 C 13,3 C 95 % 1017,0 hPa 0,0 l/m 9,7 km/h (2 Bft) W-SW 246 0 min 0,000 mm 0,0 UV-I 0 W/m 7,9 C 6,3 C 14,5 km/h (3 Bft) 98,00 %
20.09.2017 04:16 8,7 C 13,3 C 95 % 1017,0 hPa 0,0 l/m 10,6 km/h (2 Bft) SW 232 0 min 0,000 mm 0,0 UV-I 0 W/m 7,9 C 5,8 C 16,1 km/h (3 Bft) 94,34 %
20.09.2017 04:18 8,7 C 13,3 C 95 % 1017,0 hPa 0,0 l/m 10,8 km/h (2 Bft) W-SW 248 0 min 0,000 mm 0,0 UV-I 0 W/m 7,9 C 5,7 C 14,5 km/h (3 Bft) 97,56 %
20.09.2017 04:20 8,7 C 13,3 C 95 % 1017,0 hPa 0,0 l/m 9,7 km/h (2 Bft) W-SW 249 0 min 0,000 mm 0,0 UV-I 0 W/m 7,9 C 6,3 C 16,1 km/h (3 Bft) 100,00 %
20.09.2017 04:22 8,7 C 13,3 C 95 % 1017,0 hPa 0,0 l/m 9,2 km/h (2 Bft) W-SW 251 0 min 0,000 mm 0,0 UV-I 0 W/m 7,9 C 6,7 C 14,5 km/h (3 Bft) 97,56 %
20.09.2017 04:24 8,7 C 13,3 C 95 % 1017,0 hPa 0,0 l/m 12,3 km/h (3 Bft) SW 231 0 min 0,000 mm 0,0 UV-I 0 W/m 7,9 C 4,9 C 16,1 km/h (3 Bft) 98,00 %
20.09.2017 04:26 8,7 C 13,3 C 95 % 1017,1 hPa 0,0 l/m 11,6 km/h (2 Bft) W-SW 238 0 min 0,000 mm 0,0 UV-I 0 W/m 7,9 C 5,2 C 17,7 km/h (3 Bft) 97,78 %
20.09.2017 04:28 8,7 C 13,3 C 95 % 1017,1 hPa 0,0 l/m 9,2 km/h (2 Bft) W-SW 246 0 min 0,000 mm 0,0 UV-I 0 W/m 7,9 C 6,7 C 14,5 km/h (3 Bft) 98,00 %
20.09.2017 04:30 8,7 C 13,3 C 95 % 1017,0 hPa 0,0 l/m 10,2 km/h (2 Bft) W-SW 246 0 min 0,000 mm 0,0 UV-I 0 W/m 7,9 C 6,0 C 14,5 km/h (3 Bft) 97,37 %
20.09.2017 04:32 8,7 C 13,3 C 95 % 1017,0 hPa 0,0 l/m 9,4 km/h (2 Bft) W-SW 257 0 min 0,000 mm 0,0 UV-I 0 W/m 7,9 C 6,5 C 14,5 km/h (3 Bft) 100,00 %
20.09.2017 04:34 8,7 C 13,3 C 95 % 1017,0 hPa 0,0 l/m 12,8 km/h (3 Bft) W-SW 252 0 min 0,000 mm 0,0 UV-I 0 W/m 7,9 C 4,6 C 19,3 km/h (3 Bft) 100,00 %
20.09.2017 04:36 8,8 C 13,3 C 95 % 1017,1 hPa 0,0 l/m 9,8 km/h (2 Bft) SW 215 0 min 0,000 mm 0,0 UV-I 0 W/m 8,0 C 6,4 C 14,5 km/h (3 Bft) 98,11 %
20.09.2017 04:38 8,8 C 13,3 C 95 % 1017,0 hPa 0,0 l/m 9,2 km/h (2 Bft) W-SW 247 0 min 0,000 mm 0,0 UV-I 0 W/m 8,0 C 6,8 C 12,9 km/h (3 Bft) 97,87 %
20.09.2017 04:40 8,8 C 13,3 C 95 % 1017,0 hPa 0,0 l/m 9,1 km/h (2 Bft) W-SW 254 0 min 0,000 mm 0,0 UV-I 0 W/m 8,0 C 6,8 C 14,5 km/h (3 Bft) 100,00 %
20.09.2017 04:42 8,8 C 13,3 C 95 % 1017,1 hPa 0,0 l/m 9,7 km/h (2 Bft) SW 235 0 min 0,000 mm 0,0 UV-I 0 W/m 8,0 C 6,5 C 16,1 km/h (3 Bft) 96,23 %
20.09.2017 04:44 8,8 C 13,3 C 95 % 1017,1 hPa 0,0 l/m 10,8 km/h (2 Bft) W-SW 243 0 min 0,000 mm 0,0 UV-I 0 W/m 8,0 C 5,8 C 14,5 km/h (3 Bft) 92,68 %
20.09.2017 04:46 8,8 C 13,3 C 95 % 1017,1 hPa 0,0 l/m 12,7 km/h (3 Bft) W 261 0 min 0,000 mm 0,0 UV-I 0 W/m 8,0 C 4,8 C 17,7 km/h (3 Bft) 96,00 %
20.09.2017 04:48 8,8 C 13,3 C 95 % 1017,2 hPa 0,0 l/m 10,6 km/h (2 Bft) W-SW 249 0 min 0,000 mm 0,0 UV-I 0 W/m 8,0 C 5,9 C 16,1 km/h (3 Bft) 96,23 %
20.09.2017 04:50 8,8 C 13,3 C 95 % 1017,1 hPa 0,0 l/m 10,8 km/h (2 Bft) W 260 0 min 0,000 mm 0,0 UV-I 0 W/m 8,0 C 5,8 C 16,1 km/h (3 Bft) 94,74 %
20.09.2017 04:52 8,8 C 13,3 C 95 % 1017,2 hPa 0,0 l/m 13,0 km/h (3 Bft) SW 235 0 min 0,000 mm 0,0 UV-I 0 W/m 8,0 C 4,6 C 22,5 km/h (4 Bft) 98,00 %
20.09.2017 04:54 8,8 C 13,3 C 95 % 1017,2 hPa 0,0 l/m 9,8 km/h (2 Bft) W-SW 246 0 min 0,000 mm 0,0 UV-I 0 W/m 8,0 C 6,4 C 16,1 km/h (3 Bft) 96,00 %
20.09.2017 04:56 8,8 C 13,3 C 95 % 1017,2 hPa 0,0 l/m 10,8 km/h (2 Bft) W-SW 245 0 min 0,000 mm 0,0 UV-I 0 W/m 8,0 C 5,8 C 16,1 km/h (3 Bft) 97,56 %
20.09.2017 04:58 8,8 C 13,3 C 95 % 1017,2 hPa 0,0 l/m 9,5 km/h (2 Bft) SW 234 0 min 0,000 mm 0,0 UV-I 0 W/m 8,0 C 6,6 C 12,9 km/h (3 Bft) 98,21 %
20.09.2017 05:00 8,8 C 13,3 C 95 % 1017,2 hPa 0,0 l/m 8,1 km/h (2 Bft) W-SW 248 0 min 0,000 mm 0,0 UV-I 0 W/m 8,0 C 7,5 C 12,9 km/h (3 Bft) 94,74 %
20.09.2017 05:02 8,9 C 13,3 C 95 % 1017,3 hPa 0,0 l/m 12,6 km/h (3 Bft) SW 225 0 min 0,000 mm 0,0 UV-I 0 W/m 8,1 C 4,9 C 19,3 km/h (3 Bft) 97,92 %
20.09.2017 05:04 8,9 C 13,3 C 95 % 1017,3 hPa 0,0 l/m 12,4 km/h (3 Bft) W 260 0 min 0,000 mm 0,0 UV-I 0 W/m 8,1 C 5,0 C 17,7 km/h (3 Bft) 96,15 %
20.09.2017 05:06 8,9 C 13,3 C 95 % 1017,3 hPa 0,0 l/m 12,1 km/h (2 Bft) W-SW 251 0 min 0,000 mm 0,0 UV-I 0 W/m 8,1 C 5,2 C 17,7 km/h (3 Bft) 97,44 %
20.09.2017 05:08 8,9 C 13,3 C 95 % 1017,3 hPa 0,0 l/m 12,6 km/h (3 Bft) W-SW 252 0 min 0,000 mm 0,0 UV-I 0 W/m 8,1 C 4,9 C 19,3 km/h (3 Bft) 95,74 %
20.09.2017 05:10 8,9 C 13,3 C 95 % 1017,3 hPa 0,0 l/m 13,6 km/h (3 Bft) W-SW 252 0 min 0,000 mm 0,0 UV-I 0 W/m 8,1 C 4,4 C 20,9 km/h (4 Bft) 98,21 %
20.09.2017 05:12 8,9 C 13,3 C 95 % 1017,3 hPa 0,0 l/m 12,7 km/h (3 Bft) W-SW 244 0 min 0,000 mm 0,0 UV-I 0 W/m 8,1 C 4,9 C 17,7 km/h (3 Bft) 95,12 %
20.09.2017 05:14 8,9 C 13,3 C 95 % 1017,3 hPa 0,0 l/m 9,8 km/h (2 Bft) W-SW 255 0 min 0,000 mm 0,0 UV-I 0 W/m 8,1 C 6,5 C 14,5 km/h (3 Bft) 98,11 %
20.09.2017 05:16 8,9 C 13,3 C 95 % 1017,3 hPa 0,0 l/m 12,2 km/h (2 Bft) SW 234 0 min 0,000 mm 0,0 UV-I 0 W/m 8,1 C 5,1 C 17,7 km/h (3 Bft) 100,00 %
20.09.2017 05:18 8,9 C 13,3 C 95 % 1017,4 hPa 0,0 l/m 11,6 km/h (2 Bft) SW 234 0 min 0,000 mm 0,0 UV-I 0 W/m 8,1 C 5,5 C 19,3 km/h (3 Bft) 100,00 %
20.09.2017 05:20 8,9 C 13,3 C 95 % 1017,4 hPa 0,0 l/m 9,8 km/h (2 Bft) W-SW 252 0 min 0,000 mm 0,0 UV-I 0 W/m 8,1 C 6,5 C 14,5 km/h (3 Bft) 100,00 %
20.09.2017 05:22 8,9 C 13,3 C 95 % 1017,4 hPa 0,0 l/m 9,3 km/h (2 Bft) S-SW 194 0 min 0,000 mm 0,0 UV-I 0 W/m 8,1 C 6,8 C 19,3 km/h (3 Bft) 100,00 %
20.09.2017 05:24 9,0 C 13,3 C 95 % 1017,4 hPa 0,0 l/m 9,7 km/h (2 Bft) S-SW 209 0 min 0,000 mm 0,0 UV-I 0 W/m 8,2 C 6,7 C 12,9 km/h (3 Bft) 100,00 %
20.09.2017 05:26 9,0 C 13,3 C 95 % 1017,4 hPa 0,0 l/m 9,2 km/h (2 Bft) SW 215 0 min 0,000 mm 0,0 UV-I 0 W/m 8,2 C 7,0 C 14,5 km/h (3 Bft) 100,00 %
20.09.2017 05:28 9,0 C 13,3 C 95 % 1017,5 hPa 0,0 l/m 9,7 km/h (2 Bft) W 259 0 min 0,000 mm 0,0 UV-I 0 W/m 8,2 C 6,7 C 19,3 km/h (3 Bft) 98,18 %
20.09.2017 05:30 9,0 C 13,3 C 95 % 1017,4 hPa 0,0 l/m 10,5 km/h (2 Bft) W 259 0 min 0,000 mm 0,0 UV-I 0 W/m 8,2 C 6,2 C 16,1 km/h (3 Bft) 100,00 %
20.09.2017 05:32 9,0 C 13,3 C 95 % 1017,5 hPa 0,0 l/m 9,7 km/h (2 Bft) SW 227 0 min 0,000 mm 0,0 UV-I 0 W/m 8,2 C 6,7 C 16,1 km/h (3 Bft) 98,11 %
20.09.2017 05:34 9,0 C 13,3 C 95 % 1017,5 hPa 0,0 l/m 9,8 km/h (2 Bft) W 261 0 min 0,000 mm 0,0 UV-I 0 W/m 8,2 C 6,6 C 14,5 km/h (3 Bft) 100,00 %
20.09.2017 05:36 9,0 C 13,3 C 95 % 1017,5 hPa 0,0 l/m 11,9 km/h (2 Bft) SW 234 0 min 0,000 mm 0,0 UV-I 0 W/m 8,2 C 5,4 C 16,1 km/h (3 Bft) 100,00 %
20.09.2017 05:38 9,0 C 13,3 C 95 % 1017,5 hPa 0,0 l/m 10,7 km/h (2 Bft) W-SW 243 0 min 0,000 mm 0,0 UV-I 0 W/m 8,2 C 6,1 C 14,5 km/h (3 Bft) 100,00 %
20.09.2017 05:40 9,1 C 13,3 C 95 % 1017,5 hPa 0,0 l/m 9,1 km/h (2 Bft) SW 231 0 min 0,000 mm 0,0 UV-I 0 W/m 8,3 C 7,2 C 12,9 km/h (3 Bft) 100,00 %
20.09.2017 05:42 9,0 C 13,3 C 95 % 1017,5 hPa 0,0 l/m 8,2 km/h (2 Bft) W-SW 253 0 min 0,000 mm 0,0 UV-I 0 W/m 8,2 C 7,7 C 14,5 km/h (3 Bft) 100,00 %
20.09.2017 05:44 9,0 C 13,3 C 95 % 1017,5 hPa 0,0 l/m 8,2 km/h (2 Bft) W-SW 252 0 min 0,000 mm 0,0 UV-I 0 W/m 8,2 C 7,7 C 16,1 km/h (3 Bft) 100,00 %
20.09.2017 05:46 9,1 C 13,3 C 95 % 1017,4 hPa 0,0 l/m 11,7 km/h (2 Bft) W-SW 248 0 min 0,000 mm 0,0 UV-I 0 W/m 8,3 C 5,6 C 16,1 km/h (3 Bft) 100,00 %
20.09.2017 05:48 9,1 C 13,3 C 95 % 1017,5 hPa 0,0 l/m 9,3 km/h (2 Bft) W-SW 242 0 min 0,000 mm 0,0 UV-I 0 W/m 8,3 C 7,0 C 16,1 km/h (3 Bft) 100,00 %
20.09.2017 05:50 9,1 C 13,3 C 95 % 1017,5 hPa 0,0 l/m 8,8 km/h (2 Bft) W-SW 245 0 min 0,000 mm 0,0 UV-I 0 W/m 8,3 C 7,4 C 14,5 km/h (3 Bft) 100,00 %
20.09.2017 05:52 9,1 C 13,3 C 95 % 1017,5 hPa 0,0 l/m 6,9 km/h (2 Bft) W-SW 238 0 min 0,000 mm 0,0 UV-I 0 W/m 8,3 C 8,7 C 11,3 km/h (2 Bft) 93,62 %
20.09.2017 05:54 9,1 C 13,3 C 95 % 1017,5 hPa 0,0 l/m 10,3 km/h (2 Bft) W 277 0 min 0,000 mm 0,0 UV-I 0 W/m 8,3 C 6,4 C 16,1 km/h (3 Bft) 100,00 %
20.09.2017 05:56 9,1 C 13,3 C 95 % 1017,5 hPa 0,0 l/m 7,0 km/h (2 Bft) SW 231 0 min 0,000 mm 0,0 UV-I 0 W/m 8,3 C 8,7 C 12,9 km/h (3 Bft) 100,00 %
20.09.2017 05:58 9,1 C 13,3 C 95 % 1017,5 hPa 0,0 l/m 6,8 km/h (2 Bft) W-SW 250 0 min 0,000 mm 0,0 UV-I 0 W/m 8,3 C 8,8 C 12,9 km/h (3 Bft) 100,00 %
20.09.2017 06:00 9,1 C 13,3 C 95 % 1017,6 hPa 0,0 l/m 11,1 km/h (2 Bft) SW 236 0 min 0,000 mm 0,0 UV-I 0 W/m 8,3 C 6,0 C 16,1 km/h (3 Bft) 100,00 %
20.09.2017 06:02 9,1 C 13,3 C 95 % 1017,6 hPa 0,0 l/m 9,5 km/h (2 Bft) W-SW 250 0 min 0,000 mm 0,0 UV-I 0 W/m 8,3 C 6,9 C 17,7 km/h (3 Bft) 100,00 %
20.09.2017 06:04 9,1 C 13,3 C 95 % 1017,5 hPa 0,0 l/m 9,7 km/h (2 Bft) W-SW 240 0 min 0,000 mm 0,0 UV-I 0 W/m 8,3 C 6,8 C 16,1 km/h (3 Bft) 100,00 %
20.09.2017 06:06 9,1 C 13,3 C 95 % 1017,6 hPa 0,0 l/m 8,5 km/h (2 Bft) W-SW 253 0 min 0,000 mm 0,0 UV-I 0 W/m 8,3 C 7,6 C 14,5 km/h (3 Bft) 100,00 %
20.09.2017 06:08 9,1 C 13,3 C 95 % 1017,7 hPa 0,0 l/m 9,4 km/h (2 Bft) W 259 0 min 0,000 mm 0,0 UV-I 0 W/m 8,3 C 7,0 C 14,5 km/h (3 Bft) 100,00 %
20.09.2017 06:10 9,1 C 13,3 C 95 % 1017,7 hPa 0,0 l/m 12,0 km/h (2 Bft) SW 223 0 min 0,000 mm 0,0 UV-I 0 W/m 8,3 C 5,5 C 17,7 km/h (3 Bft) 100,00 %
20.09.2017 06:12 9,1 C 13,3 C 95 % 1017,7 hPa 0,0 l/m 10,6 km/h (2 Bft) W-SW 251 0 min 0,000 mm 0,0 UV-I 0 W/m 8,3 C 6,2 C 16,1 km/h (3 Bft) 100,00 %
20.09.2017 06:14 9,1 C 13,3 C 95 % 1017,7 hPa 0,0 l/m 8,9 km/h (2 Bft) W 276 0 min 0,000 mm 0,0 UV-I 0 W/m 8,3 C 7,3 C 12,9 km/h (3 Bft) 100,00 %
20.09.2017 06:16 9,1 C 13,3 C 95 % 1017,7 hPa 0,0 l/m 9,8 km/h (2 Bft) W-SW 251 0 min 0,000 mm 0,0 UV-I 0 W/m 8,3 C 6,7 C 14,5 km/h (3 Bft) 98,00 %
20.09.2017 06:18 9,1 C 13,3 C 95 % 1017,7 hPa 0,0 l/m 8,2 km/h (2 Bft) W-SW 253 0 min 0,000 mm 0,0 UV-I 0 W/m 8,3 C 7,8 C 16,1 km/h (3 Bft) 98,11 %
20.09.2017 06:20 9,1 C 13,3 C 95 % 1017,7 hPa 0,0 l/m 7,4 km/h (2 Bft) SW 229 0 min 0,000 mm 0,0 UV-I 0 W/m 8,3 C 8,3 C 12,9 km/h (3 Bft) 100,00 %
20.09.2017 06:22 9,1 C 13,3 C 95 % 1017,8 hPa 0,0 l/m 7,2 km/h (2 Bft) W-SW 239 0 min 0,000 mm 0,0 UV-I 0 W/m 8,3 C 8,5 C 11,3 km/h (2 Bft) 100,00 %
20.09.2017 06:24 9,1 C 13,3 C 95 % 1017,8 hPa 0,0 l/m 8,9 km/h (2 Bft) W 260 0 min 0,000 mm 0,0 UV-I 0 W/m 8,3 C 7,3 C 12,9 km/h (3 Bft) 100,00 %
20.09.2017 06:26 9,1 C 13,3 C 95 % 1017,8 hPa 0,0 l/m 11,1 km/h (2 Bft) W-SW 258 0 min 0,000 mm 0,0 UV-I 0 W/m 8,3 C 6,0 C 14,5 km/h (3 Bft) 100,00 %
20.09.2017 06:28 9,1 C 13,3 C 95 % 1017,8 hPa 0,0 l/m 13,1 km/h (3 Bft) W-SW 239 0 min 0,000 mm 0,0 UV-I 0 W/m 8,3 C 4,9 C 19,3 km/h (3 Bft) 96,00 %
20.09.2017 06:30 9,1 C 13,3 C 95 % 1017,8 hPa 0,0 l/m 9,0 km/h (2 Bft) W-SW 245 0 min 0,000 mm 0,0 UV-I 0 W/m 8,3 C 7,2 C 14,5 km/h (3 Bft) 100,00 %
20.09.2017 06:32 9,1 C 13,3 C 95 % 1017,8 hPa 0,0 l/m 10,6 km/h (2 Bft) W-SW 250 0 min 0,000 mm 0,0 UV-I 0 W/m 8,3 C 6,2 C 16,1 km/h (3 Bft) 100,00 %
20.09.2017 06:34 9,1 C 13,3 C 95 % 1017,9 hPa 0,0 l/m 10,8 km/h (2 Bft) W-SW 248 0 min 0,000 mm 0,0 UV-I 0 W/m 8,3 C 6,1 C 14,5 km/h (3 Bft) 100,00 %
20.09.2017 06:36 9,1 C 13,3 C 95 % 1017,8 hPa 0,0 l/m 9,5 km/h (2 Bft) SW 223 0 min 0,000 mm 0,0 UV-I 0 W/m 8,3 C 6,9 C 14,5 km/h (3 Bft) 98,11 %
20.09.2017 06:38 9,1 C 13,3 C 95 % 1017,9 hPa 0,0 l/m 10,4 km/h (2 Bft) W-SW 258 0 min 0,000 mm 0,0 UV-I 0 W/m 8,3 C 6,4 C 14,5 km/h (3 Bft) 100,00 %
20.09.2017 06:40 9,1 C 13,3 C 95 % 1017,8 hPa 0,0 l/m 10,4 km/h (2 Bft) SW 219 0 min 0,000 mm 0,0 UV-I 0 W/m 8,3 C 6,4 C 16,1 km/h (3 Bft) 100,00 %
20.09.2017 06:42 9,1 C 13,3 C 95 % 1017,9 hPa 0,0 l/m 10,0 km/h (2 Bft) W-SW 244 0 min 0,000 mm 0,0 UV-I 0 W/m 8,3 C 6,6 C 14,5 km/h (3 Bft) 100,00 %
20.09.2017 06:44 9,1 C 13,3 C 95 % 1018,0 hPa 0,0 l/m 7,3 km/h (2 Bft) W-SW 246 0 min 0,000 mm 0,0 UV-I 2 W/m 8,3 C 8,4 C 11,3 km/h (2 Bft) 98,53 %
20.09.2017 06:46 9,1 C 13,3 C 95 % 1017,9 hPa 0,0 l/m 8,5 km/h (2 Bft) W-SW 248 0 min 0,000 mm 0,0 UV-I 5 W/m 8,3 C 7,6 C 14,5 km/h (3 Bft) 93,62 %
20.09.2017 06:48 9,2 C 13,3 C 95 % 1018,0 hPa 0,0 l/m 10,6 km/h (2 Bft) SW 225 0 min 0,000 mm 0,0 UV-I 5 W/m 8,4 C 6,4 C 19,3 km/h (3 Bft) 98,00 %
20.09.2017 06:50 9,2 C 13,3 C 95 % 1017,9 hPa 0,0 l/m 10,8 km/h (2 Bft) S-SW 205 0 min 0,000 mm 0,0 UV-I 5 W/m 8,4 C 6,2 C 16,1 km/h (3 Bft) 97,87 %
20.09.2017 06:52 9,2 C 13,3 C 95 % 1018,0 hPa 0,0 l/m 9,1 km/h (2 Bft) W-SW 241 0 min 0,000 mm 0,0 UV-I 5 W/m 8,4 C 7,3 C 12,9 km/h (3 Bft) 97,56 %
20.09.2017 06:54 9,2 C 13,3 C 95 % 1018,0 hPa 0,0 l/m 10,3 km/h (2 Bft) W-SW 248 0 min 0,000 mm 0,0 UV-I 5 W/m 8,4 C 6,5 C 16,1 km/h (3 Bft) 96,23 %
20.09.2017 06:56 9,2 C 13,3 C 95 % 1018,0 hPa 0,0 l/m 9,6 km/h (2 Bft) SW 220 0 min 0,000 mm 0,0 UV-I 6 W/m 8,4 C 7,0 C 16,1 km/h (3 Bft) 97,37 %
20.09.2017 06:58 9,2 C 13,3 C 95 % 1018,0 hPa 0,0 l/m 9,3 km/h (2 Bft) SW 232 0 min 0,000 mm 0,0 UV-I 7 W/m 8,4 C 7,1 C 16,1 km/h (3 Bft) 96,00 %
20.09.2017 07:00 9,2 C 13,3 C 95 % 1018,0 hPa 0,0 l/m 11,8 km/h (2 Bft) W-SW 244 0 min 0,000 mm 0,0 UV-I 7 W/m 8,4 C 5,7 C 17,7 km/h (3 Bft) 95,24 %
20.09.2017 07:02 9,1 C 13,3 C 95 % 1018,0 hPa 0,0 l/m 10,4 km/h (2 Bft) W-SW 244 0 min 0,000 mm 0,0 UV-I 9 W/m 8,3 C 6,4 C 16,1 km/h (3 Bft) 97,96 %
20.09.2017 07:04 9,2 C 13,3 C 95 % 1018,0 hPa 0,0 l/m 9,8 km/h (2 Bft) W-SW 241 0 min 0,000 mm 0,0 UV-I 9 W/m 8,4 C 6,8 C 14,5 km/h (3 Bft) 96,23 %
20.09.2017 07:06 9,2 C 13,3 C 95 % 1018,1 hPa 0,0 l/m 9,7 km/h (2 Bft) SW 231 0 min 0,000 mm 0,0 UV-I 9 W/m 8,4 C 6,9 C 14,5 km/h (3 Bft) 94,87 %
20.09.2017 07:08 9,2 C 13,3 C 95 % 1018,1 hPa 0,0 l/m 10,6 km/h (2 Bft) W-SW 245 0 min 0,000 mm 0,0 UV-I 11 W/m 8,4 C 6,4 C 16,1 km/h (3 Bft) 97,73 %
20.09.2017 07:10 9,2 C 13,3 C 95 % 1018,0 hPa 0,0 l/m 7,5 km/h (2 Bft) W 259 0 min 0,000 mm 0,0 UV-I 11 W/m 8,4 C 8,4 C 9,7 km/h (2 Bft) 96,61 %
20.09.2017 07:12 9,2 C 13,3 C 95 % 1018,0 hPa 0,0 l/m 9,0 km/h (2 Bft) SW 231 0 min 0,000 mm 0,0 UV-I 12 W/m 8,4 C 7,3 C 12,9 km/h (3 Bft) 97,56 %
20.09.2017 07:14 9,2 C 13,3 C 95 % 1018,0 hPa 0,0 l/m 10,1 km/h (2 Bft) W-SW 239 0 min 0,000 mm 0,0 UV-I 12 W/m 8,4 C 6,7 C 14,5 km/h (3 Bft) 97,73 %
20.09.2017 07:16 9,2 C 13,3 C 95 % 1018,0 hPa 0,0 l/m 7,4 km/h (2 Bft) SW 223 0 min 0,000 mm 0,0 UV-I 13 W/m 8,4 C 8,4 C 14,5 km/h (3 Bft) 96,00 %
20.09.2017 07:18 9,2 C 13,3 C 95 % 1018,0 hPa 0,0 l/m 7,6 km/h (2 Bft) W-SW 252 0 min 0,000 mm 0,0 UV-I 14 W/m 8,4 C 8,3 C 12,9 km/h (3 Bft) 92,00 %
20.09.2017 07:20 9,2 C 13,3 C 95 % 1018,1 hPa 0,0 l/m 7,9 km/h (2 Bft) SW 221 0 min 0,000 mm 0,0 UV-I 16 W/m 8,4 C 8,1 C 14,5 km/h (3 Bft) 95,45 %
20.09.2017 07:22 9,2 C 13,3 C 94 % 1018,1 hPa 0,0 l/m 8,3 km/h (2 Bft) SW 235 0 min 0,000 mm 0,0 UV-I 16 W/m 8,3 C 7,8 C 11,3 km/h (2 Bft) 98,11 %
20.09.2017 07:24 9,2 C 13,3 C 95 % 1018,1 hPa 0,0 l/m 9,7 km/h (2 Bft) W 277 0 min 0,000 mm 0,0 UV-I 18 W/m 8,4 C 6,9 C 14,5 km/h (3 Bft) 97,37 %
20.09.2017 07:26 9,2 C 13,3 C 95 % 1018,1 hPa 0,0 l/m 7,1 km/h (2 Bft) SW 225 0 min 0,000 mm 0,0 UV-I 18 W/m 8,4 C 8,7 C 11,3 km/h (2 Bft) 98,00 %
20.09.2017 07:28 9,2 C 13,3 C 94 % 1018,1 hPa 0,0 l/m 7,2 km/h (2 Bft) W-SW 254 0 min 0,000 mm 0,0 UV-I 19 W/m 8,3 C 8,6 C 12,9 km/h (3 Bft) 98,00 %
20.09.2017 07:30 9,2 C 13,3 C 95 % 1018,1 hPa 0,0 l/m 8,1 km/h (2 Bft) W-SW 248 0 min 0,000 mm 0,0 UV-I 23 W/m 8,4 C 7,9 C 12,9 km/h (3 Bft) 95,12 %
20.09.2017 07:32 9,2 C 13,3 C 95 % 1018,2 hPa 0,0 l/m 9,2 km/h (2 Bft) W-SW 238 0 min 0,000 mm 0,0 UV-I 25 W/m 8,4 C 7,2 C 14,5 km/h (3 Bft) 97,56 %
20.09.2017 07:34 9,2 C 13,3 C 95 % 1018,2 hPa 0,0 l/m 9,1 km/h (2 Bft) W-SW 248 0 min 0,000 mm 0,0 UV-I 26 W/m 8,4 C 7,3 C 16,1 km/h (3 Bft) 98,00 %
20.09.2017 07:36 9,2 C 13,3 C 95 % 1018,2 hPa 0,0 l/m 8,5 km/h (2 Bft) S-SW 213 0 min 0,000 mm 0,0 UV-I 29 W/m 8,4 C 7,7 C 12,9 km/h (3 Bft) 98,11 %
20.09.2017 07:38 9,3 C 13,3 C 95 % 1018,2 hPa 0,0 l/m 8,0 km/h (2 Bft) W 266 0 min 0,000 mm 0,0 UV-I 31 W/m 8,5 C 8,1 C 12,9 km/h (3 Bft) 94,87 %
20.09.2017 07:40 9,3 C 13,3 C 95 % 1018,2 hPa 0,0 l/m 7,9 km/h (2 Bft) W-SW 238 0 min 0,000 mm 0,0 UV-I 32 W/m 8,5 C 8,2 C 14,5 km/h (3 Bft) 96,55 %
20.09.2017 07:42 9,3 C 13,3 C 95 % 1018,3 hPa 0,0 l/m 8,3 km/h (2 Bft) SW 220 0 min 0,000 mm 0,0 UV-I 32 W/m 8,5 C 7,9 C 14,5 km/h (3 Bft) 100,00 %
20.09.2017 07:44 9,3 C 13,3 C 95 % 1018,3 hPa 0,0 l/m 9,0 km/h (2 Bft) W-SW 243 0 min 0,000 mm 0,0 UV-I 34 W/m 8,5 C 7,4 C 11,3 km/h (2 Bft) 96,00 %
20.09.2017 07:46 9,3 C 13,3 C 95 % 1018,3 hPa 0,0 l/m 6,6 km/h (2 Bft) SW 227 0 min 0,000 mm 0,0 UV-I 33 W/m 8,5 C 9,2 C 12,9 km/h (3 Bft) 97,62 %
20.09.2017 07:48 9,3 C 13,3 C 95 % 1018,3 hPa 0,0 l/m 6,4 km/h (2 Bft) W 259 0 min 0,000 mm 0,0 UV-I 34 W/m 8,5 C 9,3 C 11,3 km/h (2 Bft) 98,11 %
20.09.2017 07:50 9,3 C 13,3 C 95 % 1018,4 hPa 0,0 l/m 6,9 km/h (2 Bft) W-SW 242 0 min 0,000 mm 0,0 UV-I 32 W/m 8,5 C 8,9 C 9,7 km/h (2 Bft) 97,56 %
20.09.2017 07:52 9,3 C 13,3 C 95 % 1018,3 hPa 0,0 l/m 7,8 km/h (2 Bft) SW 227 0 min 0,000 mm 0,0 UV-I 33 W/m 8,5 C 8,3 C 12,9 km/h (3 Bft) 97,87 %
20.09.2017 07:54 9,3 C 13,3 C 95 % 1018,3 hPa 0,0 l/m 7,5 km/h (2 Bft) S-SW 200 0 min 0,000 mm 0,0 UV-I 35 W/m 8,5 C 8,5 C 11,3 km/h (2 Bft) 98,00 %
20.09.2017 07:56 9,3 C 13,3 C 95 % 1018,3 hPa 0,0 l/m 6,3 km/h (2 Bft) SW 235 0 min 0,000 mm 0,0 UV-I 35 W/m 8,5 C 9,3 C 9,7 km/h (2 Bft) 95,12 %
20.09.2017 07:58 9,4 C 13,3 C 95 % 1018,3 hPa 0,0 l/m 7,2 km/h (2 Bft) W-SW 253 0 min 0,000 mm 0,0 UV-I 35 W/m 8,6 C 8,8 C 12,9 km/h (3 Bft) 98,11 %
20.09.2017 08:00 9,4 C 13,3 C 95 % 1018,3 hPa 0,0 l/m 6,1 km/h (2 Bft) W-SW 247 0 min 0,000 mm 0,0 UV-I 37 W/m 8,6 C 9,4 C 9,7 km/h (2 Bft) 97,87 %
20.09.2017 08:02 9,4 C 13,3 C 94 % 1018,3 hPa 0,0 l/m 8,1 km/h (2 Bft) W-SW 238 0 min 0,025 mm 0,0 UV-I 38 W/m 8,5 C 8,2 C 12,9 km/h (3 Bft) 97,73 %
20.09.2017 08:04 9,4 C 13,3 C 94 % 1018,3 hPa 0,0 l/m 6,1 km/h (2 Bft) SW 232 0 min 0,000 mm 0,0 UV-I 42 W/m 8,5 C 9,4 C 12,9 km/h (3 Bft) 94,00 %
20.09.2017 08:06 9,4 C 13,3 C 94 % 1018,3 hPa 0,0 l/m 12,8 km/h (3 Bft) W 266 0 min 0,000 mm 0,0 UV-I 47 W/m 8,5 C 5,4 C 22,5 km/h (4 Bft) 97,37 %
20.09.2017 08:08 9,4 C 13,3 C 94 % 1018,3 hPa 0,0 l/m 8,6 km/h (2 Bft) W-SW 242 0 min 0,000 mm 0,0 UV-I 46 W/m 8,5 C 7,8 C 12,9 km/h (3 Bft) 96,61 %
20.09.2017 08:10 9,5 C 13,3 C 94 % 1018,3 hPa 0,0 l/m 11,8 km/h (2 Bft) W-SW 248 0 min 0,000 mm 0,0 UV-I 45 W/m 8,6 C 6,0 C 22,5 km/h (4 Bft) 100,00 %
20.09.2017 08:12 9,6 C 13,3 C 94 % 1018,4 hPa 0,0 l/m 7,1 km/h (2 Bft) W 277 0 min 0,000 mm 0,0 UV-I 45 W/m 8,7 C 9,1 C 11,3 km/h (2 Bft) 96,23 %
20.09.2017 08:14 9,6 C 13,3 C 94 % 1018,4 hPa 0,0 l/m 7,1 km/h (2 Bft) W 261 0 min 0,000 mm 0,0 UV-I 46 W/m 8,7 C 9,1 C 11,3 km/h (2 Bft) 98,11 %
20.09.2017 08:16 9,6 C 13,3 C 94 % 1018,4 hPa 0,0 l/m 8,1 km/h (2 Bft) W-NW 284 0 min 0,000 mm 0,0 UV-I 48 W/m 8,7 C 8,4 C 12,9 km/h (3 Bft) 97,87 %
20.09.2017 08:18 9,6 C 13,3 C 94 % 1018,4 hPa 0,0 l/m 7,8 km/h (2 Bft) W 261 0 min 0,000 mm 0,0 UV-I 50 W/m 8,7 C 8,6 C 14,5 km/h (3 Bft) 97,87 %
20.09.2017 08:20 9,6 C 13,3 C 94 % 1018,5 hPa 0,0 l/m 6,4 km/h (2 Bft) SW 231 0 min 0,000 mm 0,0 UV-I 50 W/m 8,7 C 9,6 C 11,3 km/h (2 Bft) 100,00 %
20.09.2017 08:22 9,7 C 13,3 C 93 % 1018,5 hPa 0,0 l/m 8,7 km/h (2 Bft) W-SW 238 0 min 0,000 mm 0,0 UV-I 50 W/m 8,6 C 8,1 C 17,7 km/h (3 Bft) 100,00 %
20.09.2017 08:24 9,7 C 13,3 C 93 % 1018,6 hPa 0,0 l/m 13,1 km/h (3 Bft) W-SW 248 0 min 0,000 mm 0,0 UV-I 51 W/m 8,6 C 5,6 C 19,3 km/h (3 Bft) 100,00 %
20.09.2017 08:26 9,7 C 13,3 C 93 % 1018,6 hPa 0,0 l/m 7,3 km/h (2 Bft) SW 232 0 min 0,000 mm 0,0 UV-I 47 W/m 8,6 C 9,0 C 14,5 km/h (3 Bft) 97,56 %
20.09.2017 08:28 9,7 C 13,3 C 93 % 1018,6 hPa 0,0 l/m 10,1 km/h (2 Bft) W 267 0 min 0,000 mm 0,0 UV-I 56 W/m 8,6 C 7,2 C 19,3 km/h (3 Bft) 100,00 %
20.09.2017 08:30 9,7 C 13,3 C 93 % 1018,7 hPa 0,0 l/m 8,8 km/h (2 Bft) W-SW 257 0 min 0,000 mm 0,0 UV-I 60 W/m 8,6 C 8,0 C 16,1 km/h (3 Bft) 100,00 %
20.09.2017 08:32 9,7 C 13,3 C 93 % 1018,7 hPa 0,0 l/m 6,0 km/h (2 Bft) W-SW 250 0 min 0,000 mm 0,0 UV-I 66 W/m 8,6 C 9,7 C 11,3 km/h (2 Bft) 100,00 %
20.09.2017 08:34 9,7 C 13,3 C 93 % 1018,6 hPa 0,0 l/m 7,9 km/h (2 Bft) W-NW 289 0 min 0,000 mm 0,0 UV-I 73 W/m 8,6 C 8,6 C 11,3 km/h (2 Bft) 100,00 %
20.09.2017 08:36 9,7 C 13,3 C 93 % 1018,7 hPa 0,0 l/m 5,6 km/h (1 Bft) W-SW 254 0 min 0,000 mm 0,0 UV-I 72 W/m 8,6 C 9,7 C 11,3 km/h (2 Bft) 97,37 %
20.09.2017 08:38 9,8 C 13,3 C 93 % 1018,7 hPa 0,0 l/m 6,4 km/h (2 Bft) W 269 0 min 0,000 mm 0,0 UV-I 76 W/m 8,7 C 9,8 C 14,5 km/h (3 Bft) 98,00 %
20.09.2017 08:40 9,8 C 13,3 C 93 % 1018,7 hPa 0,0 l/m 10,7 km/h (2 Bft) W-SW 258 0 min 0,000 mm 0,0 UV-I 82 W/m 8,7 C 7,0 C 17,7 km/h (3 Bft) 100,00 %
20.09.2017 08:42 9,7 C 13,3 C 93 % 1018,7 hPa 0,0 l/m 8,4 km/h (2 Bft) W-SW 246 0 min 0,000 mm 0,0 UV-I 76 W/m 8,6 C 8,3 C 17,7 km/h (3 Bft) 100,00 %
20.09.2017 08:44 9,8 C 13,3 C 93 % 1018,7 hPa 0,0 l/m 7,1 km/h (2 Bft) W-SW 252 0 min 0,000 mm 0,0 UV-I 83 W/m 8,7 C 9,3 C 14,5 km/h (3 Bft) 97,87 %
20.09.2017 08:46 9,8 C 13,3 C 93 % 1018,7 hPa 0,0 l/m 8,3 km/h (2 Bft) W-SW 257 0 min 0,000 mm 0,0 UV-I 85 W/m 8,7 C 8,4 C 14,5 km/h (3 Bft) 100,00 %
20.09.2017 08:48 9,8 C 13,3 C 93 % 1018,7 hPa 0,0 l/m 7,9 km/h (2 Bft) W 279 0 min 0,000 mm 0,0 UV-I 94 W/m 8,7 C 8,7 C 12,9 km/h (3 Bft) 96,43 %
20.09.2017 08:50 9,8 C 13,3 C 93 % 1018,7 hPa 0,0 l/m 6,8 km/h (2 Bft) W-SW 254 0 min 0,000 mm 0,0 UV-I 101 W/m 8,7 C 9,5 C 12,9 km/h (3 Bft) 96,00 %
20.09.2017 08:52 9,8 C 13,3 C 93 % 1018,7 hPa 0,0 l/m 8,1 km/h (2 Bft) SW 235 0 min 0,000 mm 0,0 UV-I 100 W/m 8,7 C 8,6 C 14,5 km/h (3 Bft) 97,56 %
20.09.2017 08:54 9,8 C 13,3 C 93 % 1018,8 hPa 0,0 l/m 7,2 km/h (2 Bft) W-SW 255 0 min 0,000 mm 0,0 UV-I 106 W/m 8,7 C 9,2 C 14,5 km/h (3 Bft) 96,23 %
20.09.2017 08:56 9,9 C 13,3 C 93 % 1018,7 hPa 0,0 l/m 8,8 km/h (2 Bft) S-SO 159 0 min 0,000 mm 0,0 UV-I 109 W/m 8,8 C 8,2 C 14,5 km/h (3 Bft) 97,56 %
20.09.2017 08:58 9,9 C 13,3 C 92 % 1018,7 hPa 0,0 l/m 8,8 km/h (2 Bft) W-SW 255 0 min 0,000 mm 0,0 UV-I 112 W/m 8,7 C 8,2 C 14,5 km/h (3 Bft) 98,00 %
20.09.2017 09:00 9,9 C 13,3 C 92 % 1018,7 hPa 0,0 l/m 11,1 km/h (2 Bft) W-NW 284 0 min 0,026 mm 0,0 UV-I 120 W/m 8,7 C 6,9 C 20,9 km/h (4 Bft) 97,44 %
20.09.2017 09:02 9,9 C 13,3 C 93 % 1018,8 hPa 0,0 l/m 7,7 km/h (2 Bft) W-SW 254 0 min 0,000 mm 0,0 UV-I 126 W/m 8,8 C 9,0 C 16,1 km/h (3 Bft) 98,11 %
20.09.2017 09:04 10,0 C 13,3 C 92 % 1018,7 hPa 0,0 l/m 7,0 km/h (2 Bft) W 262 0 min 0,000 mm 0,0 UV-I 134 W/m 8,8 C 9,6 C 11,3 km/h (2 Bft) 97,56 %
20.09.2017 09:06 10,0 C 13,3 C 92 % 1018,7 hPa 0,0 l/m 8,4 km/h (2 Bft) SW 230 0 min 0,000 mm 0,0 UV-I 136 W/m 8,8 C 8,6 C 19,3 km/h (3 Bft) 98,00 %
20.09.2017 09:08 10,1 C 13,3 C 92 % 1018,8 hPa 0,0 l/m 6,0 km/h (2 Bft) W 264 0 min 0,000 mm 0,0 UV-I 142 W/m 8,9 C 10,1 C 11,3 km/h (2 Bft) 93,18 %
20.09.2017 09:10 10,0 C 13,3 C 92 % 1018,8 hPa 0,0 l/m 8,3 km/h (2 Bft) W-NW 284 0 min 0,000 mm 0,0 UV-I 158 W/m 8,8 C 8,7 C 12,9 km/h (3 Bft) 97,56 %
20.09.2017 09:12 10,1 C 13,3 C 92 % 1018,8 hPa 0,0 l/m 10,4 km/h (2 Bft) W 260 0 min 0,000 mm 0,0 UV-I 144 W/m 8,9 C 7,5 C 16,1 km/h (3 Bft) 98,21 %
20.09.2017 09:14 10,1 C 13,3 C 92 % 1018,8 hPa 0,0 l/m 6,1 km/h (2 Bft) W-NW 288 0 min 0,000 mm 0,0 UV-I 135 W/m 8,9 C 10,1 C 14,5 km/h (3 Bft) 98,11 %
20.09.2017 09:16 10,1 C 13,3 C 92 % 1018,8 hPa 0,0 l/m 9,0 km/h (2 Bft) W 273 0 min 0,000 mm 0,0 UV-I 145 W/m 8,9 C 8,3 C 22,5 km/h (4 Bft) 97,56 %
20.09.2017 09:18 10,1 C 13,3 C 92 % 1018,8 hPa 0,0 l/m 6,2 km/h (2 Bft) SW 228 0 min 0,000 mm 0,2 UV-I 164 W/m 8,9 C 10,1 C 12,9 km/h (3 Bft) 97,87 %
20.09.2017 09:20 10,2 C 13,3 C 92 % 1018,8 hPa 0,0 l/m 7,5 km/h (2 Bft) W-SW 243 0 min 0,000 mm 0,5 UV-I 182 W/m 9,0 C 9,4 C 12,9 km/h (3 Bft) 96,23 %
20.09.2017 09:22 10,2 C 13,3 C 92 % 1018,8 hPa 0,0 l/m 6,0 km/h (2 Bft) W-SW 238 0 min 0,000 mm 0,5 UV-I 181 W/m 9,0 C 10,2 C 11,3 km/h (2 Bft) 100,00 %
20.09.2017 09:24 10,2 C 13,3 C 92 % 1018,9 hPa 0,0 l/m 6,5 km/h (2 Bft) W-SW 252 0 min 0,000 mm 0,1 UV-I 170 W/m 9,0 C 10,2 C 12,9 km/h (3 Bft) 98,11 %
20.09.2017 09:26 10,2 C 13,3 C 92 % 1018,9 hPa 0,0 l/m 8,9 km/h (2 Bft) SW 221 0 min 0,000 mm 0,0 UV-I 160 W/m 9,0 C 8,5 C 12,9 km/h (3 Bft) 97,73 %
20.09.2017 09:28 10,2 C 13,3 C 92 % 1018,9 hPa 0,0 l/m 12,8 km/h (3 Bft) SW 234 0 min 0,000 mm 0,4 UV-I 154 W/m 9,0 C 6,4 C 22,5 km/h (4 Bft) 100,00 %
20.09.2017 09:30 10,2 C 13,3 C 91 % 1018,9 hPa 0,0 l/m 11,2 km/h (2 Bft) W-NW 298 0 min 0,000 mm 0,5 UV-I 164 W/m 8,8 C 7,2 C 16,1 km/h (3 Bft) 100,00 %
20.09.2017 09:32 10,2 C 13,3 C 91 % 1019,0 hPa 0,0 l/m 8,9 km/h (2 Bft) W-NW 284 0 min 0,000 mm 0,6 UV-I 197 W/m 8,8 C 8,5 C 19,3 km/h (3 Bft) 97,73 %
20.09.2017 09:34 10,2 C 13,3 C 91 % 1019,0 hPa 0,0 l/m 7,3 km/h (2 Bft) W-NW 295 0 min 0,000 mm 0,6 UV-I 218 W/m 8,8 C 9,6 C 17,7 km/h (3 Bft) 100,00 %
20.09.2017 09:36 10,3 C 13,3 C 91 % 1019,1 hPa 0,0 l/m 8,1 km/h (2 Bft) W-NW 290 0 min 0,000 mm 0,6 UV-I 229 W/m 8,9 C 9,1 C 12,9 km/h (3 Bft) 100,00 %
20.09.2017 09:38 10,3 C 13,3 C 91 % 1019,0 hPa 0,0 l/m 9,7 km/h (2 Bft) W 269 0 min 0,000 mm 0,2 UV-I 181 W/m 8,9 C 8,1 C 19,3 km/h (3 Bft) 100,00 %
20.09.2017 09:40 10,3 C 13,3 C 91 % 1019,0 hPa 0,0 l/m 8,3 km/h (2 Bft) W-SW 257 0 min 0,000 mm 0,0 UV-I 148 W/m 8,9 C 9,0 C 14,5 km/h (3 Bft) 96,23 %
20.09.2017 09:42 10,3 C 13,3 C 91 % 1019,1 hPa 0,0 l/m 7,1 km/h (2 Bft) W-SW 244 0 min 0,000 mm 0,0 UV-I 127 W/m 8,9 C 9,8 C 12,9 km/h (3 Bft) 100,00 %
20.09.2017 09:44 10,3 C 13,3 C 91 % 1019,1 hPa 0,0 l/m 6,9 km/h (2 Bft) W-SW 240 0 min 0,000 mm 0,0 UV-I 114 W/m 8,9 C 9,9 C 9,7 km/h (2 Bft) 100,00 %
20.09.2017 09:46 10,2 C 13,3 C 91 % 1019,1 hPa 0,0 l/m 8,5 km/h (2 Bft) SW 219 0 min 0,000 mm 0,0 UV-I 102 W/m 8,8 C 8,7 C 14,5 km/h (3 Bft) 95,74 %
20.09.2017 09:48 10,2 C 13,3 C 92 % 1019,1 hPa 0,0 l/m 7,3 km/h (2 Bft) W-SW 239 0 min 0,000 mm 0,0 UV-I 91 W/m 9,0 C 9,6 C 14,5 km/h (3 Bft) 100,00 %
20.09.2017 09:50 10,1 C 13,3 C 92 % 1019,0 hPa 0,0 l/m 11,7 km/h (2 Bft) W-SW 240 0 min 0,000 mm 0,0 UV-I 112 W/m 8,9 C 6,8 C 16,1 km/h (3 Bft) 100,00 %
20.09.2017 09:52 10,1 C 13,3 C 92 % 1019,0 hPa 0,2 l/m 8,3 km/h (2 Bft) W-SW 257 0 min 0,000 mm 0,0 UV-I 115 W/m 8,9 C 8,8 C 12,9 km/h (3 Bft) 100,00 %
20.09.2017 09:54 10,0 C 13,3 C 92 % 1019,1 hPa 0,0 l/m 6,7 km/h (2 Bft) W-SW 241 0 min 0,000 mm 0,0 UV-I 118 W/m 8,8 C 9,8 C 14,5 km/h (3 Bft) 100,00 %
20.09.2017 09:56 10,0 C 13,3 C 92 % 1019,1 hPa 0,0 l/m 10,8 km/h (2 Bft) W-NW 284 0 min 0,000 mm 0,3 UV-I 127 W/m 8,8 C 7,1 C 17,7 km/h (3 Bft) 100,00 %
20.09.2017 09:58 9,9 C 13,3 C 93 % 1019,1 hPa 0,0 l/m 10,3 km/h (2 Bft) W-SW 246 0 min 0,000 mm 0,3 UV-I 128 W/m 8,8 C 7,3 C 19,3 km/h (3 Bft) 100,00 %
20.09.2017 10:00 9,9 C 13,3 C 93 % 1019,1 hPa 0,0 l/m 9,8 km/h (2 Bft) W-SW 246 0 min 0,076 mm 0,0 UV-I 94 W/m 8,8 C 7,6 C 17,7 km/h (3 Bft) 100,00 %
20.09.2017 10:02 9,9 C 13,3 C 93 % 1019,1 hPa 0,0 l/m 6,4 km/h (2 Bft) W-SW 252 0 min 0,000 mm 0,0 UV-I 75 W/m 8,8 C 9,9 C 11,3 km/h (2 Bft) 98,11 %
20.09.2017 10:04 9,9 C 13,3 C 93 % 1019,1 hPa 0,0 l/m 6,7 km/h (2 Bft) W 280 0 min 0,000 mm 0,0 UV-I 85 W/m 8,8 C 9,7 C 11,3 km/h (2 Bft) 100,00 %
20.09.2017 10:06 9,9 C 13,3 C 93 % 1019,1 hPa 0,0 l/m 6,9 km/h (2 Bft) W-SW 240 0 min 0,000 mm 0,0 UV-I 87 W/m 8,8 C 9,5 C 11,3 km/h (2 Bft) 100,00 %
20.09.2017 10:08 9,8 C 13,3 C 94 % 1019,2 hPa 0,0 l/m 8,4 km/h (2 Bft) W 261 0 min 0,000 mm 0,6 UV-I 132 W/m 8,9 C 8,4 C 14,5 km/h (3 Bft) 100,00 %
20.09.2017 10:10 9,8 C 13,3 C 94 % 1019,1 hPa 0,0 l/m 10,0 km/h (2 Bft) W-SW 250 0 min 0,000 mm 0,7 UV-I 160 W/m 8,9 C 7,4 C 14,5 km/h (3 Bft) 100,00 %
20.09.2017 10:12 9,8 C 13,3 C 94 % 1019,1 hPa 0,0 l/m 13,1 km/h (3 Bft) SW 217 0 min 0,000 mm 0,9 UV-I 187 W/m 8,9 C 5,7 C 17,7 km/h (3 Bft) 100,00 %
20.09.2017 10:14 9,8 C 13,3 C 94 % 1019,1 hPa 0,0 l/m 13,2 km/h (3 Bft) SW 231 0 min 0,000 mm 0,9 UV-I 204 W/m 8,9 C 5,7 C 17,7 km/h (3 Bft) 100,00 %
20.09.2017 10:16 9,9 C 13,3 C 94 % 1019,1 hPa 0,0 l/m 11,4 km/h (2 Bft) SW 235 0 min 0,000 mm 0,9 UV-I 217 W/m 9,0 C 6,7 C 17,7 km/h (3 Bft) 100,00 %
20.09.2017 10:18 9,9 C 13,3 C 94 % 1019,1 hPa 0,0 l/m 13,8 km/h (3 Bft) W-SW 242 0 min 0,000 mm 1,0 UV-I 237 W/m 9,0 C 5,5 C 20,9 km/h (4 Bft) 100,00 %
20.09.2017 10:20 10,0 C 13,3 C 94 % 1019,1 hPa 0,0 l/m 11,5 km/h (2 Bft) W 267 0 min 0,000 mm 1,0 UV-I 232 W/m 9,1 C 6,8 C 17,7 km/h (3 Bft) 100,00 %
20.09.2017 10:22 10,1 C 13,3 C 94 % 1019,1 hPa 0,0 l/m 5,4 km/h (1 Bft) W-SW 242 0 min 0,000 mm 1,0 UV-I 232 W/m 9,2 C 10,1 C 11,3 km/h (2 Bft) 100,00 %
20.09.2017 10:24 10,2 C 13,3 C 95 % 1019,2 hPa 0,0 l/m 6,7 km/h (2 Bft) SW 236 0 min 0,000 mm 1,0 UV-I 220 W/m 9,4 C 10,0 C 11,3 km/h (2 Bft) 100,00 %
20.09.2017 10:26 10,3 C 13,3 C 94 % 1019,1 hPa 0,0 l/m 11,0 km/h (2 Bft) W 260 0 min 0,000 mm 1,1 UV-I 236 W/m 9,4 C 7,4 C 17,7 km/h (3 Bft) 100,00 %
20.09.2017 10:28 10,3 C 13,3 C 94 % 1019,1 hPa 0,0 l/m 7,3 km/h (2 Bft) W 277 0 min 0,000 mm 1,1 UV-I 221 W/m 9,4 C 9,7 C 12,9 km/h (3 Bft) 100,00 %
20.09.2017 10:30 10,3 C 13,3 C 94 % 1019,1 hPa 0,0 l/m 10,0 km/h (2 Bft) W-SW 253 0 min 0,000 mm 1,1 UV-I 217 W/m 9,4 C 7,9 C 14,5 km/h (3 Bft) 100,00 %
20.09.2017 10:32 10,3 C 13,3 C 94 % 1019,1 hPa 0,0 l/m 10,3 km/h (2 Bft) W 271 0 min 0,000 mm 1,1 UV-I 229 W/m 9,4 C 7,8 C 14,5 km/h (3 Bft) 100,00 %
20.09.2017 10:34 10,3 C 13,3 C 94 % 1019,1 hPa 0,0 l/m 10,7 km/h (2 Bft) SW 231 0 min 0,000 mm 1,1 UV-I 237 W/m 9,4 C 7,5 C 19,3 km/h (3 Bft) 100,00 %
20.09.2017 10:36 10,3 C 13,3 C 94 % 1019,1 hPa 0,0 l/m 10,3 km/h (2 Bft) W-SW 258 0 min 0,000 mm 0,9 UV-I 204 W/m 9,4 C 7,8 C 16,1 km/h (3 Bft) 100,00 %
20.09.2017 10:38 10,3 C 13,3 C 94 % 1019,1 hPa 0,0 l/m 9,5 km/h (2 Bft) W 261 0 min 0,000 mm 0,9 UV-I 207 W/m 9,4 C 8,2 C 17,7 km/h (3 Bft) 100,00 %
20.09.2017 10:40 10,4 C 13,3 C 93 % 1019,1 hPa 0,0 l/m 10,0 km/h (2 Bft) W-SW 239 0 min 0,000 mm 0,9 UV-I 199 W/m 9,3 C 8,0 C 17,7 km/h (3 Bft) 100,00 %
20.09.2017 10:42 10,5 C 13,3 C 94 % 1019,1 hPa 0,0 l/m 8,4 km/h (2 Bft) W 271 0 min 0,000 mm 0,8 UV-I 181 W/m 9,6 C 9,1 C 17,7 km/h (3 Bft) 97,37 %
20.09.2017 10:44 10,5 C 13,3 C 93 % 1019,1 hPa 0,0 l/m 10,7 km/h (2 Bft) W 261 0 min 0,000 mm 0,9 UV-I 183 W/m 9,4 C 7,8 C 17,7 km/h (3 Bft) 100,00 %
20.09.2017 10:46 10,4 C 13,3 C 93 % 1019,1 hPa 0,0 l/m 11,2 km/h (2 Bft) W 271 0 min 0,000 mm 0,9 UV-I 169 W/m 9,3 C 7,4 C 19,3 km/h (3 Bft) 97,14 %
20.09.2017 10:48 10,4 C 13,3 C 93 % 1019,2 hPa 0,0 l/m 14,3 km/h (3 Bft) W-SW 258 0 min 0,000 mm 1,0 UV-I 186 W/m 9,3 C 5,9 C 20,9 km/h (4 Bft) 98,21 %
20.09.2017 10:50 10,4 C 13,3 C 92 % 1019,2 hPa 0,0 l/m 15,8 km/h (3 Bft) W 261 0 min 0,000 mm 1,1 UV-I 212 W/m 9,2 C 5,3 C 25,7 km/h (4 Bft) 97,37 %
20.09.2017 10:52 10,4 C 13,3 C 92 % 1019,2 hPa 0,0 l/m 15,1 km/h (3 Bft) W 271 0 min 0,000 mm 1,1 UV-I 227 W/m 9,2 C 5,6 C 20,9 km/h (4 Bft) 94,34 %
20.09.2017 10:54 10,4 C 13,3 C 92 % 1019,2 hPa 0,0 l/m 8,9 km/h (2 Bft) W-NW 288 0 min 0,000 mm 1,3 UV-I 305 W/m 9,2 C 8,7 C 16,1 km/h (3 Bft) 96,23 %
20.09.2017 10:56 10,5 C 13,3 C 92 % 1019,2 hPa 0,0 l/m 12,6 km/h (3 Bft) W 271 2 min 0,000 mm 1,3 UV-I 333 W/m 9,3 C 6,8 C 20,9 km/h (4 Bft) 97,87 %
20.09.2017 10:58 10,6 C 13,3 C 93 % 1019,2 hPa 0,0 l/m 6,0 km/h (2 Bft) W-SW 250 2 min 0,000 mm 1,4 UV-I 370 W/m 9,5 C 10,6 C 11,3 km/h (2 Bft) 97,44 %
20.09.2017 11:00 10,8 C 13,3 C 93 % 1019,3 hPa 0,0 l/m 13,1 km/h (3 Bft) W-SW 244 2 min 0,102 mm 1,3 UV-I 409 W/m 9,7 C 6,9 C 19,3 km/h (3 Bft) 98,00 %
20.09.2017 11:02 10,8 C 13,3 C 92 % 1019,2 hPa 0,0 l/m 14,2 km/h (3 Bft) W-NW 285 2 min 0,000 mm 1,3 UV-I 336 W/m 9,6 C 6,4 C 22,5 km/h (4 Bft) 98,00 %
20.09.2017 11:04 10,8 C 13,3 C 91 % 1019,1 hPa 0,0 l/m 8,0 km/h (2 Bft) SW 234 0 min 0,000 mm 1,2 UV-I 261 W/m 9,4 C 9,7 C 14,5 km/h (3 Bft) 97,62 %
20.09.2017 11:06 10,8 C 13,3 C 91 % 1019,2 hPa 0,0 l/m 13,7 km/h (3 Bft) SW 228 0 min 0,000 mm 1,2 UV-I 221 W/m 9,4 C 6,7 C 17,7 km/h (3 Bft) 95,45 %
20.09.2017 11:08 10,8 C 13,3 C 91 % 1019,1 hPa 0,0 l/m 11,4 km/h (2 Bft) W-NW 298 0 min 0,000 mm 1,1 UV-I 209 W/m 9,4 C 7,7 C 14,5 km/h (3 Bft) 97,56 %
20.09.2017 11:10 10,8 C 13,3 C 91 % 1019,1 hPa 0,0 l/m 9,7 km/h (2 Bft) W 259 0 min 0,000 mm 1,2 UV-I 245 W/m 9,4 C 8,6 C 17,7 km/h (3 Bft) 94,34 %
20.09.2017 11:12 10,8 C 13,3 C 91 % 1019,2 hPa 0,0 l/m 7,6 km/h (2 Bft) S-SW 211 0 min 0,000 mm 1,4 UV-I 295 W/m 9,4 C 10,0 C 14,5 km/h (3 Bft) 97,87 %
20.09.2017 11:14 10,9 C 13,3 C 91 % 1019,1 hPa 0,0 l/m 8,1 km/h (2 Bft) W-SW 239 0 min 0,000 mm 1,4 UV-I 313 W/m 9,5 C 9,7 C 14,5 km/h (3 Bft) 94,00 %
20.09.2017 11:16 10,9 C 13,3 C 90 % 1019,2 hPa 0,0 l/m 9,5 km/h (2 Bft) W 279 0 min 0,000 mm 1,3 UV-I 281 W/m 9,3 C 8,9 C 16,1 km/h (3 Bft) 95,12 %
20.09.2017 11:18 11,1 C 13,3 C 91 % 1019,1 hPa 0,0 l/m 6,4 km/h (2 Bft) W-SW 244 0 min 0,000 mm 1,3 UV-I 298 W/m 9,7 C 11,1 C 12,9 km/h (3 Bft) 94,00 %
20.09.2017 11:20 11,1 C 13,3 C 91 % 1019,2 hPa 0,0 l/m 8,0 km/h (2 Bft) SW 232 0 min 0,000 mm 1,3 UV-I 332 W/m 9,7 C 10,0 C 12,9 km/h (3 Bft) 98,11 %
20.09.2017 11:22 11,3 C 13,3 C 91 % 1019,2 hPa 0,0 l/m 10,2 km/h (2 Bft) W 275 2 min 0,000 mm 1,7 UV-I 440 W/m 9,9 C 8,9 C 16,1 km/h (3 Bft) 98,00 %
20.09.2017 11:24 11,3 C 13,3 C 89 % 1019,1 hPa 0,0 l/m 8,7 km/h (2 Bft) W 269 2 min 0,000 mm 1,3 UV-I 451 W/m 9,6 C 9,8 C 17,7 km/h (3 Bft) 97,37 %
20.09.2017 11:26 11,3 C 13,3 C 89 % 1019,1 hPa 0,0 l/m 8,5 km/h (2 Bft) W-NW 292 0 min 0,000 mm 1,0 UV-I 235 W/m 9,6 C 9,9 C 19,3 km/h (3 Bft) 98,11 %
20.09.2017 11:28 11,3 C 13,3 C 89 % 1019,1 hPa 0,0 l/m 8,9 km/h (2 Bft) W-SW 247 0 min 0,000 mm 1,0 UV-I 232 W/m 9,6 C 9,7 C 14,5 km/h (3 Bft) 96,00 %
20.09.2017 11:30 11,2 C 13,3 C 89 % 1019,1 hPa 0,0 l/m 6,6 km/h (2 Bft) W 281 0 min 0,000 mm 1,1 UV-I 228 W/m 9,5 C 11,1 C 14,5 km/h (3 Bft) 97,56 %
20.09.2017 11:32 11,2 C 13,3 C 89 % 1019,2 hPa 0,0 l/m 12,8 km/h (3 Bft) W-SW 255 0 min 0,000 mm 1,2 UV-I 246 W/m 9,5 C 7,5 C 17,7 km/h (3 Bft) 95,12 %
20.09.2017 11:34 11,1 C 13,3 C 89 % 1019,1 hPa 0,0 l/m 10,4 km/h (2 Bft) W-SW 251 0 min 0,000 mm 1,2 UV-I 234 W/m 9,4 C 8,6 C 17,7 km/h (3 Bft) 94,34 %
20.09.2017 11:36 11,1 C 13,3 C 89 % 1019,1 hPa 0,0 l/m 8,5 km/h (2 Bft) N-NW 336 0 min 0,000 mm 1,2 UV-I 226 W/m 9,4 C 9,7 C 12,9 km/h (3 Bft) 96,30 %
20.09.2017 11:38 11,1 C 13,3 C 89 % 1019,2 hPa 0,0 l/m 10,5 km/h (2 Bft) SW 229 0 min 0,000 mm 1,3 UV-I 235 W/m 9,4 C 8,5 C 22,5 km/h (4 Bft) 98,39 %
20.09.2017 11:40 11,1 C 13,3 C 89 % 1019,1 hPa 0,0 l/m 10,9 km/h (2 Bft) W 261 0 min 0,000 mm 1,2 UV-I 212 W/m 9,4 C 8,3 C 19,3 km/h (3 Bft) 96,00 %
20.09.2017 11:42 11,1 C 13,3 C 89 % 1019,2 hPa 0,0 l/m 13,5 km/h (3 Bft) W 263 0 min 0,000 mm 1,3 UV-I 231 W/m 9,4 C 7,1 C 25,7 km/h (4 Bft) 98,08 %
20.09.2017 11:44 11,1 C 13,3 C 89 % 1019,2 hPa 0,0 l/m 10,6 km/h (2 Bft) W-NW 298 0 min 0,000 mm 1,6 UV-I 292 W/m 9,4 C 8,5 C 17,7 km/h (3 Bft) 97,44 %
20.09.2017 11:46 11,2 C 13,3 C 90 % 1019,2 hPa 0,0 l/m 11,0 km/h (2 Bft) W 260 0 min 0,000 mm 1,5 UV-I 274 W/m 9,6 C 8,4 C 19,3 km/h (3 Bft) 96,43 %
20.09.2017 11:48 11,2 C 13,3 C 89 % 1019,2 hPa 0,0 l/m 10,8 km/h (2 Bft) W 276 0 min 0,000 mm 1,3 UV-I 234 W/m 9,5 C 8,5 C 17,7 km/h (3 Bft) 96,15 %
20.09.2017 11:50 11,3 C 13,3 C 89 % 1019,3 hPa 0,0 l/m 9,4 km/h (2 Bft) W-NW 283 0 min 0,000 mm 1,3 UV-I 204 W/m 9,6 C 9,4 C 19,3 km/h (3 Bft) 98,21 %
20.09.2017 11:52 11,2 C 13,3 C 88 % 1019,3 hPa 0,0 l/m 9,2 km/h (2 Bft) W-SW 256 0 min 0,000 mm 1,4 UV-I 232 W/m 9,3 C 9,4 C 12,9 km/h (3 Bft) 98,00 %
20.09.2017 11:54 11,2 C 13,3 C 88 % 1019,3 hPa 0,0 l/m 9,5 km/h (2 Bft) W-SW 254 0 min 0,000 mm 1,3 UV-I 232 W/m 9,3 C 9,2 C 16,1 km/h (3 Bft) 98,00 %
20.09.2017 11:56 11,2 C 13,3 C 89 % 1019,3 hPa 0,0 l/m 8,1 km/h (2 Bft) W 276 0 min 0,000 mm 1,4 UV-I 280 W/m 9,5 C 10,0 C 16,1 km/h (3 Bft) 98,04 %
20.09.2017 11:58 11,2 C 13,3 C 89 % 1019,2 hPa 0,0 l/m 7,7 km/h (2 Bft) W-SW 241 0 min 0,000 mm 1,4 UV-I 278 W/m 9,5 C 10,3 C 16,1 km/h (3 Bft) 97,73 %
20.09.2017 12:00 11,3 C 13,3 C 90 % 1019,3 hPa 0,0 l/m 8,0 km/h (2 Bft) W 269 0 min 0,127 mm 1,4 UV-I 298 W/m 9,7 C 10,2 C 11,3 km/h (2 Bft) 95,12 %
20.09.2017 12:02 11,4 C 13,3 C 89 % 1019,3 hPa 0,0 l/m 7,6 km/h (2 Bft) W 270 0 min 0,000 mm 1,5 UV-I 327 W/m 9,7 C 10,6 C 14,5 km/h (3 Bft) 92,86 %
20.09.2017 12:04 11,5 C 13,3 C 89 % 1019,3 hPa 0,0 l/m 11,7 km/h (2 Bft) W-NW 286 0 min 0,000 mm 1,9 UV-I 352 W/m 9,8 C 8,4 C 19,3 km/h (3 Bft) 97,87 %
20.09.2017 12:06 11,6 C 13,3 C 88 % 1019,3 hPa 0,0 l/m 13,7 km/h (3 Bft) SW 229 2 min 0,000 mm 1,9 UV-I 605 W/m 9,7 C 7,6 C 24,1 km/h (4 Bft) 97,44 %
20.09.2017 12:08 11,7 C 13,3 C 88 % 1019,3 hPa 0,0 l/m 15,0 km/h (3 Bft) W-SW 247 2 min 0,000 mm 1,7 UV-I 568 W/m 9,8 C 7,2 C 20,9 km/h (4 Bft) 97,22 %
20.09.2017 12:10 11,7 C 13,3 C 88 % 1019,3 hPa 0,0 l/m 12,7 km/h (3 Bft) SW 232 0 min 0,000 mm 1,7 UV-I 355 W/m 9,8 C 8,2 C 22,5 km/h (4 Bft) 96,55 %
20.09.2017 12:12 11,7 C 13,3 C 87 % 1019,3 hPa 0,0 l/m 10,6 km/h (2 Bft) W-SW 252 2 min 0,000 mm 1,9 UV-I 389 W/m 9,6 C 9,2 C 16,1 km/h (3 Bft) 96,30 %
20.09.2017 12:14 11,8 C 13,3 C 87 % 1019,3 hPa 0,0 l/m 10,8 km/h (2 Bft) W-SW 254 2 min 0,000 mm 2,4 UV-I 424 W/m 9,7 C 9,2 C 17,7 km/h (3 Bft) 98,46 %
20.09.2017 12:16 12,0 C 13,3 C 87 % 1019,3 hPa 0,0 l/m 10,1 km/h (2 Bft) W 278 2 min 0,000 mm 2,2 UV-I 464 W/m 9,9 C 9,8 C 17,7 km/h (3 Bft) 98,18 %
20.09.2017 12:18 12,1 C 13,3 C 86 % 1019,2 hPa 0,0 l/m 10,5 km/h (2 Bft) W 263 2 min 0,000 mm 2,2 UV-I 464 W/m 9,8 C 9,7 C 20,9 km/h (4 Bft) 97,44 %
20.09.2017 12:20 12,1 C 13,3 C 86 % 1019,2 hPa 0,0 l/m 11,5 km/h (2 Bft) W-NW 282 0 min 0,000 mm 2,0 UV-I 365 W/m 9,8 C 9,2 C 17,7 km/h (3 Bft) 95,45 %
20.09.2017 12:22 12,2 C 13,3 C 87 % 1019,2 hPa 0,0 l/m 9,4 km/h (2 Bft) W-SW 237 2 min 0,000 mm 2,1 UV-I 374 W/m 10,1 C 10,3 C 17,7 km/h (3 Bft) 96,43 %
20.09.2017 12:24 12,1 C 13,3 C 85 % 1019,2 hPa 0,0 l/m 11,9 km/h (2 Bft) W 275 2 min 0,000 mm 2,3 UV-I 387 W/m 9,7 C 9,0 C 17,7 km/h (3 Bft) 100,00 %
20.09.2017 12:26 12,1 C 13,3 C 86 % 1019,2 hPa 0,0 l/m 12,3 km/h (3 Bft) W-SW 258 2 min 0,000 mm 2,4 UV-I 387 W/m 9,8 C 8,8 C 20,9 km/h (4 Bft) 100,00 %
20.09.2017 12:28 12,1 C 13,3 C 85 % 1019,2 hPa 0,0 l/m 13,3 km/h (3 Bft) W 280 2 min 0,000 mm 2,6 UV-I 475 W/m 9,7 C 8,4 C 25,7 km/h (4 Bft) 98,00 %
20.09.2017 12:30 12,1 C 13,3 C 86 % 1019,2 hPa 0,0 l/m 12,6 km/h (3 Bft) W-NW 284 2 min 0,000 mm 2,4 UV-I 491 W/m 9,8 C 8,7 C 24,1 km/h (4 Bft) 97,37 %
20.09.2017 12:32 12,2 C 13,3 C 85 % 1019,1 hPa 0,0 l/m 11,3 km/h (2 Bft) W-SW 248 2 min 0,000 mm 2,2 UV-I 446 W/m 9,8 C 9,4 C 24,1 km/h (4 Bft) 100,00 %
20.09.2017 12:34 12,2 C 13,3 C 85 % 1019,2 hPa 0,0 l/m 9,0 km/h (2 Bft) SW 226 2 min 0,000 mm 1,9 UV-I 439 W/m 9,8 C 10,6 C 16,1 km/h (3 Bft) 100,00 %
20.09.2017 12:36 12,2 C 13,3 C 85 % 1019,2 hPa 0,0 l/m 11,0 km/h (2 Bft) W 269 0 min 0,000 mm 1,4 UV-I 263 W/m 9,8 C 9,5 C 20,9 km/h (4 Bft) 100,00 %
20.09.2017 12:38 12,2 C 13,3 C 86 % 1019,2 hPa 0,0 l/m 11,9 km/h (2 Bft) SW 227 0 min 0,000 mm 1,4 UV-I 220 W/m 9,9 C 9,1 C 20,9 km/h (4 Bft) 100,00 %
20.09.2017 12:40 12,2 C 13,3 C 85 % 1019,3 hPa 0,0 l/m 16,2 km/h (3 Bft) SW 228 0 min 0,000 mm 1,4 UV-I 217 W/m 9,8 C 7,4 C 24,1 km/h (4 Bft) 97,87 %
20.09.2017 12:42 12,1 C 13,3 C 85 % 1019,1 hPa 0,0 l/m 13,3 km/h (3 Bft) W-SW 249 0 min 0,000 mm 1,5 UV-I 193 W/m 9,7 C 8,4 C 20,9 km/h (4 Bft) 97,73 %
20.09.2017 12:44 11,9 C 13,3 C 85 % 1019,1 hPa 0,0 l/m 14,7 km/h (3 Bft) W-SW 251 0 min 0,000 mm 1,5 UV-I 184 W/m 9,5 C 7,6 C 17,7 km/h (3 Bft) 97,73 %
20.09.2017 12:46 11,8 C 13,3 C 86 % 1019,1 hPa 0,0 l/m 13,3 km/h (3 Bft) W 267 0 min 0,000 mm 1,3 UV-I 155 W/m 9,5 C 8,0 C 17,7 km/h (3 Bft) 98,21 %
20.09.2017 12:48 11,8 C 13,3 C 86 % 1019,1 hPa 0,0 l/m 11,7 km/h (2 Bft) W-SW 246 0 min 0,000 mm 1,4 UV-I 161 W/m 9,5 C 8,7 C 16,1 km/h (3 Bft) 97,37 %
20.09.2017 12:50 11,8 C 13,3 C 86 % 1019,1 hPa 0,0 l/m 15,8 km/h (3 Bft) W 259 0 min 0,000 mm 1,5 UV-I 224 W/m 9,5 C 7,0 C 27,4 km/h (4 Bft) 96,43 %
20.09.2017 12:52 11,8 C 13,3 C 87 % 1019,1 hPa 0,0 l/m 15,2 km/h (3 Bft) W-SW 248 0 min 0,000 mm 2,0 UV-I 298 W/m 9,7 C 7,2 C 22,5 km/h (4 Bft) 100,00 %
20.09.2017 12:54 12,0 C 13,3 C 86 % 1019,1 hPa 0,0 l/m 12,6 km/h (3 Bft) W 274 2 min 0,000 mm 2,7 UV-I 546 W/m 9,7 C 8,5 C 19,3 km/h (3 Bft) 95,74 %
20.09.2017 12:56 12,3 C 13,3 C 87 % 1019,1 hPa 0,0 l/m 13,9 km/h (3 Bft) W 269 2 min 0,000 mm 2,7 UV-I 697 W/m 10,2 C 8,4 C 19,3 km/h (3 Bft) 98,21 %
20.09.2017 12:58 12,6 C 13,3 C 85 % 1019,0 hPa 0,0 l/m 13,9 km/h (3 Bft) S-SW 194 2 min 0,000 mm 2,6 UV-I 672 W/m 10,1 C 8,7 C 22,5 km/h (4 Bft) 97,44 %
20.09.2017 13:00 12,7 C 13,3 C 83 % 1019,1 hPa 0,0 l/m 16,6 km/h (3 Bft) W-SW 248 2 min 0,228 mm 2,8 UV-I 678 W/m 9,9 C 7,8 C 20,9 km/h (4 Bft) 98,11 %
20.09.2017 13:02 12,8 C 13,3 C 85 % 1019,0 hPa 0,0 l/m 9,4 km/h (2 Bft) SW 234 2 min 0,000 mm 2,9 UV-I 670 W/m 10,3 C 11,0 C 14,5 km/h (3 Bft) 97,37 %
20.09.2017 13:04 12,9 C 13,3 C 82 % 1019,1 hPa 0,0 l/m 16,7 km/h (3 Bft) W-SW 246 2 min 0,000 mm 2,9 UV-I 736 W/m 9,9 C 8,1 C 24,1 km/h (4 Bft) 98,21 %
20.09.2017 13:06 12,9 C 13,3 C 82 % 1019,0 hPa 0,0 l/m 15,7 km/h (3 Bft) W-SW 241 2 min 0,000 mm 2,9 UV-I 767 W/m 9,9 C 8,4 C 22,5 km/h (4 Bft) 94,74 %
20.09.2017 13:08 13,2 C 13,3 C 82 % 1018,9 hPa 0,0 l/m 16,9 km/h (3 Bft) W 270 2 min 0,000 mm 3,0 UV-I 788 W/m 10,2 C 8,4 C 29,0 km/h (5 Bft) 97,87 %
20.09.2017 13:10 13,3 C 13,3 C 81 % 1019,1 hPa 0,0 l/m 17,4 km/h (3 Bft) W 276 2 min 0,000 mm 2,6 UV-I 788 W/m 10,1 C 8,3 C 29,0 km/h (5 Bft) 97,87 %
20.09.2017 13:12 13,2 C 13,3 C 82 % 1018,9 hPa 0,0 l/m 10,3 km/h (2 Bft) W 260 2 min 0,000 mm 1,7 UV-I 399 W/m 10,2 C 11,0 C 22,5 km/h (4 Bft) 100,00 %
20.09.2017 13:14 13,3 C 13,3 C 81 % 1018,9 hPa 0,0 l/m 18,5 km/h (3 Bft) W-SW 239 0 min 0,000 mm 1,7 UV-I 351 W/m 10,1 C 8,0 C 30,6 km/h (5 Bft) 100,00 %
20.09.2017 13:16 13,2 C 13,3 C 81 % 1018,9 hPa 0,0 l/m 15,7 km/h (3 Bft) W-SW 258 0 min 0,000 mm 1,7 UV-I 299 W/m 10,0 C 8,8 C 25,7 km/h (4 Bft) 100,00 %
20.09.2017 13:18 13,2 C 13,3 C 82 % 1018,8 hPa 0,0 l/m 9,9 km/h (2 Bft) S-SW 211 2 min 0,000 mm 2,0 UV-I 455 W/m 10,2 C 11,2 C 17,7 km/h (3 Bft) 98,21 %
20.09.2017 13:20 13,2 C 13,3 C 81 % 1018,8 hPa 0,0 l/m 10,7 km/h (2 Bft) W 259 0 min 0,000 mm 1,7 UV-I 343 W/m 10,0 C 10,8 C 19,3 km/h (3 Bft) 100,00 %
20.09.2017 13:22 13,1 C 13,3 C 81 % 1018,8 hPa 0,0 l/m 9,6 km/h (2 Bft) W-SW 255 0 min 0,000 mm 1,8 UV-I 247 W/m 9,9 C 11,2 C 16,1 km/h (3 Bft) 100,00 %
20.09.2017 13:24 13,2 C 13,3 C 81 % 1018,8 hPa 0,0 l/m 9,7 km/h (2 Bft) W-NW 293 0 min 0,000 mm 2,4 UV-I 264 W/m 10,0 C 11,3 C 19,3 km/h (3 Bft) 100,00 %
20.09.2017 13:26 13,3 C 13,3 C 81 % 1018,7 hPa 0,0 l/m 15,2 km/h (3 Bft) W 273 2 min 0,000 mm 2,6 UV-I 394 W/m 10,1 C 9,1 C 24,1 km/h (4 Bft) 100,00 %
20.09.2017 13:28 13,5 C 13,3 C 81 % 1018,7 hPa 0,0 l/m 11,3 km/h (2 Bft) S-SW 213 2 min 0,000 mm 2,3 UV-I 378 W/m 10,3 C 10,9 C 19,3 km/h (3 Bft) 100,00 %
20.09.2017 13:30 13,7 C 13,3 C 80 % 1018,6 hPa 0,0 l/m 9,3 km/h (2 Bft) W-NW 286 2 min 0,000 mm 2,5 UV-I 428 W/m 10,3 C 12,0 C 19,3 km/h (3 Bft) 100,00 %
20.09.2017 13:32 13,8 C 13,3 C 80 % 1018,7 hPa 0,0 l/m 10,5 km/h (2 Bft) W-SW 242 2 min 0,000 mm 2,4 UV-I 512 W/m 10,4 C 11,6 C 17,7 km/h (3 Bft) 100,00 %
20.09.2017 13:34 13,8 C 13,3 C 78 % 1018,7 hPa 0,0 l/m 13,8 km/h (3 Bft) W 261 2 min 0,000 mm 2,4 UV-I 449 W/m 10,0 C 10,2 C 24,1 km/h (4 Bft) 98,11 %
20.09.2017 13:36 13,8 C 13,3 C 77 % 1018,6 hPa 0,0 l/m 10,0 km/h (2 Bft) SW 221 2 min 0,000 mm 2,6 UV-I 493 W/m 9,8 C 11,8 C 20,9 km/h (4 Bft) 100,00 %
20.09.2017 13:38 13,8 C 13,3 C 77 % 1018,6 hPa 0,0 l/m 10,0 km/h (2 Bft) W-SW 256 2 min 0,000 mm 2,2 UV-I 403 W/m 9,8 C 11,8 C 17,7 km/h (3 Bft) 100,00 %
20.09.2017 13:40 13,9 C 13,3 C 78 % 1018,6 hPa 0,0 l/m 13,0 km/h (3 Bft) W-SW 244 2 min 0,000 mm 2,4 UV-I 744 W/m 10,1 C 10,6 C 20,9 km/h (4 Bft) 100,00 %
20.09.2017 13:42 14,1 C 13,3 C 79 % 1018,5 hPa 0,0 l/m 17,7 km/h (3 Bft) W-SW 248 2 min 0,000 mm 2,3 UV-I 372 W/m 10,5 C 9,2 C 24,1 km/h (4 Bft) 97,87 %
20.09.2017 13:44 14,1 C 13,3 C 77 % 1018,6 hPa 0,0 l/m 23,4 km/h (4 Bft) W-SW 254 0 min 0,000 mm 2,0 UV-I 297 W/m 10,1 C 7,7 C 32,2 km/h (5 Bft) 100,00 %
20.09.2017 13:46 13,8 C 13,3 C 77 % 1018,5 hPa 0,0 l/m 19,1 km/h (3 Bft) W-SW 253 0 min 0,000 mm 2,0 UV-I 336 W/m 9,8 C 8,4 C 25,7 km/h (4 Bft) 100,00 %
20.09.2017 13:48 13,7 C 13,3 C 78 % 1018,5 hPa 0,0 l/m 12,9 km/h (3 Bft) W-SW 241 0 min 0,000 mm 2,4 UV-I 351 W/m 9,9 C 10,4 C 19,3 km/h (3 Bft) 100,00 %
20.09.2017 13:50 13,8 C 13,3 C 78 % 1018,5 hPa 0,0 l/m 15,9 km/h (3 Bft) W-NW 284 2 min 0,000 mm 2,5 UV-I 689 W/m 10,0 C 9,4 C 27,4 km/h (4 Bft) 100,00 %
20.09.2017 13:52 13,8 C 13,3 C 77 % 1018,5 hPa 0,0 l/m 17,6 km/h (3 Bft) SW 229 2 min 0,000 mm 1,6 UV-I 509 W/m 9,8 C 8,9 C 22,5 km/h (4 Bft) 100,00 %
20.09.2017 13:54 13,8 C 13,3 C 78 % 1018,5 hPa 0,0 l/m 11,0 km/h (2 Bft) SW 220 0 min 0,000 mm 1,4 UV-I 227 W/m 10,0 C 11,3 C 17,7 km/h (3 Bft) 95,74 %
20.09.2017 13:56 13,7 C 13,3 C 78 % 1018,5 hPa 0,0 l/m 15,7 km/h (3 Bft) W-SW 246 0 min 0,000 mm 1,7 UV-I 244 W/m 9,9 C 9,4 C 24,1 km/h (4 Bft) 100,00 %
20.09.2017 13:58 13,6 C 13,3 C 78 % 1018,5 hPa 0,0 l/m 9,0 km/h (2 Bft) W-SW 246 0 min 0,000 mm 1,7 UV-I 266 W/m 9,8 C 12,1 C 14,5 km/h (3 Bft) 97,56 %
20.09.2017 14:00 13,5 C 13,3 C 78 % 1018,5 hPa 0,0 l/m 9,6 km/h (2 Bft) S-SW 206 0 min 0,254 mm 1,8 UV-I 265 W/m 9,7 C 11,7 C 14,5 km/h (3 Bft) 100,00 %
20.09.2017 14:02 13,6 C 13,3 C 79 % 1018,5 hPa 0,0 l/m 10,2 km/h (2 Bft) SW 236 0 min 0,000 mm 2,3 UV-I 323 W/m 10,0 C 11,5 C 17,7 km/h (3 Bft) 96,23 %
20.09.2017 14:04 13,7 C 13,3 C 79 % 1018,5 hPa 0,0 l/m 14,9 km/h (3 Bft) W-NW 298 2 min 0,000 mm 2,4 UV-I 650 W/m 10,1 C 9,7 C 25,7 km/h (4 Bft) 100,00 %
20.09.2017 14:06 13,8 C 13,3 C 78 % 1018,5 hPa 0,0 l/m 17,3 km/h (3 Bft) W-SW 248 2 min 0,000 mm 2,1 UV-I 648 W/m 10,0 C 9,0 C 30,6 km/h (5 Bft) 100,00 %
20.09.2017 14:08 13,8 C 13,3 C 78 % 1018,5 hPa 0,0 l/m 14,7 km/h (3 Bft) W-SW 256 2 min 0,000 mm 1,7 UV-I 381 W/m 10,0 C 9,8 C 25,7 km/h (4 Bft) 98,00 %
20.09.2017 14:10 13,6 C 13,3 C 77 % 1018,5 hPa 0,0 l/m 14,3 km/h (3 Bft) W-SW 243 0 min 0,000 mm 1,5 UV-I 350 W/m 9,6 C 9,7 C 25,7 km/h (4 Bft) 94,74 %
20.09.2017 14:12 13,5 C 13,3 C 78 % 1018,4 hPa 0,0 l/m 8,4 km/h (2 Bft) W-SW 242 0 min 0,000 mm 1,4 UV-I 343 W/m 9,7 C 12,3 C 12,9 km/h (3 Bft) 100,00 %
20.09.2017 14:14 13,6 C 13,3 C 79 % 1018,4 hPa 0,0 l/m 7,4 km/h (2 Bft) W-SW 248 0 min 0,000 mm 1,3 UV-I 295 W/m 10,0 C 13,0 C 16,1 km/h (3 Bft) 100,00 %
20.09.2017 14:16 13,6 C 13,3 C 79 % 1018,5 hPa 0,0 l/m 13,3 km/h (3 Bft) W 265 0 min 0,000 mm 1,4 UV-I 295 W/m 10,0 C 10,1 C 24,1 km/h (4 Bft) 97,87 %
20.09.2017 14:18 13,6 C 13,3 C 76 % 1018,5 hPa 0,0 l/m 19,7 km/h (3 Bft) W 279 0 min 0,000 mm 1,6 UV-I 324 W/m 9,4 C 8,0 C 29,0 km/h (5 Bft) 100,00 %
20.09.2017 14:20 13,6 C 13,3 C 76 % 1018,5 hPa 0,0 l/m 12,6 km/h (3 Bft) S-SO 165 2 min 0,000 mm 1,8 UV-I 395 W/m 9,4 C 10,4 C 19,3 km/h (3 Bft) 100,00 %
20.09.2017 14:22 13,7 C 13,3 C 76 % 1018,5 hPa 0,0 l/m 16,4 km/h (3 Bft) W 269 2 min 0,000 mm 1,7 UV-I 405 W/m 9,5 C 9,1 C 27,4 km/h (4 Bft) 100,00 %
20.09.2017 14:24 13,7 C 13,3 C 75 % 1018,6 hPa 0,0 l/m 15,6 km/h (3 Bft) W-SW 257 2 min 0,000 mm 1,7 UV-I 412 W/m 9,3 C 9,4 C 25,7 km/h (4 Bft) 96,61 %
20.09.2017 14:26 13,7 C 13,3 C 75 % 1018,5 hPa 0,0 l/m 18,0 km/h (3 Bft) W-SW 240 0 min 0,000 mm 1,5 UV-I 321 W/m 9,3 C 8,6 C 30,6 km/h (5 Bft) 97,56 %
20.09.2017 14:28 13,7 C 13,3 C 76 % 1018,6 hPa 0,0 l/m 12,6 km/h (3 Bft) W 259 2 min 0,000 mm 1,6 UV-I 357 W/m 9,5 C 10,5 C 19,3 km/h (3 Bft) 96,23 %
20.09.2017 14:30 13,7 C 13,3 C 75 % 1018,6 hPa 0,0 l/m 14,0 km/h (3 Bft) W-SW 245 2 min 0,000 mm 1,6 UV-I 349 W/m 9,3 C 10,0 C 27,4 km/h (4 Bft) 97,37 %
20.09.2017 14:32 13,7 C 13,3 C 75 % 1018,7 hPa 0,0 l/m 16,5 km/h (3 Bft) W-SW 245 2 min 0,000 mm 1,7 UV-I 473 W/m 9,3 C 9,1 C 29,0 km/h (5 Bft) 98,11 %
20.09.2017 14:34 13,7 C 13,3 C 75 % 1018,6 hPa 0,0 l/m 13,9 km/h (3 Bft) W-SW 255 2 min 0,000 mm 1,6 UV-I 545 W/m 9,3 C 10,0 C 22,5 km/h (4 Bft) 95,74 %
20.09.2017 14:36 13,7 C 13,3 C 76 % 1018,6 hPa 0,0 l/m 11,5 km/h (2 Bft) W 270 0 min 0,000 mm 1,7 UV-I 309 W/m 9,5 C 11,0 C 22,5 km/h (4 Bft) 97,56 %
20.09.2017 14:38 13,7 C 13,3 C 75 % 1018,7 hPa 0,0 l/m 14,5 km/h (3 Bft) W-SW 248 0 min 0,000 mm 1,5 UV-I 287 W/m 9,3 C 9,8 C 20,9 km/h (4 Bft) 98,00 %
20.09.2017 14:40 13,8 C 13,3 C 77 % 1018,6 hPa 0,0 l/m 5,8 km/h (2 Bft) SW 234 0 min 0,000 mm 1,6 UV-I 326 W/m 9,8 C 13,8 C 8,0 km/h (2 Bft) 97,87 %
20.09.2017 14:42 13,9 C 13,3 C 77 % 1018,7 hPa 0,0 l/m 15,4 km/h (3 Bft) W-NW 291 2 min 0,000 mm 1,7 UV-I 344 W/m 9,9 C 9,7 C 30,6 km/h (5 Bft) 98,00 %
20.09.2017 14:44 13,9 C 13,3 C 75 % 1018,7 hPa 0,0 l/m 14,2 km/h (3 Bft) W-SW 249 0 min 0,000 mm 1,5 UV-I 322 W/m 9,5 C 10,1 C 20,9 km/h (4 Bft) 95,12 %
20.09.2017 14:46 13,9 C 13,3 C 75 % 1018,7 hPa 0,0 l/m 14,1 km/h (3 Bft) W-SW 256 0 min 0,000 mm 1,5 UV-I 318 W/m 9,5 C 10,2 C 20,9 km/h (4 Bft) 97,56 %
20.09.2017 14:48 13,9 C 13,3 C 74 % 1018,7 hPa 0,0 l/m 15,4 km/h (3 Bft) W-SW 250 2 min 0,000 mm 1,7 UV-I 407 W/m 9,3 C 9,7 C 25,7 km/h (4 Bft) 98,21 %
20.09.2017 14:50 14,1 C 13,3 C 76 % 1018,6 hPa 0,0 l/m 14,6 km/h (3 Bft) W 270 2 min 0,000 mm 2,0 UV-I 469 W/m 9,9 C 10,2 C 24,1 km/h (4 Bft) 98,00 %
20.09.2017 14:52 14,3 C 13,3 C 74 % 1018,7 hPa 0,0 l/m 12,1 km/h (2 Bft) W-NW 290 2 min 0,000 mm 1,8 UV-I 442 W/m 9,7 C 11,4 C 19,3 km/h (3 Bft) 97,44 %
20.09.2017 14:54 14,4 C 13,3 C 74 % 1018,7 hPa 0,0 l/m 18,3 km/h (3 Bft) W-SW 238 2 min 0,000 mm 1,8 UV-I 430 W/m 9,8 C 9,4 C 25,7 km/h (4 Bft) 97,37 %
20.09.2017 14:56 14,3 C 13,3 C 74 % 1018,7 hPa 0,0 l/m 17,3 km/h (3 Bft) W-SW 240 2 min 0,000 mm 1,6 UV-I 392 W/m 9,7 C 9,6 C 29,0 km/h (5 Bft) 98,31 %
20.09.2017 14:58 14,3 C 13,3 C 73 % 1018,7 hPa 0,0 l/m 10,4 km/h (2 Bft) W 280 2 min 0,000 mm 1,7 UV-I 404 W/m 9,5 C 12,2 C 20,9 km/h (4 Bft) 100,00 %
20.09.2017 15:00 14,6 C 13,3 C 75 % 1018,6 hPa 0,0 l/m 10,9 km/h (2 Bft) W-SW 252 2 min 0,254 mm 1,8 UV-I 574 W/m 10,2 C 12,3 C 19,3 km/h (3 Bft) 100,00 %
20.09.2017 15:02 14,5 C 13,3 C 72 % 1018,6 hPa 0,0 l/m 15,9 km/h (3 Bft) W 266 2 min 0,000 mm 1,6 UV-I 466 W/m 9,5 C 10,3 C 25,7 km/h (4 Bft) 100,00 %
20.09.2017 15:04 14,5 C 13,3 C 73 % 1018,6 hPa 0,0 l/m 13,8 km/h (3 Bft) SW 234 2 min 0,000 mm 1,7 UV-I 488 W/m 9,7 C 11,0 C 29,0 km/h (5 Bft) 100,00 %
20.09.2017 15:06 14,5 C 13,3 C 73 % 1018,6 hPa 0,0 l/m 11,2 km/h (2 Bft) W 265 2 min 0,000 mm 1,9 UV-I 512 W/m 9,7 C 12,0 C 19,3 km/h (3 Bft) 100,00 %
20.09.2017 15:08 14,7 C 13,3 C 74 % 1018,6 hPa 0,0 l/m 5,1 km/h (1 Bft) W-NW 291 2 min 0,000 mm 1,7 UV-I 454 W/m 10,1 C 14,7 C 9,7 km/h (2 Bft) 98,00 %
20.09.2017 15:10 14,8 C 13,3 C 74 % 1018,5 hPa 0,0 l/m 5,1 km/h (1 Bft) S 182 2 min 0,000 mm 1,6 UV-I 414 W/m 10,2 C 14,8 C 14,5 km/h (3 Bft) 100,00 %
20.09.2017 15:12 14,8 C 13,3 C 74 % 1018,5 hPa 0,0 l/m 5,1 km/h (1 Bft) W-SW 243 2 min 0,000 mm 1,7 UV-I 479 W/m 10,2 C 14,8 C 12,9 km/h (3 Bft) 100,00 %
20.09.2017 15:14 14,8 C 13,3 C 72 % 1018,5 hPa 0,0 l/m 7,4 km/h (2 Bft) W-NW 290 2 min 0,000 mm 1,7 UV-I 555 W/m 9,8 C 14,2 C 14,5 km/h (3 Bft) 100,00 %
20.09.2017 15:16 14,8 C 13,3 C 72 % 1018,5 hPa 0,0 l/m 9,9 km/h (2 Bft) NO 34 2 min 0,000 mm 1,5 UV-I 383 W/m 9,8 C 12,9 C 24,1 km/h (4 Bft) 98,11 %
20.09.2017 15:18 14,8 C 13,3 C 71 % 1018,4 hPa 0,0 l/m 12,7 km/h (3 Bft) W-SW 250 2 min 0,000 mm 1,5 UV-I 407 W/m 9,6 C 11,8 C 19,3 km/h (3 Bft) 100,00 %
20.09.2017 15:20 14,7 C 13,3 C 71 % 1018,5 hPa 0,0 l/m 14,0 km/h (3 Bft) W-SW 245 2 min 0,000 mm 1,4 UV-I 364 W/m 9,5 C 11,2 C 22,5 km/h (4 Bft) 100,00 %
20.09.2017 15:22 14,6 C 13,3 C 71 % 1018,4 hPa 0,0 l/m 14,7 km/h (3 Bft) W 264 2 min 0,000 mm 1,3 UV-I 314 W/m 9,4 C 10,8 C 22,5 km/h (4 Bft) 100,00 %
20.09.2017 15:24 14,5 C 13,3 C 70 % 1018,4 hPa 0,0 l/m 15,0 km/h (3 Bft) SW 235 0 min 0,000 mm 1,2 UV-I 265 W/m 9,1 C 10,6 C 24,1 km/h (4 Bft) 100,00 %
20.09.2017 15:26 14,4 C 13,3 C 70 % 1018,5 hPa 0,0 l/m 14,7 km/h (3 Bft) SW 235 0 min 0,000 mm 1,2 UV-I 250 W/m 9,0 C 10,6 C 22,5 km/h (4 Bft) 98,21 %
20.09.2017 15:28 14,3 C 13,3 C 71 % 1018,5 hPa 0,0 l/m 14,7 km/h (3 Bft) W-SW 242 0 min 0,000 mm 1,2 UV-I 272 W/m 9,1 C 10,4 C 20,9 km/h (4 Bft) 100,00 %
20.09.2017 15:30 14,2 C 13,3 C 72 % 1018,4 hPa 0,0 l/m 12,2 km/h (2 Bft) W 280 0 min 0,000 mm 1,2 UV-I 266 W/m 9,2 C 11,3 C 20,9 km/h (4 Bft) 100,00 %
20.09.2017 15:32 14,2 C 13,3 C 72 % 1018,5 hPa 0,0 l/m 12,4 km/h (3 Bft) W-SW 244 0 min 0,000 mm 1,2 UV-I 274 W/m 9,2 C 11,2 C 17,7 km/h (3 Bft) 100,00 %
20.09.2017 15:34 14,2 C 13,3 C 72 % 1018,5 hPa 0,0 l/m 12,4 km/h (3 Bft) NW 307 0 min 0,000 mm 1,2 UV-I 260 W/m 9,2 C 11,2 C 20,9 km/h (4 Bft) 100,00 %
20.09.2017 15:36 14,2 C 13,3 C 73 % 1018,5 hPa 0,0 l/m 9,4 km/h (2 Bft) W-SW 257 0 min 0,000 mm 1,1 UV-I 241 W/m 9,4 C 12,5 C 14,5 km/h (3 Bft) 100,00 %
20.09.2017 15:38 14,2 C 13,3 C 73 % 1018,5 hPa 0,0 l/m 8,3 km/h (2 Bft) W-SW 242 0 min 0,000 mm 1,1 UV-I 256 W/m 9,4 C 13,1 C 16,1 km/h (3 Bft) 100,00 %
20.09.2017 15:40 14,1 C 13,3 C 73 % 1018,5 hPa 0,0 l/m 14,7 km/h (3 Bft) SW 227 0 min 0,000 mm 1,1 UV-I 269 W/m 9,3 C 10,2 C 20,9 km/h (4 Bft) 100,00 %
20.09.2017 15:42 14,1 C 13,3 C 73 % 1018,6 hPa 0,0 l/m 11,0 km/h (2 Bft) W-NW 296 0 min 0,000 mm 1,1 UV-I 265 W/m 9,3 C 11,7 C 17,7 km/h (3 Bft) 100,00 %
20.09.2017 15:44 14,2 C 13,3 C 74 % 1018,5 hPa 0,0 l/m 14,0 km/h (3 Bft) W-NW 297 0 min 0,000 mm 1,1 UV-I 279 W/m 9,6 C 10,6 C 20,9 km/h (4 Bft) 100,00 %
20.09.2017 15:46 14,2 C 13,3 C 73 % 1018,5 hPa 0,0 l/m 13,9 km/h (3 Bft) W-NW 285 2 min 0,000 mm 1,1 UV-I 278 W/m 9,4 C 10,6 C 20,9 km/h (4 Bft) 98,11 %
20.09.2017 15:48 14,2 C 13,3 C 73 % 1018,5 hPa 0,0 l/m 8,8 km/h (2 Bft) W-SW 255 2 min 0,000 mm 1,1 UV-I 285 W/m 9,4 C 12,8 C 12,9 km/h (3 Bft) 97,56 %
20.09.2017 15:50 14,2 C 13,3 C 75 % 1018,5 hPa 0,0 l/m 10,4 km/h (2 Bft) W 261 2 min 0,000 mm 1,1 UV-I 300 W/m 9,8 C 12,0 C 14,5 km/h (3 Bft) 100,00 %
20.09.2017 15:52 14,3 C 13,3 C 73 % 1018,5 hPa 0,0 l/m 8,4 km/h (2 Bft) SW 225 2 min 0,000 mm 1,3 UV-I 432 W/m 9,5 C 13,1 C 14,5 km/h (3 Bft) 97,56 %
20.09.2017 15:54 14,4 C 13,3 C 75 % 1018,5 hPa 0,0 l/m 11,2 km/h (2 Bft) W-SW 248 2 min 0,000 mm 1,1 UV-I 318 W/m 10,0 C 11,9 C 17,7 km/h (3 Bft) 100,00 %
20.09.2017 15:56 14,4 C 13,3 C 73 % 1018,5 hPa 0,0 l/m 17,2 km/h (3 Bft) S-SW 213 2 min 0,000 mm 1,1 UV-I 272 W/m 9,6 C 9,8 C 22,5 km/h (4 Bft) 100,00 %
20.09.2017 15:58 14,3 C 13,3 C 72 % 1018,4 hPa 0,0 l/m 15,6 km/h (3 Bft) W-SW 253 0 min 0,000 mm 1,0 UV-I 246 W/m 9,3 C 10,1 C 22,5 km/h (4 Bft) 100,00 %
20.09.2017 16:00 14,2 C 13,3 C 72 % 1018,4 hPa 0,0 l/m 11,6 km/h (2 Bft) SW 229 0 min 0,203 mm 1,0 UV-I 225 W/m 9,2 C 11,5 C 19,3 km/h (3 Bft) 100,00 %
20.09.2017 16:02 14,1 C 13,3 C 72 % 1018,4 hPa 0,0 l/m 12,7 km/h (3 Bft) W 270 0 min 0,000 mm 0,9 UV-I 200 W/m 9,1 C 11,0 C 22,5 km/h (4 Bft) 100,00 %
20.09.2017 16:04 14,1 C 13,3 C 73 % 1018,4 hPa 0,0 l/m 11,5 km/h (2 Bft) W-SW 257 0 min 0,000 mm 0,9 UV-I 185 W/m 9,3 C 11,4 C 19,3 km/h (3 Bft) 97,87 %
20.09.2017 16:06 14,0 C 13,3 C 73 % 1018,4 hPa 0,0 l/m 13,2 km/h (3 Bft) W-SW 254 0 min 0,000 mm 0,8 UV-I 167 W/m 9,2 C 10,6 C 25,7 km/h (4 Bft) 100,00 %
20.09.2017 16:08 14,0 C 13,3 C 74 % 1018,4 hPa 0,0 l/m 12,5 km/h (3 Bft) W-SW 254 0 min 0,000 mm 0,8 UV-I 154 W/m 9,4 C 10,9 C 19,3 km/h (3 Bft) 100,00 %
20.09.2017 16:10 13,9 C 13,3 C 74 % 1018,4 hPa 0,0 l/m 7,1 km/h (2 Bft) NW 305 0 min 0,000 mm 0,8 UV-I 151 W/m 9,3 C 13,5 C 16,1 km/h (3 Bft) 100,00 %
20.09.2017 16:12 13,9 C 13,3 C 75 % 1018,4 hPa 0,0 l/m 9,1 km/h (2 Bft) W 263 0 min 0,000 mm 0,8 UV-I 170 W/m 9,5 C 12,4 C 17,7 km/h (3 Bft) 98,18 %
20.09.2017 16:14 13,9 C 13,3 C 74 % 1018,4 hPa 0,0 l/m 13,4 km/h (3 Bft) W-SW 252 0 min 0,000 mm 0,8 UV-I 182 W/m 9,3 C 10,4 C 22,5 km/h (4 Bft) 97,44 %
20.09.2017 16:16 13,9 C 13,3 C 74 % 1018,4 hPa 0,0 l/m 11,9 km/h (2 Bft) W-NW 292 0 min 0,000 mm 0,7 UV-I 193 W/m 9,3 C 11,0 C 20,9 km/h (4 Bft) 96,00 %
20.09.2017 16:18 13,9 C 13,3 C 74 % 1018,4 hPa 0,0 l/m 7,7 km/h (2 Bft) W-SW 253 0 min 0,000 mm 0,7 UV-I 199 W/m 9,3 C 13,1 C 12,9 km/h (3 Bft) 94,00 %
20.09.2017 16:20 13,9 C 13,3 C 74 % 1018,4 hPa 0,0 l/m 14,2 km/h (3 Bft) S-SW 208 0 min 0,000 mm 0,6 UV-I 197 W/m 9,3 C 10,1 C 24,1 km/h (4 Bft) 100,00 %
20.09.2017 16:22 13,9 C 13,3 C 74 % 1018,5 hPa 0,0 l/m 17,7 km/h (3 Bft) W-SW 256 0 min 0,000 mm 0,6 UV-I 230 W/m 9,3 C 9,0 C 22,5 km/h (4 Bft) 95,45 %
20.09.2017 16:24 14,0 C 13,3 C 75 % 1018,4 hPa 0,0 l/m 12,9 km/h (3 Bft) W-SW 242 2 min 0,000 mm 0,7 UV-I 256 W/m 9,6 C 10,8 C 20,9 km/h (4 Bft) 92,45 %
20.09.2017 16:26 14,1 C 13,3 C 75 % 1018,4 hPa 0,0 l/m 12,8 km/h (3 Bft) W-SW 247 2 min 0,000 mm 0,7 UV-I 306 W/m 9,7 C 10,9 C 17,7 km/h (3 Bft) 96,43 %
20.09.2017 16:28 14,1 C 13,3 C 76 % 1018,4 hPa 0,0 l/m 15,0 km/h (3 Bft) W 263 2 min 0,000 mm 0,7 UV-I 281 W/m 9,9 C 10,1 C 22,5 km/h (4 Bft) 86,96 %
20.09.2017 16:30 14,2 C 13,3 C 75 % 1018,4 hPa 0,0 l/m 14,1 km/h (3 Bft) W-SW 257 2 min 0,000 mm 0,7 UV-I 284 W/m 9,8 C 10,5 C 22,5 km/h (4 Bft) 95,38 %
20.09.2017 16:32 14,2 C 13,3 C 75 % 1018,4 hPa 0,0 l/m 13,9 km/h (3 Bft) W 277 2 min 0,000 mm 0,7 UV-I 240 W/m 9,8 C 10,6 C 19,3 km/h (3 Bft) 96,00 %
20.09.2017 16:34 14,2 C 13,3 C 75 % 1018,4 hPa 0,0 l/m 14,8 km/h (3 Bft) W-SW 244 2 min 0,000 mm 0,7 UV-I 234 W/m 9,8 C 10,3 C 22,5 km/h (4 Bft) 95,12 %
20.09.2017 16:36 14,2 C 13,3 C 75 % 1018,4 hPa 0,0 l/m 11,9 km/h (2 Bft) W-SW 239 2 min 0,000 mm 0,7 UV-I 250 W/m 9,8 C 11,4 C 19,3 km/h (3 Bft) 93,62 %
20.09.2017 16:38 14,2 C 13,3 C 76 % 1018,4 hPa 0,0 l/m 12,2 km/h (2 Bft) W-NW 303 0 min 0,000 mm 0,6 UV-I 215 W/m 10,0 C 11,3 C 19,3 km/h (3 Bft) 92,45 %
20.09.2017 16:40 14,2 C 13,3 C 76 % 1018,4 hPa 0,0 l/m 9,1 km/h (2 Bft) W-SW 254 0 min 0,000 mm 0,6 UV-I 208 W/m 10,0 C 12,7 C 16,1 km/h (3 Bft) 95,12 %
20.09.2017 16:43 14,2 C 13,3 C 74 % 1018,4 hPa 0,0 l/m 12,4 km/h (3 Bft) W-SW 244 3 min 0,000 mm 0,6 UV-I 218 W/m 9,6 C 11,2 C 25,7 km/h (4 Bft) 96,10 %
20.09.2017 16:44 14,2 C 13,3 C 75 % 1018,4 hPa 0,0 l/m 6,4 km/h (2 Bft) SW 232 1 min 0,000 mm 0,6 UV-I 242 W/m 9,8 C 14,2 C 8,0 km/h (2 Bft) 86,96 %
20.09.2017 16:46 14,2 C 13,3 C 75 % 1018,4 hPa 0,0 l/m 10,2 km/h (2 Bft) W-SW 244 2 min 0,000 mm 0,5 UV-I 243 W/m 9,8 C 12,1 C 14,5 km/h (3 Bft) 94,44 %
20.09.2017 16:48 14,2 C 13,3 C 76 % 1018,4 hPa 0,0 l/m 10,2 km/h (2 Bft) W-SW 244 2 min 0,000 mm 0,5 UV-I 203 W/m 10,0 C 12,1 C 14,5 km/h (3 Bft) 98,00 %
20.09.2017 16:50 14,2 C 13,3 C 77 % 1018,4 hPa 0,0 l/m 11,6 km/h (2 Bft) W 264 0 min 0,000 mm 0,5 UV-I 190 W/m 10,2 C 11,5 C 17,7 km/h (3 Bft) 98,00 %
20.09.2017 16:52 14,1 C 13,3 C 76 % 1018,4 hPa 0,0 l/m 13,4 km/h (3 Bft) W-SW 254 0 min 0,000 mm 0,5 UV-I 191 W/m 9,9 C 10,7 C 19,3 km/h (3 Bft) 98,00 %
20.09.2017 16:54 14,1 C 13,3 C 76 % 1018,4 hPa 0,0 l/m 15,0 km/h (3 Bft) W-SW 244 0 min 0,000 mm 0,5 UV-I 190 W/m 9,9 C 10,1 C 20,9 km/h (4 Bft) 97,56 %
20.09.2017 16:56 13,9 C 13,3 C 77 % 1018,4 hPa 0,0 l/m 13,7 km/h (3 Bft) W 272 0 min 0,000 mm 0,5 UV-I 177 W/m 9,9 C 10,3 C 22,5 km/h (4 Bft) 97,37 %
20.09.2017 16:58 13,9 C 13,3 C 77 % 1018,4 hPa 0,0 l/m 11,9 km/h (2 Bft) W-NW 289 0 min 0,000 mm 0,5 UV-I 182 W/m 9,9 C 11,0 C 17,7 km/h (3 Bft) 98,11 %
20.09.2017 17:00 13,9 C 13,3 C 77 % 1018,5 hPa 0,0 l/m 13,5 km/h (3 Bft) W-SW 251 2 min 0,000 mm 0,1 UV-I 188 W/m 9,9 C 10,4 C 22,5 km/h (4 Bft) 98,00 %
20.09.2017 17:02 13,8 C 13,3 C 77 % 1018,5 hPa 0,0 l/m 14,7 km/h (3 Bft) W-SW 257 0 min 0,153 mm 0,0 UV-I 174 W/m 9,8 C 9,8 C 20,9 km/h (4 Bft) 95,12 %
20.09.2017 17:04 13,8 C 13,3 C 77 % 1018,5 hPa 0,0 l/m 10,4 km/h (2 Bft) W 267 0 min 0,000 mm 0,0 UV-I 175 W/m 9,8 C 11,6 C 17,7 km/h (3 Bft) 94,92 %
20.09.2017 17:06 13,8 C 13,3 C 77 % 1018,6 hPa 0,0 l/m 10,4 km/h (2 Bft) SW 231 0 min 0,000 mm 0,0 UV-I 149 W/m 9,8 C 11,6 C 14,5 km/h (3 Bft) 95,45 %
20.09.2017 17:08 13,8 C 13,3 C 78 % 1018,6 hPa 0,0 l/m 10,9 km/h (2 Bft) W-SW 242 0 min 0,000 mm 0,0 UV-I 139 W/m 10,0 C 11,4 C 14,5 km/h (3 Bft) 97,56 %
20.09.2017 17:10 13,8 C 13,3 C 76 % 1018,6 hPa 0,0 l/m 14,9 km/h (3 Bft) W-SW 253 0 min 0,000 mm 0,0 UV-I 137 W/m 9,6 C 9,8 C 22,5 km/h (4 Bft) 98,21 %
20.09.2017 17:12 13,7 C 13,3 C 77 % 1018,6 hPa 0,0 l/m 10,4 km/h (2 Bft) W-SW 248 0 min 0,000 mm 0,0 UV-I 133 W/m 9,7 C 11,5 C 17,7 km/h (3 Bft) 97,73 %
20.09.2017 17:14 13,7 C 13,3 C 77 % 1018,6 hPa 0,0 l/m 11,0 km/h (2 Bft) W-NW 296 0 min 0,000 mm 0,0 UV-I 134 W/m 9,7 C 11,2 C 17,7 km/h (3 Bft) 97,56 %
20.09.2017 17:16 13,7 C 13,3 C 77 % 1018,6 hPa 0,0 l/m 12,4 km/h (3 Bft) W-SW 240 0 min 0,000 mm 0,0 UV-I 137 W/m 9,7 C 10,6 C 19,3 km/h (3 Bft) 98,00 %
20.09.2017 17:18 13,7 C 13,3 C 77 % 1018,6 hPa 0,0 l/m 14,2 km/h (3 Bft) SW 234 0 min 0,000 mm 0,0 UV-I 131 W/m 9,7 C 9,9 C 19,3 km/h (3 Bft) 98,00 %
20.09.2017 17:20 13,7 C 13,3 C 77 % 1018,6 hPa 0,0 l/m 13,5 km/h (3 Bft) SW 236 0 min 0,000 mm 0,0 UV-I 122 W/m 9,7 C 10,2 C 22,5 km/h (4 Bft) 94,74 %
20.09.2017 17:22 13,7 C 13,3 C 78 % 1018,6 hPa 0,0 l/m 10,4 km/h (2 Bft) W 260 0 min 0,000 mm 0,0 UV-I 118 W/m 9,9 C 11,5 C 16,1 km/h (3 Bft) 98,11 %
20.09.2017 17:24 13,7 C 13,3 C 78 % 1018,6 hPa 0,0 l/m 7,2 km/h (2 Bft) W-SW 257 0 min 0,000 mm 0,0 UV-I 119 W/m 9,9 C 13,2 C 11,3 km/h (2 Bft) 98,00 %
20.09.2017 17:26 13,7 C 13,3 C 78 % 1018,6 hPa 0,0 l/m 12,8 km/h (3 Bft) W-SW 246 0 min 0,000 mm 0,0 UV-I 115 W/m 9,9 C 10,4 C 16,1 km/h (3 Bft) 97,56 %
20.09.2017 17:28 13,6 C 13,3 C 78 % 1018,6 hPa 0,0 l/m 9,4 km/h (2 Bft) W-SW 238 0 min 0,000 mm 0,0 UV-I 111 W/m 9,8 C 11,9 C 14,5 km/h (3 Bft) 96,23 %
20.09.2017 17:30 13,6 C 13,3 C 78 % 1018,6 hPa 0,0 l/m 8,6 km/h (2 Bft) W-SW 237 0 min 0,000 mm 0,0 UV-I 109 W/m 9,8 C 12,3 C 14,5 km/h (3 Bft) 95,74 %
20.09.2017 17:32 13,6 C 13,3 C 78 % 1018,6 hPa 0,0 l/m 8,0 km/h (2 Bft) W-SW 247 0 min 0,000 mm 0,0 UV-I 107 W/m 9,8 C 12,6 C 14,5 km/h (3 Bft) 100,00 %
20.09.2017 17:34 13,6 C 13,3 C 78 % 1018,5 hPa 0,0 l/m 9,5 km/h (2 Bft) W 263 0 min 0,000 mm 0,0 UV-I 105 W/m 9,8 C 11,8 C 14,5 km/h (3 Bft) 100,00 %
20.09.2017 17:36 13,6 C 13,3 C 78 % 1018,6 hPa 0,0 l/m 8,9 km/h (2 Bft) SW 216 0 min 0,000 mm 0,0 UV-I 101 W/m 9,8 C 12,1 C 14,5 km/h (3 Bft) 100,00 %
20.09.2017 17:38 13,6 C 13,3 C 79 % 1018,6 hPa 0,0 l/m 7,9 km/h (2 Bft) W-SW 244 0 min 0,000 mm 0,0 UV-I 94 W/m 10,0 C 12,7 C 12,9 km/h (3 Bft) 100,00 %
20.09.2017 17:40 13,5 C 13,3 C 79 % 1018,6 hPa 0,0 l/m 10,5 km/h (2 Bft) S-SW 205 0 min 0,000 mm 0,0 UV-I 90 W/m 9,9 C 11,2 C 16,1 km/h (3 Bft) 98,11 %
20.09.2017 17:42 13,4 C 13,3 C 79 % 1018,6 hPa 0,0 l/m 13,2 km/h (3 Bft) W-SW 249 0 min 0,000 mm 0,0 UV-I 85 W/m 9,8 C 9,9 C 20,9 km/h (4 Bft) 100,00 %
20.09.2017 17:44 13,4 C 13,3 C 79 % 1018,6 hPa 0,0 l/m 11,4 km/h (2 Bft) W-SW 237 0 min 0,000 mm 0,0 UV-I 80 W/m 9,8 C 10,7 C 19,3 km/h (3 Bft) 100,00 %
20.09.2017 17:46 13,3 C 13,3 C 79 % 1018,6 hPa 0,0 l/m 11,1 km/h (2 Bft) W-SW 244 0 min 0,000 mm 0,0 UV-I 73 W/m 9,7 C 10,7 C 17,7 km/h (3 Bft) 100,00 %
20.09.2017 17:48 13,3 C 13,3 C 80 % 1018,6 hPa 0,0 l/m 10,4 km/h (2 Bft) SW 227 0 min 0,000 mm 0,0 UV-I 60 W/m 9,9 C 11,0 C 17,7 km/h (3 Bft) 100,00 %
20.09.2017 17:50 13,2 C 13,3 C 80 % 1018,6 hPa 0,0 l/m 12,8 km/h (3 Bft) SW 214 0 min 0,000 mm 0,0 UV-I 46 W/m 9,8 C 9,9 C 16,1 km/h (3 Bft) 100,00 %
20.09.2017 17:52 13,2 C 13,3 C 80 % 1018,6 hPa 0,0 l/m 9,5 km/h (2 Bft) S-SW 208 0 min 0,000 mm 0,0 UV-I 36 W/m 9,8 C 11,4 C 14,5 km/h (3 Bft) 100,00 %
20.09.2017 17:54 13,2 C 13,3 C 80 % 1018,7 hPa 0,0 l/m 11,9 km/h (2 Bft) W-SW 239 0 min 0,000 mm 0,0 UV-I 28 W/m 9,8 C 10,2 C 16,1 km/h (3 Bft) 100,00 %
20.09.2017 17:56 13,1 C 13,3 C 80 % 1018,7 hPa 0,0 l/m 10,6 km/h (2 Bft) SW 233 0 min 0,000 mm 0,0 UV-I 26 W/m 9,7 C 10,7 C 14,5 km/h (3 Bft) 100,00 %
20.09.2017 17:58 13,1 C 13,3 C 81 % 1018,7 hPa 0,0 l/m 7,8 km/h (2 Bft) W 259 0 min 0,000 mm 0,0 UV-I 31 W/m 9,9 C 12,2 C 14,5 km/h (3 Bft) 100,00 %
20.09.2017 18:00 13,1 C 13,3 C 81 % 1018,7 hPa 0,0 l/m 6,2 km/h (2 Bft) SW 229 0 min 0,076 mm 0,0 UV-I 40 W/m 9,9 C 13,1 C 9,7 km/h (2 Bft) 97,37 %
20.09.2017 18:02 13,0 C 13,3 C 81 % 1018,7 hPa 0,0 l/m 7,7 km/h (2 Bft) W 259 0 min 0,000 mm 0,0 UV-I 44 W/m 9,8 C 12,2 C 14,5 km/h (3 Bft) 100,00 %
20.09.2017 18:04 13,0 C 13,3 C 81 % 1018,6 hPa 0,0 l/m 13,5 km/h (3 Bft) W-SW 257 0 min 0,000 mm 0,0 UV-I 44 W/m 9,8 C 9,3 C 19,3 km/h (3 Bft) 100,00 %
20.09.2017 18:06 13,0 C 13,3 C 81 % 1018,6 hPa 0,0 l/m 14,0 km/h (3 Bft) SW 235 0 min 0,000 mm 0,0 UV-I 43 W/m 9,8 C 9,1 C 19,3 km/h (3 Bft) 98,11 %
20.09.2017 18:08 12,9 C 13,3 C 80 % 1018,7 hPa 0,0 l/m 13,5 km/h (3 Bft) W-SW 257 0 min 0,000 mm 0,0 UV-I 40 W/m 9,5 C 9,2 C 25,7 km/h (4 Bft) 100,00 %
20.09.2017 18:10 12,9 C 13,3 C 79 % 1018,7 hPa 0,0 l/m 13,0 km/h (3 Bft) SW 227 0 min 0,000 mm 0,0 UV-I 35 W/m 9,3 C 9,4 C 17,7 km/h (3 Bft) 98,08 %
20.09.2017 18:12 12,9 C 13,3 C 79 % 1018,7 hPa 0,0 l/m 10,1 km/h (2 Bft) W-SW 255 0 min 0,000 mm 0,0 UV-I 31 W/m 9,3 C 10,7 C 14,5 km/h (3 Bft) 97,62 %
20.09.2017 18:14 12,9 C 13,3 C 79 % 1018,7 hPa 0,0 l/m 11,3 km/h (2 Bft) W-SW 252 0 min 0,000 mm 0,0 UV-I 29 W/m 9,3 C 10,2 C 14,5 km/h (3 Bft) 96,00 %
20.09.2017 18:16 12,8 C 13,3 C 79 % 1018,7 hPa 0,0 l/m 13,0 km/h (3 Bft) SW 227 0 min 0,000 mm 0,0 UV-I 30 W/m 9,2 C 9,3 C 19,3 km/h (3 Bft) 95,12 %
20.09.2017 18:18 12,8 C 13,3 C 79 % 1018,7 hPa 0,0 l/m 13,5 km/h (3 Bft) W 269 0 min 0,000 mm 0,0 UV-I 29 W/m 9,2 C 9,1 C 20,9 km/h (4 Bft) 96,43 %
20.09.2017 18:20 12,7 C 13,3 C 80 % 1018,8 hPa 0,0 l/m 13,8 km/h (3 Bft) SW 220 0 min 0,000 mm 0,0 UV-I 28 W/m 9,3 C 8,9 C 22,5 km/h (4 Bft) 100,00 %
20.09.2017 18:22 12,6 C 13,3 C 81 % 1018,8 hPa 0,0 l/m 17,0 km/h (3 Bft) W-SW 238 0 min 0,000 mm 0,0 UV-I 28 W/m 9,4 C 7,6 C 25,7 km/h (4 Bft) 95,45 %
20.09.2017 18:24 12,4 C 13,3 C 82 % 1018,8 hPa 0,0 l/m 16,4 km/h (3 Bft) SW 236 0 min 0,000 mm 0,0 UV-I 27 W/m 9,4 C 7,5 C 24,1 km/h (4 Bft) 97,56 %
20.09.2017 18:26 12,3 C 13,3 C 83 % 1018,8 hPa 0,0 l/m 13,2 km/h (3 Bft) W-SW 237 0 min 0,000 mm 0,0 UV-I 25 W/m 9,5 C 8,6 C 20,9 km/h (4 Bft) 98,11 %
20.09.2017 18:28 12,2 C 13,3 C 84 % 1018,8 hPa 0,0 l/m 14,4 km/h (3 Bft) S-SW 204 0 min 0,000 mm 0,0 UV-I 25 W/m 9,6 C 8,0 C 20,9 km/h (4 Bft) 98,00 %
20.09.2017 18:30 12,1 C 13,3 C 84 % 1018,9 hPa 0,0 l/m 12,3 km/h (3 Bft) W-SW 238 0 min 0,000 mm 0,0 UV-I 22 W/m 9,5 C 8,8 C 19,3 km/h (3 Bft) 98,00 %
20.09.2017 18:32 11,9 C 13,3 C 85 % 1018,9 hPa 0,0 l/m 13,1 km/h (3 Bft) W-SW 244 0 min 0,000 mm 0,0 UV-I 21 W/m 9,5 C 8,2 C 24,1 km/h (4 Bft) 97,56 %
20.09.2017 18:34 11,9 C 13,9 C 85 % 1018,9 hPa 0,0 l/m 9,8 km/h (2 Bft) W-SW 241 0 min 0,000 mm 0,0 UV-I 19 W/m 9,5 C 9,8 C 12,9 km/h (3 Bft) 98,00 %
20.09.2017 18:36 11,8 C 13,3 C 85 % 1018,9 hPa 0,0 l/m 11,4 km/h (2 Bft) SW 226 0 min 0,000 mm 0,0 UV-I 19 W/m 9,4 C 8,9 C 16,1 km/h (3 Bft) 97,37 %
20.09.2017 18:38 11,8 C 13,3 C 86 % 1018,9 hPa 0,0 l/m 12,9 km/h (3 Bft) SW 219 0 min 0,000 mm 0,0 UV-I 18 W/m 9,5 C 8,2 C 17,7 km/h (3 Bft) 96,61 %
20.09.2017 18:40 11,7 C 13,3 C 86 % 1018,9 hPa 0,0 l/m 11,7 km/h (2 Bft) S-SW 207 0 min 0,000 mm 0,0 UV-I 18 W/m 9,4 C 8,6 C 16,1 km/h (3 Bft) 97,37 %
20.09.2017 18:42 11,7 C 13,3 C 86 % 1018,9 hPa 0,0 l/m 14,6 km/h (3 Bft) SW 236 0 min 0,000 mm 0,0 UV-I 18 W/m 9,4 C 7,4 C 20,9 km/h (4 Bft) 98,00 %
20.09.2017 18:44 11,6 C 13,3 C 86 % 1018,9 hPa 0,0 l/m 11,5 km/h (2 Bft) W-SW 244 0 min 0,000 mm 0,0 UV-I 18 W/m 9,3 C 8,6 C 17,7 km/h (3 Bft) 100,00 %
20.09.2017 18:46 11,6 C 13,9 C 86 % 1018,8 hPa 0,0 l/m 11,0 km/h (2 Bft) S-SW 209 0 min 0,000 mm 0,0 UV-I 18 W/m 9,3 C 8,8 C 17,7 km/h (3 Bft) 100,00 %
20.09.2017 18:48 11,5 C 13,3 C 86 % 1018,9 hPa 0,0 l/m 13,6 km/h (3 Bft) W-SW 251 0 min 0,000 mm 0,0 UV-I 16 W/m 9,2 C 7,5 C 19,3 km/h (3 Bft) 100,00 %
20.09.2017 18:50 11,4 C 13,9 C 86 % 1018,9 hPa 0,0 l/m 11,5 km/h (2 Bft) W-SW 258 0 min 0,000 mm 0,0 UV-I 12 W/m 9,1 C 8,4 C 17,7 km/h (3 Bft) 100,00 %
20.09.2017 18:52 11,4 C 13,3 C 86 % 1018,9 hPa 0,0 l/m 15,3 km/h (3 Bft) SW 232 0 min 0,000 mm 0,0 UV-I 12 W/m 9,1 C 6,7 C 20,9 km/h (4 Bft) 100,00 %
20.09.2017 18:54 11,4 C 13,3 C 85 % 1018,9 hPa 0,0 l/m 13,0 km/h (3 Bft) W-SW 257 2 min 0,000 mm 0,0 UV-I 11 W/m 9,0 C 7,7 C 22,5 km/h (4 Bft) 100,00 %
20.09.2017 18:56 11,4 C 13,9 C 85 % 1018,9 hPa 0,0 l/m 13,4 km/h (3 Bft) W-SW 242 0 min 0,000 mm 0,0 UV-I 10 W/m 9,0 C 7,5 C 19,3 km/h (3 Bft) 100,00 %
20.09.2017 18:58 11,3 C 13,9 C 85 % 1018,9 hPa 0,0 l/m 12,7 km/h (3 Bft) W 263 0 min 0,000 mm 0,0 UV-I 9 W/m 8,9 C 7,7 C 17,7 km/h (3 Bft) 100,00 %
20.09.2017 19:00 11,3 C 13,3 C 86 % 1019,0 hPa 0,0 l/m 13,2 km/h (3 Bft) W-SW 252 0 min 0,000 mm 0,0 UV-I 8 W/m 9,0 C 7,5 C 19,3 km/h (3 Bft) 100,00 %
20.09.2017 19:02 11,3 C 13,3 C 85 % 1019,0 hPa 0,0 l/m 13,2 km/h (3 Bft) SW 230 0 min 0,025 mm 0,0 UV-I 7 W/m 8,9 C 7,5 C 20,9 km/h (4 Bft) 100,00 %
20.09.2017 19:04 11,3 C 13,9 C 86 % 1019,1 hPa 0,0 l/m 12,4 km/h (3 Bft) W-SW 256 0 min 0,000 mm 0,0 UV-I 6 W/m 9,0 C 7,8 C 19,3 km/h (3 Bft) 100,00 %
20.09.2017 19:06 11,3 C 13,9 C 86 % 1019,1 hPa 0,0 l/m 13,8 km/h (3 Bft) W 271 0 min 0,000 mm 0,0 UV-I 5 W/m 9,0 C 7,2 C 20,9 km/h (4 Bft) 100,00 %
20.09.2017 19:08 11,3 C 13,9 C 85 % 1019,1 hPa 0,0 l/m 13,7 km/h (3 Bft) W-SW 251 0 min 0,000 mm 0,0 UV-I 5 W/m 8,9 C 7,2 C 19,3 km/h (3 Bft) 100,00 %
20.09.2017 19:10 11,3 C 13,9 C 85 % 1019,2 hPa 0,0 l/m 9,2 km/h (2 Bft) SW 236 0 min 0,000 mm 0,0 UV-I 5 W/m 8,9 C 9,5 C 16,1 km/h (3 Bft) 100,00 %
20.09.2017 19:12 11,4 C 13,3 C 85 % 1019,2 hPa 0,0 l/m 11,8 km/h (2 Bft) W-SW 247 0 min 0,000 mm 0,0 UV-I 5 W/m 9,0 C 8,2 C 17,7 km/h (3 Bft) 98,11 %
20.09.2017 19:14 11,4 C 13,9 C 85 % 1019,2 hPa 0,0 l/m 12,2 km/h (2 Bft) SW 216 0 min 0,000 mm 0,0 UV-I 5 W/m 9,0 C 8,0 C 22,5 km/h (4 Bft) 100,00 %
20.09.2017 19:16 11,4 C 13,3 C 85 % 1019,3 hPa 0,0 l/m 20,0 km/h (4 Bft) W 267 0 min 0,000 mm 0,0 UV-I 5 W/m 9,0 C 5,1 C 27,4 km/h (4 Bft) 100,00 %
20.09.2017 19:18 11,4 C 13,9 C 85 % 1019,4 hPa 0,0 l/m 13,4 km/h (3 Bft) W 279 0 min 0,000 mm 0,0 UV-I 5 W/m 9,0 C 7,5 C 19,3 km/h (3 Bft) 100,00 %
20.09.2017 19:20 11,4 C 13,9 C 85 % 1019,4 hPa 0,0 l/m 13,7 km/h (3 Bft) SW 229 0 min 0,000 mm 0,0 UV-I 0 W/m 9,0 C 7,4 C 19,3 km/h (3 Bft) 100,00 %
20.09.2017 19:22 11,3 C 13,9 C 86 % 1019,5 hPa 0,0 l/m 15,0 km/h (3 Bft) W 275 0 min 0,000 mm 0,0 UV-I 0 W/m 9,0 C 6,7 C 20,9 km/h (4 Bft) 100,00 %
20.09.2017 19:24 11,4 C 13,9 C 86 % 1019,4 hPa 0,0 l/m 11,6 km/h (2 Bft) W-SW 248 0 min 0,000 mm 0,0 UV-I 0 W/m 9,1 C 8,3 C 16,1 km/h (3 Bft) 100,00 %
20.09.2017 19:26 11,3 C 13,9 C 86 % 1019,5 hPa 0,0 l/m 11,5 km/h (2 Bft) SW 232 0 min 0,000 mm 0,0 UV-I 0 W/m 9,0 C 8,3 C 16,1 km/h (3 Bft) 100,00 %
20.09.2017 19:28 11,3 C 13,9 C 86 % 1019,5 hPa 0,0 l/m 12,1 km/h (2 Bft) W 259 0 min 0,000 mm 0,0 UV-I 0 W/m 9,0 C 8,0 C 16,1 km/h (3 Bft) 100,00 %
20.09.2017 19:30 11,3 C 13,9 C 86 % 1019,5 hPa 0,0 l/m 9,1 km/h (2 Bft) W-SW 238 0 min 0,000 mm 0,0 UV-I 0 W/m 9,0 C 9,5 C 14,5 km/h (3 Bft) 100,00 %
20.09.2017 19:32 11,3 C 13,9 C 86 % 1019,5 hPa 0,0 l/m 10,8 km/h (2 Bft) W-SW 252 0 min 0,000 mm 0,0 UV-I 0 W/m 9,0 C 8,6 C 17,7 km/h (3 Bft) 100,00 %
20.09.2017 19:34 11,3 C 13,9 C 86 % 1019,6 hPa 0,0 l/m 10,4 km/h (2 Bft) W-SW 254 0 min 0,000 mm 0,0 UV-I 0 W/m 9,0 C 8,8 C 16,1 km/h (3 Bft) 97,56 %
20.09.2017 19:36 11,2 C 13,9 C 86 % 1019,6 hPa 0,0 l/m 10,0 km/h (2 Bft) W 273 0 min 0,000 mm 0,0 UV-I 0 W/m 8,9 C 8,9 C 14,5 km/h (3 Bft) 98,00 %
20.09.2017 19:38 11,2 C 13,9 C 86 % 1019,7 hPa 0,0 l/m 13,1 km/h (3 Bft) SW 236 0 min 0,000 mm 0,0 UV-I 0 W/m 8,9 C 7,4 C 17,7 km/h (3 Bft) 100,00 %
20.09.2017 19:40 11,2 C 13,9 C 86 % 1019,7 hPa 0,0 l/m 12,5 km/h (3 Bft) W-SW 249 0 min 0,000 mm 0,0 UV-I 0 W/m 8,9 C 7,7 C 17,7 km/h (3 Bft) 100,00 %
20.09.2017 19:42 11,2 C 13,9 C 86 % 1019,7 hPa 0,0 l/m 8,9 km/h (2 Bft) W 260 0 min 0,000 mm 0,0 UV-I 0 W/m 8,9 C 9,6 C 12,9 km/h (3 Bft) 100,00 %
20.09.2017 19:44 11,2 C 13,9 C 86 % 1019,8 hPa 0,0 l/m 11,3 km/h (2 Bft) W 259 0 min 0,000 mm 0,0 UV-I 0 W/m 8,9 C 8,2 C 17,7 km/h (3 Bft) 100,00 %
20.09.2017 19:46 11,1 C 13,3 C 86 % 1019,8 hPa 0,0 l/m 13,0 km/h (3 Bft) W-SW 255 0 min 0,000 mm 0,0 UV-I 0 W/m 8,8 C 7,3 C 19,3 km/h (3 Bft) 100,00 %
20.09.2017 19:48 11,1 C 13,9 C 86 % 1019,8 hPa 0,0 l/m 12,0 km/h (2 Bft) W-SW 253 0 min 0,000 mm 0,0 UV-I 0 W/m 8,8 C 7,8 C 17,7 km/h (3 Bft) 100,00 %
20.09.2017 19:50 11,1 C 13,9 C 85 % 1019,8 hPa 0,0 l/m 10,5 km/h (2 Bft) SW 234 0 min 0,000 mm 0,0 UV-I 0 W/m 8,7 C 8,5 C 17,7 km/h (3 Bft) 100,00 %
20.09.2017 19:52 11,0 C 13,9 C 85 % 1019,8 hPa 0,0 l/m 9,2 km/h (2 Bft) W-SW 245 0 min 0,000 mm 0,0 UV-I 0 W/m 8,6 C 9,2 C 14,5 km/h (3 Bft) 100,00 %
20.09.2017 19:54 11,0 C 13,9 C 85 % 1019,8 hPa 0,0 l/m 9,8 km/h (2 Bft) W-SW 249 0 min 0,000 mm 0,0 UV-I 0 W/m 8,6 C 8,8 C 14,5 km/h (3 Bft) 100,00 %
20.09.2017 19:56 11,0 C 13,9 C 86 % 1019,9 hPa 0,0 l/m 7,6 km/h (2 Bft) SW 234 0 min 0,000 mm 0,0 UV-I 0 W/m 8,7 C 10,2 C 11,3 km/h (2 Bft) 100,00 %
20.09.2017 19:58 10,9 C 13,9 C 86 % 1019,9 hPa 0,0 l/m 9,8 km/h (2 Bft) SW 235 0 min 0,000 mm 0,0 UV-I 0 W/m 8,7 C 8,7 C 16,1 km/h (3 Bft) 100,00 %
20.09.2017 20:00 10,9 C 13,9 C 87 % 1019,8 hPa 0,0 l/m 13,5 km/h (3 Bft) SW 235 0 min 0,000 mm 0,0 UV-I 0 W/m 8,8 C 6,9 C 20,9 km/h (4 Bft) 100,00 %
20.09.2017 20:02 10,9 C 13,9 C 87 % 1019,8 hPa 0,0 l/m 12,9 km/h (3 Bft) SW 226 0 min 0,026 mm 0,0 UV-I 0 W/m 8,8 C 7,1 C 20,9 km/h (4 Bft) 98,00 %
20.09.2017 20:04 10,9 C 13,9 C 88 % 1019,9 hPa 0,0 l/m 10,2 km/h (2 Bft) W-SW 257 0 min 0,000 mm 0,0 UV-I 0 W/m 9,0 C 8,5 C 20,9 km/h (4 Bft) 100,00 %
20.09.2017 20:06 10,9 C 13,9 C 88 % 1019,8 hPa 0,0 l/m 15,3 km/h (3 Bft) S-SW 213 0 min 0,000 mm 0,0 UV-I 0 W/m 9,0 C 6,1 C 22,5 km/h (4 Bft) 100,00 %
20.09.2017 20:08 10,8 C 13,9 C 88 % 1019,8 hPa 0,0 l/m 14,0 km/h (3 Bft) SW 231 0 min 0,000 mm 0,0 UV-I 0 W/m 8,9 C 6,5 C 20,9 km/h (4 Bft) 97,44 %
20.09.2017 20:10 10,8 C 13,9 C 88 % 1019,9 hPa 0,0 l/m 12,9 km/h (3 Bft) SW 228 0 min 0,000 mm 0,0 UV-I 0 W/m 8,9 C 7,0 C 19,3 km/h (3 Bft) 100,00 %
20.09.2017 20:12 10,8 C 13,9 C 87 % 1019,9 hPa 0,0 l/m 15,9 km/h (3 Bft) W-SW 254 0 min 0,000 mm 0,0 UV-I 0 W/m 8,7 C 5,7 C 24,1 km/h (4 Bft) 98,11 %
20.09.2017 20:14 10,7 C 13,9 C 88 % 1020,0 hPa 0,0 l/m 14,9 km/h (3 Bft) SW 221 0 min 0,000 mm 0,0 UV-I 0 W/m 8,8 C 6,0 C 22,5 km/h (4 Bft) 95,74 %
20.09.2017 20:16 10,7 C 13,9 C 87 % 1020,0 hPa 0,0 l/m 15,5 km/h (3 Bft) W-SW 247 0 min 0,000 mm 0,0 UV-I 0 W/m 8,6 C 5,8 C 22,5 km/h (4 Bft) 95,12 %
20.09.2017 20:18 10,7 C 13,9 C 87 % 1020,1 hPa 0,0 l/m 16,3 km/h (3 Bft) W 279 0 min 0,000 mm 0,0 UV-I 0 W/m 8,6 C 5,5 C 24,1 km/h (4 Bft) 92,86 %
20.09.2017 20:20 10,7 C 13,9 C 87 % 1020,1 hPa 0,0 l/m 13,5 km/h (3 Bft) W-SW 253 0 min 0,000 mm 0,0 UV-I 0 W/m 8,6 C 6,6 C 20,9 km/h (4 Bft) 92,68 %
20.09.2017 20:22 10,7 C 13,9 C 87 % 1020,1 hPa 0,0 l/m 14,0 km/h (3 Bft) W-SW 244 0 min 0,000 mm 0,0 UV-I 0 W/m 8,6 C 6,4 C 19,3 km/h (3 Bft) 92,45 %
20.09.2017 20:24 10,7 C 13,9 C 87 % 1020,1 hPa 0,0 l/m 13,3 km/h (3 Bft) W 259 0 min 0,000 mm 0,0 UV-I 0 W/m 8,6 C 6,7 C 20,9 km/h (4 Bft) 94,74 %
20.09.2017 20:26 10,7 C 13,9 C 87 % 1020,1 hPa 0,0 l/m 13,6 km/h (3 Bft) SW 227 0 min 0,000 mm 0,0 UV-I 0 W/m 8,6 C 6,6 C 24,1 km/h (4 Bft) 94,00 %
20.09.2017 20:28 10,7 C 13,9 C 87 % 1020,2 hPa 0,0 l/m 14,3 km/h (3 Bft) W 259 0 min 0,000 mm 0,0 UV-I 0 W/m 8,6 C 6,3 C 20,9 km/h (4 Bft) 95,74 %
20.09.2017 20:30 10,6 C 13,3 C 87 % 1020,2 hPa 0,0 l/m 13,3 km/h (3 Bft) W-SW 256 0 min 0,000 mm 0,0 UV-I 0 W/m 8,5 C 6,6 C 22,5 km/h (4 Bft) 94,74 %
20.09.2017 20:32 10,6 C 13,3 C 87 % 1020,2 hPa 0,0 l/m 13,9 km/h (3 Bft) SW 228 0 min 0,000 mm 0,0 UV-I 0 W/m 8,5 C 6,3 C 17,7 km/h (3 Bft) 95,74 %
20.09.2017 20:34 10,6 C 13,3 C 87 % 1020,3 hPa 0,0 l/m 11,8 km/h (2 Bft) SW 232 0 min 0,000 mm 0,0 UV-I 0 W/m 8,5 C 7,3 C 17,7 km/h (3 Bft) 95,12 %
20.09.2017 20:36 10,6 C 13,3 C 87 % 1020,3 hPa 0,0 l/m 13,8 km/h (3 Bft) W-SW 239 0 min 0,000 mm 0,0 UV-I 0 W/m 8,5 C 6,4 C 22,5 km/h (4 Bft) 96,43 %
20.09.2017 20:38 10,5 C 13,3 C 87 % 1020,2 hPa 0,0 l/m 13,8 km/h (3 Bft) W-SW 239 0 min 0,000 mm 0,0 UV-I 0 W/m 8,4 C 6,3 C 24,1 km/h (4 Bft) 96,00 %
20.09.2017 20:40 10,5 C 13,3 C 87 % 1020,1 hPa 0,0 l/m 12,8 km/h (3 Bft) SW 233 0 min 0,000 mm 0,0 UV-I 0 W/m 8,4 C 6,7 C 20,9 km/h (4 Bft) 91,49 %
20.09.2017 20:42 10,4 C 13,9 C 87 % 1020,2 hPa 0,0 l/m 15,6 km/h (3 Bft) SW 231 0 min 0,000 mm 0,0 UV-I 0 W/m 8,3 C 5,4 C 22,5 km/h (4 Bft) 96,00 %
20.09.2017 20:44 10,4 C 13,3 C 87 % 1020,1 hPa 0,0 l/m 11,8 km/h (2 Bft) SW 234 0 min 0,000 mm 0,0 UV-I 0 W/m 8,3 C 7,1 C 20,9 km/h (4 Bft) 97,62 %
20.09.2017 20:46 10,4 C 13,3 C 87 % 1020,2 hPa 0,0 l/m 13,3 km/h (3 Bft) SW 233 0 min 0,000 mm 0,0 UV-I 0 W/m 8,3 C 6,4 C 19,3 km/h (3 Bft) 96,15 %
20.09.2017 20:48 10,4 C 13,3 C 87 % 1020,3 hPa 0,0 l/m 12,1 km/h (2 Bft) SW 221 0 min 0,000 mm 0,0 UV-I 0 W/m 8,3 C 6,9 C 17,7 km/h (3 Bft) 97,62 %
20.09.2017 20:50 10,3 C 13,3 C 87 % 1020,3 hPa 0,0 l/m 12,1 km/h (2 Bft) S 187 0 min 0,000 mm 0,0 UV-I 0 W/m 8,2 C 6,8 C 17,7 km/h (3 Bft) 98,18 %
20.09.2017 20:52 10,3 C 13,3 C 87 % 1020,2 hPa 0,0 l/m 11,5 km/h (2 Bft) SW 234 0 min 0,000 mm 0,0 UV-I 0 W/m 8,2 C 7,1 C 17,7 km/h (3 Bft) 97,62 %
20.09.2017 20:54 10,3 C 13,3 C 87 % 1020,2 hPa 0,0 l/m 12,7 km/h (3 Bft) SW 224 0 min 0,000 mm 0,0 UV-I 0 W/m 8,2 C 6,5 C 17,7 km/h (3 Bft) 98,11 %
20.09.2017 20:56 10,3 C 13,3 C 87 % 1020,3 hPa 0,0 l/m 13,3 km/h (3 Bft) S 187 0 min 0,000 mm 0,0 UV-I 0 W/m 8,2 C 6,2 C 19,3 km/h (3 Bft) 97,37 %
20.09.2017 20:58 10,2 C 13,3 C 87 % 1020,3 hPa 0,0 l/m 13,6 km/h (3 Bft) SW 227 0 min 0,000 mm 0,0 UV-I 0 W/m 8,1 C 6,0 C 20,9 km/h (4 Bft) 97,56 %
20.09.2017 21:00 10,2 C 13,3 C 87 % 1020,3 hPa 0,0 l/m 14,1 km/h (3 Bft) W 263 0 min 0,025 mm 0,0 UV-I 0 W/m 8,1 C 5,8 C 19,3 km/h (3 Bft) 96,77 %
20.09.2017 21:02 10,2 C 13,3 C 88 % 1020,3 hPa 0,0 l/m 10,8 km/h (2 Bft) W-SW 251 0 min 0,000 mm 0,0 UV-I 0 W/m 8,3 C 7,4 C 16,1 km/h (3 Bft) 94,74 %
20.09.2017 21:04 10,1 C 13,3 C 88 % 1020,2 hPa 0,0 l/m 12,0 km/h (2 Bft) SW 216 0 min 0,000 mm 0,0 UV-I 0 W/m 8,2 C 6,6 C 17,7 km/h (3 Bft) 97,56 %
20.09.2017 21:06 10,1 C 13,3 C 88 % 1020,2 hPa 0,0 l/m 11,9 km/h (2 Bft) SW 217 0 min 0,000 mm 0,0 UV-I 0 W/m 8,2 C 6,7 C 16,1 km/h (3 Bft) 100,00 %
20.09.2017 21:08 10,1 C 13,3 C 88 % 1020,2 hPa 0,0 l/m 11,6 km/h (2 Bft) W-SW 244 0 min 0,000 mm 0,0 UV-I 0 W/m 8,2 C 6,8 C 16,1 km/h (3 Bft) 96,92 %
20.09.2017 21:10 10,0 C 13,3 C 88 % 1020,2 hPa 0,0 l/m 11,3 km/h (2 Bft) W-SW 242 0 min 0,000 mm 0,0 UV-I 0 W/m 8,1 C 6,9 C 17,7 km/h (3 Bft) 98,11 %
20.09.2017 21:12 10,0 C 13,3 C 88 % 1020,2 hPa 0,0 l/m 9,1 km/h (2 Bft) SW 216 0 min 0,000 mm 0,0 UV-I 0 W/m 8,1 C 8,1 C 14,5 km/h (3 Bft) 96,00 %
20.09.2017 21:14 9,9 C 13,3 C 88 % 1020,2 hPa 0,0 l/m 9,8 km/h (2 Bft) W-SW 237 0 min 0,000 mm 0,0 UV-I 0 W/m 8,0 C 7,6 C 16,1 km/h (3 Bft) 97,37 %
20.09.2017 21:16 9,9 C 13,3 C 88 % 1020,2 hPa 0,0 l/m 11,8 km/h (2 Bft) W-SW 238 0 min 0,000 mm 0,0 UV-I 0 W/m 8,0 C 6,5 C 20,9 km/h (4 Bft) 98,00 %
20.09.2017 21:18 9,9 C 13,3 C 88 % 1020,2 hPa 0,0 l/m 14,7 km/h (3 Bft) SW 228 0 min 0,000 mm 0,0 UV-I 0 W/m 8,0 C 5,1 C 24,1 km/h (4 Bft) 100,00 %
20.09.2017 21:20 9,9 C 13,3 C 88 % 1020,1 hPa 0,0 l/m 10,6 km/h (2 Bft) SW 234 0 min 0,000 mm 0,0 UV-I 0 W/m 8,0 C 7,1 C 14,5 km/h (3 Bft) 100,00 %
20.09.2017 21:22 9,9 C 13,3 C 88 % 1020,1 hPa 0,0 l/m 10,9 km/h (2 Bft) SW 232 0 min 0,000 mm 0,0 UV-I 0 W/m 8,0 C 7,0 C 19,3 km/h (3 Bft) 97,92 %
20.09.2017 21:24 9,9 C 13,3 C 88 % 1020,1 hPa 0,0 l/m 11,9 km/h (2 Bft) SW 236 0 min 0,000 mm 0,0 UV-I 0 W/m 8,0 C 6,4 C 22,5 km/h (4 Bft) 100,00 %
20.09.2017 21:26 9,9 C 13,3 C 88 % 1020,1 hPa 0,0 l/m 13,8 km/h (3 Bft) SW 214 0 min 0,000 mm 0,0 UV-I 0 W/m 8,0 C 5,5 C 25,7 km/h (4 Bft) 100,00 %
20.09.2017 21:28 9,9 C 13,3 C 88 % 1020,2 hPa 0,0 l/m 13,2 km/h (3 Bft) W-SW 243 0 min 0,000 mm 0,0 UV-I 0 W/m 8,0 C 5,8 C 22,5 km/h (4 Bft) 100,00 %
20.09.2017 21:30 10,0 C 13,3 C 88 % 1020,2 hPa 0,0 l/m 13,5 km/h (3 Bft) SW 230 0 min 0,000 mm 0,0 UV-I 0 W/m 8,1 C 5,8 C 19,3 km/h (3 Bft) 100,00 %
20.09.2017 21:32 10,0 C 13,3 C 88 % 1020,2 hPa 0,0 l/m 17,0 km/h (3 Bft) SW 231 0 min 0,000 mm 0,0 UV-I 0 W/m 8,1 C 4,3 C 25,7 km/h (4 Bft) 100,00 %
20.09.2017 21:34 10,0 C 13,3 C 88 % 1020,3 hPa 0,0 l/m 13,2 km/h (3 Bft) SW 236 0 min 0,000 mm 0,0 UV-I 0 W/m 8,1 C 5,9 C 19,3 km/h (3 Bft) 100,00 %
20.09.2017 21:36 10,0 C 13,3 C 87 % 1020,2 hPa 0,0 l/m 12,0 km/h (2 Bft) SW 236 0 min 0,000 mm 0,0 UV-I 0 W/m 7,9 C 6,5 C 17,7 km/h (3 Bft) 100,00 %
20.09.2017 21:38 10,0 C 13,3 C 87 % 1020,3 hPa 0,0 l/m 11,4 km/h (2 Bft) W-SW 252 0 min 0,000 mm 0,0 UV-I 0 W/m 7,9 C 6,8 C 17,7 km/h (3 Bft) 100,00 %
20.09.2017 21:40 10,0 C 13,3 C 87 % 1020,3 hPa 0,0 l/m 13,7 km/h (3 Bft) SW 222 0 min 0,000 mm 0,0 UV-I 0 W/m 7,9 C 5,7 C 24,1 km/h (4 Bft) 100,00 %
20.09.2017 21:42 10,0 C 13,3 C 87 % 1020,3 hPa 0,0 l/m 12,8 km/h (3 Bft) SW 222 0 min 0,000 mm 0,0 UV-I 0 W/m 7,9 C 6,1 C 22,5 km/h (4 Bft) 100,00 %
20.09.2017 21:44 10,0 C 13,3 C 87 % 1020,3 hPa 0,0 l/m 14,4 km/h (3 Bft) W-SW 244 0 min 0,000 mm 0,0 UV-I 0 W/m 7,9 C 5,4 C 19,3 km/h (3 Bft) 100,00 %
20.09.2017 21:46 10,0 C 13,3 C 87 % 1020,3 hPa 0,0 l/m 11,4 km/h (2 Bft) SW 223 0 min 0,000 mm 0,0 UV-I 0 W/m 7,9 C 6,8 C 16,1 km/h (3 Bft) 100,00 %
20.09.2017 21:48 10,1 C 13,3 C 87 % 1020,3 hPa 0,0 l/m 11,0 km/h (2 Bft) W-SW 246 0 min 0,000 mm 0,0 UV-I 0 W/m 8,0 C 7,1 C 16,1 km/h (3 Bft) 100,00 %
20.09.2017 21:50 10,0 C 13,3 C 87 % 1020,3 hPa 0,0 l/m 12,3 km/h (3 Bft) W-SW 249 0 min 0,000 mm 0,0 UV-I 0 W/m 7,9 C 6,4 C 19,3 km/h (3 Bft) 98,11 %
20.09.2017 21:52 10,0 C 13,3 C 86 % 1020,3 hPa 0,0 l/m 12,4 km/h (3 Bft) W-SW 241 0 min 0,000 mm 0,0 UV-I 0 W/m 7,8 C 6,3 C 20,9 km/h (4 Bft) 100,00 %
20.09.2017 21:54 10,0 C 13,3 C 86 % 1020,3 hPa 0,0 l/m 13,0 km/h (3 Bft) W-SW 247 0 min 0,000 mm 0,0 UV-I 0 W/m 7,8 C 6,0 C 17,7 km/h (3 Bft) 100,00 %
20.09.2017 21:56 10,0 C 13,3 C 86 % 1020,2 hPa 0,0 l/m 11,2 km/h (2 Bft) SW 235 0 min 0,000 mm 0,0 UV-I 0 W/m 7,8 C 6,9 C 19,3 km/h (3 Bft) 100,00 %
20.09.2017 21:58 10,0 C 13,3 C 86 % 1020,2 hPa 0,0 l/m 14,1 km/h (3 Bft) SW 236 0 min 0,000 mm 0,0 UV-I 0 W/m 7,8 C 5,5 C 20,9 km/h (4 Bft) 100,00 %
20.09.2017 22:00 10,0 C 13,3 C 86 % 1020,3 hPa 0,0 l/m 10,3 km/h (2 Bft) W-SW 239 0 min 0,000 mm 0,0 UV-I 0 W/m 7,8 C 7,4 C 17,7 km/h (3 Bft) 100,00 %
20.09.2017 22:02 10,0 C 13,3 C 86 % 1020,3 hPa 0,0 l/m 10,2 km/h (2 Bft) W-SW 252 0 min 0,026 mm 0,0 UV-I 0 W/m 7,8 C 7,5 C 16,1 km/h (3 Bft) 100,00 %
20.09.2017 22:04 10,0 C 13,3 C 86 % 1020,3 hPa 0,0 l/m 10,4 km/h (2 Bft) SW 229 0 min 0,000 mm 0,0 UV-I 0 W/m 7,8 C 7,4 C 16,1 km/h (3 Bft) 98,18 %
20.09.2017 22:06 10,0 C 13,3 C 86 % 1020,2 hPa 0,0 l/m 13,7 km/h (3 Bft) W-SW 257 0 min 0,000 mm 0,0 UV-I 0 W/m 7,8 C 5,7 C 20,9 km/h (4 Bft) 97,44 %
20.09.2017 22:08 10,0 C 13,3 C 86 % 1020,3 hPa 0,0 l/m 11,0 km/h (2 Bft) S-SW 213 0 min 0,000 mm 0,0 UV-I 0 W/m 7,8 C 7,0 C 16,1 km/h (3 Bft) 100,00 %
20.09.2017 22:10 10,0 C 13,3 C 86 % 1020,3 hPa 0,0 l/m 14,6 km/h (3 Bft) W-SW 237 0 min 0,000 mm 0,0 UV-I 0 W/m 7,8 C 5,3 C 20,9 km/h (4 Bft) 100,00 %
20.09.2017 22:12 10,0 C 13,3 C 86 % 1020,3 hPa 0,0 l/m 13,2 km/h (3 Bft) W-SW 252 0 min 0,000 mm 0,0 UV-I 0 W/m 7,8 C 5,9 C 19,3 km/h (3 Bft) 100,00 %
20.09.2017 22:14 10,0 C 13,3 C 86 % 1020,3 hPa 0,0 l/m 14,0 km/h (3 Bft) SW 232 0 min 0,000 mm 0,0 UV-I 0 W/m 7,8 C 5,6 C 19,3 km/h (3 Bft) 98,21 %
20.09.2017 22:16 10,0 C 13,3 C 86 % 1020,3 hPa 0,0 l/m 12,5 km/h (3 Bft) W 266 0 min 0,000 mm 0,0 UV-I 0 W/m 7,8 C 6,3 C 19,3 km/h (3 Bft) 97,56 %
20.09.2017 22:18 10,0 C 13,3 C 86 % 1020,3 hPa 0,0 l/m 11,3 km/h (2 Bft) SW 231 0 min 0,000 mm 0,0 UV-I 0 W/m 7,8 C 6,9 C 19,3 km/h (3 Bft) 95,74 %
20.09.2017 22:20 10,0 C 13,3 C 86 % 1020,2 hPa 0,0 l/m 12,4 km/h (3 Bft) SW 235 0 min 0,000 mm 0,0 UV-I 0 W/m 7,8 C 6,3 C 20,9 km/h (4 Bft) 97,73 %
20.09.2017 22:22 10,0 C 13,3 C 86 % 1020,3 hPa 0,0 l/m 9,8 km/h (2 Bft) SW 223 0 min 0,000 mm 0,0 UV-I 0 W/m 7,8 C 7,7 C 17,7 km/h (3 Bft) 95,74 %
20.09.2017 22:24 10,0 C 13,3 C 86 % 1020,3 hPa 0,0 l/m 10,0 km/h (2 Bft) W-SW 243 0 min 0,000 mm 0,0 UV-I 0 W/m 7,8 C 7,6 C 14,5 km/h (3 Bft) 92,45 %
20.09.2017 22:26 10,0 C 13,3 C 86 % 1020,3 hPa 0,0 l/m 12,9 km/h (3 Bft) W-SW 252 0 min 0,000 mm 0,0 UV-I 0 W/m 7,8 C 6,1 C 20,9 km/h (4 Bft) 97,73 %
20.09.2017 22:28 10,0 C 13,3 C 86 % 1020,3 hPa 0,0 l/m 11,2 km/h (2 Bft) SW 234 0 min 0,000 mm 0,0 UV-I 0 W/m 7,8 C 6,9 C 17,7 km/h (3 Bft) 97,87 %
20.09.2017 22:30 10,0 C 13,3 C 86 % 1020,4 hPa 0,0 l/m 12,1 km/h (2 Bft) SW 230 0 min 0,000 mm 0,0 UV-I 0 W/m 7,8 C 6,5 C 19,3 km/h (3 Bft) 97,56 %
20.09.2017 22:32 9,9 C 13,3 C 86 % 1020,4 hPa 0,0 l/m 12,8 km/h (3 Bft) W 273 0 min 0,000 mm 0,0 UV-I 0 W/m 7,7 C 6,0 C 20,9 km/h (4 Bft) 97,87 %
20.09.2017 22:34 9,9 C 13,3 C 86 % 1020,4 hPa 0,0 l/m 11,0 km/h (2 Bft) W 263 0 min 0,000 mm 0,0 UV-I 0 W/m 7,7 C 6,9 C 17,7 km/h (3 Bft) 94,00 %
20.09.2017 22:36 9,9 C 13,3 C 86 % 1020,4 hPa 0,0 l/m 13,7 km/h (3 Bft) W-SW 254 0 min 0,000 mm 0,0 UV-I 0 W/m 7,7 C 5,6 C 22,5 km/h (4 Bft) 98,21 %
20.09.2017 22:38 9,9 C 13,3 C 86 % 1020,5 hPa 0,0 l/m 13,6 km/h (3 Bft) SW 236 0 min 0,000 mm 0,0 UV-I 0 W/m 7,7 C 5,6 C 19,3 km/h (3 Bft) 97,37 %
20.09.2017 22:40 9,9 C 13,3 C 86 % 1020,5 hPa 0,0 l/m 11,0 km/h (2 Bft) W-SW 247 0 min 0,000 mm 0,0 UV-I 0 W/m 7,7 C 6,9 C 19,3 km/h (3 Bft) 96,43 %
20.09.2017 22:42 9,9 C 13,3 C 86 % 1020,5 hPa 0,0 l/m 10,9 km/h (2 Bft) W 264 0 min 0,000 mm 0,0 UV-I 0 W/m 7,7 C 7,0 C 16,1 km/h (3 Bft) 97,56 %
20.09.2017 22:44 9,9 C 13,3 C 86 % 1020,5 hPa 0,0 l/m 8,9 km/h (2 Bft) W-SW 245 0 min 0,000 mm 0,0 UV-I 0 W/m 7,7 C 8,2 C 12,9 km/h (3 Bft) 97,44 %
20.09.2017 22:46 9,9 C 13,3 C 86 % 1020,5 hPa 0,0 l/m 9,7 km/h (2 Bft) W 260 0 min 0,000 mm 0,0 UV-I 0 W/m 7,7 C 7,7 C 14,5 km/h (3 Bft) 98,11 %
20.09.2017 22:48 9,9 C 13,3 C 86 % 1020,4 hPa 0,0 l/m 12,2 km/h (2 Bft) W-SW 246 0 min 0,000 mm 0,0 UV-I 0 W/m 7,7 C 6,3 C 16,1 km/h (3 Bft) 100,00 %
20.09.2017 22:50 9,9 C 13,3 C 87 % 1020,5 hPa 0,0 l/m 12,6 km/h (3 Bft) W 266 0 min 0,000 mm 0,0 UV-I 0 W/m 7,8 C 6,1 C 16,1 km/h (3 Bft) 100,00 %
20.09.2017 22:52 9,9 C 13,3 C 87 % 1020,5 hPa 0,0 l/m 14,4 km/h (3 Bft) W-SW 250 0 min 0,000 mm 0,0 UV-I 0 W/m 7,8 C 5,3 C 20,9 km/h (4 Bft) 100,00 %
20.09.2017 22:54 9,9 C 13,3 C 87 % 1020,5 hPa 0,0 l/m 13,5 km/h (3 Bft) W-SW 256 0 min 0,000 mm 0,0 UV-I 0 W/m 7,8 C 5,7 C 19,3 km/h (3 Bft) 100,00 %
20.09.2017 22:56 9,9 C 13,3 C 87 % 1020,5 hPa 0,0 l/m 11,7 km/h (2 Bft) W 263 0 min 0,000 mm 0,0 UV-I 0 W/m 7,8 C 6,6 C 16,1 km/h (3 Bft) 100,00 %
20.09.2017 22:58 9,9 C 13,3 C 87 % 1020,5 hPa 0,0 l/m 12,2 km/h (2 Bft) W-SW 246 0 min 0,000 mm 0,0 UV-I 0 W/m 7,8 C 6,3 C 24,1 km/h (4 Bft) 100,00 %
20.09.2017 23:00 9,9 C 13,3 C 87 % 1020,5 hPa 0,0 l/m 12,7 km/h (3 Bft) W-SW 244 0 min 0,000 mm 0,0 UV-I 0 W/m 7,8 C 6,1 C 19,3 km/h (3 Bft) 100,00 %
20.09.2017 23:02 9,9 C 13,3 C 87 % 1020,6 hPa 0,0 l/m 10,0 km/h (2 Bft) W 260 0 min 0,025 mm 0,0 UV-I 0 W/m 7,8 C 7,5 C 16,1 km/h (3 Bft) 100,00 %
20.09.2017 23:04 9,9 C 13,3 C 87 % 1020,6 hPa 0,0 l/m 12,1 km/h (2 Bft) SW 218 0 min 0,000 mm 0,0 UV-I 0 W/m 7,8 C 6,3 C 17,7 km/h (3 Bft) 100,00 %
20.09.2017 23:06 9,9 C 13,3 C 87 % 1020,5 hPa 0,0 l/m 10,5 km/h (2 Bft) SW 233 0 min 0,000 mm 0,0 UV-I 0 W/m 7,8 C 7,2 C 16,1 km/h (3 Bft) 100,00 %
20.09.2017 23:08 9,9 C 13,3 C 87 % 1020,6 hPa 0,0 l/m 8,4 km/h (2 Bft) SW 225 0 min 0,000 mm 0,0 UV-I 0 W/m 7,8 C 8,5 C 12,9 km/h (3 Bft) 100,00 %
20.09.2017 23:10 9,9 C 13,3 C 87 % 1020,6 hPa 0,0 l/m 8,7 km/h (2 Bft) W-SW 248 0 min 0,000 mm 0,0 UV-I 0 W/m 7,8 C 8,3 C 17,7 km/h (3 Bft) 100,00 %
20.09.2017 23:12 9,9 C 13,3 C 87 % 1020,6 hPa 0,0 l/m 9,7 km/h (2 Bft) SW 214 0 min 0,000 mm 0,0 UV-I 0 W/m 7,8 C 7,7 C 16,1 km/h (3 Bft) 100,00 %
20.09.2017 23:14 9,9 C 13,3 C 87 % 1020,6 hPa 0,0 l/m 9,6 km/h (2 Bft) W-SW 257 0 min 0,000 mm 0,0 UV-I 0 W/m 7,8 C 7,7 C 20,9 km/h (4 Bft) 96,36 %
20.09.2017 23:16 9,9 C 13,3 C 87 % 1020,6 hPa 0,0 l/m 8,2 km/h (2 Bft) W-SW 248 0 min 0,000 mm 0,0 UV-I 0 W/m 7,8 C 8,6 C 14,5 km/h (3 Bft) 98,31 %
20.09.2017 23:18 9,9 C 13,3 C 87 % 1020,6 hPa 0,0 l/m 8,1 km/h (2 Bft) W-SW 242 0 min 0,000 mm 0,0 UV-I 0 W/m 7,8 C 8,7 C 12,9 km/h (3 Bft) 97,14 %
20.09.2017 23:20 9,9 C 13,3 C 87 % 1020,6 hPa 0,0 l/m 8,8 km/h (2 Bft) W-SW 244 0 min 0,000 mm 0,0 UV-I 0 W/m 7,8 C 8,2 C 12,9 km/h (3 Bft) 100,00 %
20.09.2017 23:22 9,9 C 13,3 C 87 % 1020,6 hPa 0,0 l/m 10,9 km/h (2 Bft) W 267 0 min 0,000 mm 0,0 UV-I 0 W/m 7,8 C 7,0 C 16,1 km/h (3 Bft) 100,00 %
20.09.2017 23:24 9,9 C 13,3 C 87 % 1020,6 hPa 0,0 l/m 13,3 km/h (3 Bft) S-SW 207 0 min 0,000 mm 0,0 UV-I 0 W/m 7,8 C 5,8 C 19,3 km/h (3 Bft) 98,00 %
20.09.2017 23:26 9,9 C 13,3 C 87 % 1020,6 hPa 0,0 l/m 11,4 km/h (2 Bft) SW 220 0 min 0,000 mm 0,0 UV-I 0 W/m 7,8 C 6,7 C 17,7 km/h (3 Bft) 100,00 %
20.09.2017 23:28 9,9 C 13,3 C 87 % 1020,6 hPa 0,0 l/m 9,2 km/h (2 Bft) SW 232 0 min 0,000 mm 0,0 UV-I 0 W/m 7,8 C 8,0 C 12,9 km/h (3 Bft) 100,00 %
20.09.2017 23:30 9,9 C 13,3 C 87 % 1020,6 hPa 0,0 l/m 11,1 km/h (2 Bft) W-SW 254 0 min 0,000 mm 0,0 UV-I 0 W/m 7,8 C 6,9 C 17,7 km/h (3 Bft) 100,00 %
20.09.2017 23:32 9,9 C 13,3 C 87 % 1020,6 hPa 0,0 l/m 8,7 km/h (2 Bft) W 270 0 min 0,000 mm 0,0 UV-I 0 W/m 7,8 C 8,3 C 12,9 km/h (3 Bft) 100,00 %
20.09.2017 23:34 9,9 C 13,3 C 87 % 1020,6 hPa 0,0 l/m 10,4 km/h (2 Bft) SW 223 0 min 0,000 mm 0,0 UV-I 0 W/m 7,8 C 7,3 C 16,1 km/h (3 Bft) 100,00 %
20.09.2017 23:36 9,9 C 13,3 C 87 % 1020,6 hPa 0,0 l/m 9,0 km/h (2 Bft) W 273 0 min 0,000 mm 0,0 UV-I 0 W/m 7,8 C 8,1 C 12,9 km/h (3 Bft) 100,00 %
20.09.2017 23:38 9,9 C 13,3 C 87 % 1020,6 hPa 0,0 l/m 11,4 km/h (2 Bft) S-SW 211 0 min 0,000 mm 0,0 UV-I 0 W/m 7,8 C 6,7 C 17,7 km/h (3 Bft) 100,00 %
20.09.2017 23:40 9,9 C 13,3 C 87 % 1020,6 hPa 0,0 l/m 10,1 km/h (2 Bft) W-SW 246 0 min 0,000 mm 0,0 UV-I 0 W/m 7,8 C 7,4 C 17,7 km/h (3 Bft) 97,56 %
20.09.2017 23:42 9,9 C 13,3 C 87 % 1020,6 hPa 0,0 l/m 11,1 km/h (2 Bft) W-SW 242 0 min 0,000 mm 0,0 UV-I 0 W/m 7,8 C 6,9 C 19,3 km/h (3 Bft) 100,00 %
20.09.2017 23:44 9,9 C 13,3 C 87 % 1020,6 hPa 0,0 l/m 9,7 km/h (2 Bft) W-SW 248 0 min 0,000 mm 0,0 UV-I 0 W/m 7,8 C 7,7 C 14,5 km/h (3 Bft) 98,31 %
20.09.2017 23:46 9,9 C 13,3 C 87 % 1020,6 hPa 0,0 l/m 10,1 km/h (2 Bft) W-SW 242 0 min 0,000 mm 0,0 UV-I 0 W/m 7,8 C 7,4 C 16,1 km/h (3 Bft) 100,00 %
20.09.2017 23:48 9,8 C 13,3 C 87 % 1020,6 hPa 0,0 l/m 8,1 km/h (2 Bft) W-SW 257 0 min 0,000 mm 0,0 UV-I 0 W/m 7,7 C 8,6 C 14,5 km/h (3 Bft) 100,00 %
20.09.2017 23:50 9,9 C 13,3 C 87 % 1020,7 hPa 0,0 l/m 7,9 km/h (2 Bft) W 267 0 min 0,000 mm 0,0 UV-I 0 W/m 7,8 C 8,8 C 17,7 km/h (3 Bft) 100,00 %
20.09.2017 23:52 9,9 C 13,3 C 87 % 1020,7 hPa 0,0 l/m 10,8 km/h (2 Bft) W 260 0 min 0,000 mm 0,0 UV-I 0 W/m 7,8 C 7,0 C 14,5 km/h (3 Bft) 100,00 %
20.09.2017 23:54 9,8 C 13,3 C 87 % 1020,7 hPa 0,0 l/m 11,3 km/h (2 Bft) W-SW 249 0 min 0,000 mm 0,0 UV-I 0 W/m 7,7 C 6,6 C 17,7 km/h (3 Bft) 100,00 %
20.09.2017 23:56 9,8 C 13,3 C 87 % 1020,8 hPa 0,0 l/m 12,3 km/h (3 Bft) W-SW 238 0 min 0,000 mm 0,0 UV-I 0 W/m 7,7 C 6,1 C 20,9 km/h (4 Bft) 100,00 %
20.09.2017 23:58 9,8 C 13,3 C 87 % 1020,8 hPa 0,0 l/m 10,6 km/h (2 Bft) W-SW 255 0 min 0,000 mm 0,0 UV-I 0 W/m 7,7 C 7,0 C 16,1 km/h (3 Bft) 98,00 %
_ Min-Zeit 03:54 02:12 15:24 00:18 - 15:08 - - - - - - 22:32 00:26 14:40 03:02
Minimum _ 8,7 C 13,3 C 70 % 1016,7 hPa - 5,1 km/h (1 Bft) - - - - - - 7,7 C 2,4 C 8,0 km/h (2 Bft) 86,79 %
_ Max-Zeit 15:14 00:00 00:00 23:56 00:54 13:44 - - 16:43 14:00 13:08 13:08 13:42 15:10 13:44 00:12
Maximum _ 14,9 C 13,9 C 95 % 1020,8 hPa 0,2 l/m 23,4 km/h
W-SW (4 Bft)
- - 3 min 0,254 mm 3,0 UV-I 788 W/m 10,5 C 14,8 C 32,2 km/h
W-SW (5 Bft)
100,00 %
Durchschnitt _ 10,7 C 13,4 C 88 % 1018,6 hPa #0,4 l/m 11,5 km/h (2 Bft) W-SW - #2:58 h #1,651 mm 1,4 UV-I 209 W/m 8,8 C 7,7 C 18,2 km/h (3 Bft) 98,19 %